<?xml version="1.0" encoding="UTF-8" standalone="no" ?>
<gpx xmlns="http://www.topografix.com/GPX/1/1" xmlns:xsi="http://www.w3.org/2001/XMLSchema-instance" xsi:schemaLocation="http://www.topografix.com/GPX/1/1 http://www.topografix.com/GPX/1/1/gpx.xsd" version="1.1" creator="VisuGPX - https://www.visugpx.com">
  <metadata>
    <name>Rando VTT organisé par les pompiers de Saint Leonard</name>
    <desc><![CDATA[Belle randonnée, le début est assez difficile, la fin est beaucoup plus roulante !]]></desc>
  </metadata>
  <trk>
    <name><![CDATA[Tracé actuel: 22 AVR 2018 09:05]]></name>
    <trkseg>
      <trkpt lat="48.21548" lon="6.94568">
        <ele>409.66</ele>
        <time>2018-04-22T07:05:06Z</time>
      </trkpt>
      <trkpt lat="48.21549" lon="6.94568">
        <ele>422.16</ele>
        <time>2018-04-22T07:08:25Z</time>
      </trkpt>
      <trkpt lat="48.21549" lon="6.94561">
        <ele>422.16</ele>
        <time>2018-04-22T07:08:39Z</time>
      </trkpt>
      <trkpt lat="48.21553" lon="6.94569">
        <ele>421.68</ele>
        <time>2018-04-22T07:08:51Z</time>
      </trkpt>
      <trkpt lat="48.21559" lon="6.94582">
        <ele>420.71</ele>
        <time>2018-04-22T07:08:57Z</time>
      </trkpt>
      <trkpt lat="48.21567" lon="6.94577">
        <ele>420.71</ele>
        <time>2018-04-22T07:09:01Z</time>
      </trkpt>
      <trkpt lat="48.21574" lon="6.94584">
        <ele>420.23</ele>
        <time>2018-04-22T07:09:05Z</time>
      </trkpt>
      <trkpt lat="48.2157" lon="6.94599">
        <ele>419.75</ele>
        <time>2018-04-22T07:09:09Z</time>
      </trkpt>
      <trkpt lat="48.21566" lon="6.94614">
        <ele>419.27</ele>
        <time>2018-04-22T07:09:12Z</time>
      </trkpt>
      <trkpt lat="48.21561" lon="6.94627">
        <ele>418.79</ele>
        <time>2018-04-22T07:09:15Z</time>
      </trkpt>
      <trkpt lat="48.21552" lon="6.94616">
        <ele>419.75</ele>
        <time>2018-04-22T07:09:19Z</time>
      </trkpt>
      <trkpt lat="48.21544" lon="6.94615">
        <ele>419.27</ele>
        <time>2018-04-22T07:09:24Z</time>
      </trkpt>
      <trkpt lat="48.21551" lon="6.94624">
        <ele>418.79</ele>
        <time>2018-04-22T07:09:32Z</time>
      </trkpt>
      <trkpt lat="48.2155" lon="6.9462">
        <ele>418.79</ele>
        <time>2018-04-22T07:09:39Z</time>
      </trkpt>
      <trkpt lat="48.21557" lon="6.94633">
        <ele>419.27</ele>
        <time>2018-04-22T07:09:46Z</time>
      </trkpt>
      <trkpt lat="48.21566" lon="6.94638">
        <ele>419.27</ele>
        <time>2018-04-22T07:09:57Z</time>
      </trkpt>
      <trkpt lat="48.21564" lon="6.94633">
        <ele>419.27</ele>
        <time>2018-04-22T07:10:07Z</time>
      </trkpt>
      <trkpt lat="48.21558" lon="6.94623">
        <ele>418.79</ele>
        <time>2018-04-22T07:10:13Z</time>
      </trkpt>
      <trkpt lat="48.21549" lon="6.94615">
        <ele>418.79</ele>
        <time>2018-04-22T07:10:17Z</time>
      </trkpt>
      <trkpt lat="48.2154" lon="6.94611">
        <ele>419.75</ele>
        <time>2018-04-22T07:10:21Z</time>
      </trkpt>
      <trkpt lat="48.2153" lon="6.94608">
        <ele>420.23</ele>
        <time>2018-04-22T07:10:25Z</time>
      </trkpt>
      <trkpt lat="48.21522" lon="6.94604">
        <ele>420.23</ele>
        <time>2018-04-22T07:10:29Z</time>
      </trkpt>
      <trkpt lat="48.21513" lon="6.94601">
        <ele>421.19</ele>
        <time>2018-04-22T07:10:37Z</time>
      </trkpt>
      <trkpt lat="48.21507" lon="6.9461">
        <ele>421.19</ele>
        <time>2018-04-22T07:10:44Z</time>
      </trkpt>
      <trkpt lat="48.21504" lon="6.94622">
        <ele>421.19</ele>
        <time>2018-04-22T07:10:50Z</time>
      </trkpt>
      <trkpt lat="48.21502" lon="6.94636">
        <ele>421.19</ele>
        <time>2018-04-22T07:10:55Z</time>
      </trkpt>
      <trkpt lat="48.21501" lon="6.94651">
        <ele>421.19</ele>
        <time>2018-04-22T07:11:00Z</time>
      </trkpt>
      <trkpt lat="48.21505" lon="6.94664">
        <ele>420.71</ele>
        <time>2018-04-22T07:11:06Z</time>
      </trkpt>
      <trkpt lat="48.21507" lon="6.94647">
        <ele>420.71</ele>
        <time>2018-04-22T07:11:12Z</time>
      </trkpt>
      <trkpt lat="48.21506" lon="6.94633">
        <ele>420.71</ele>
        <time>2018-04-22T07:11:17Z</time>
      </trkpt>
      <trkpt lat="48.21501" lon="6.94645">
        <ele>421.19</ele>
        <time>2018-04-22T07:11:23Z</time>
      </trkpt>
      <trkpt lat="48.21501" lon="6.94661">
        <ele>420.71</ele>
        <time>2018-04-22T07:11:28Z</time>
      </trkpt>
      <trkpt lat="48.21501" lon="6.94676">
        <ele>420.71</ele>
        <time>2018-04-22T07:11:32Z</time>
      </trkpt>
      <trkpt lat="48.21501" lon="6.94691">
        <ele>420.71</ele>
        <time>2018-04-22T07:11:36Z</time>
      </trkpt>
      <trkpt lat="48.21502" lon="6.94708">
        <ele>420.23</ele>
        <time>2018-04-22T07:11:40Z</time>
      </trkpt>
      <trkpt lat="48.21504" lon="6.94725">
        <ele>421.19</ele>
        <time>2018-04-22T07:11:44Z</time>
      </trkpt>
      <trkpt lat="48.21505" lon="6.94739">
        <ele>420.23</ele>
        <time>2018-04-22T07:11:47Z</time>
      </trkpt>
      <trkpt lat="48.21507" lon="6.94753">
        <ele>420.71</ele>
        <time>2018-04-22T07:11:50Z</time>
      </trkpt>
      <trkpt lat="48.2151" lon="6.94767">
        <ele>420.71</ele>
        <time>2018-04-22T07:11:53Z</time>
      </trkpt>
      <trkpt lat="48.21513" lon="6.9478">
        <ele>420.23</ele>
        <time>2018-04-22T07:11:56Z</time>
      </trkpt>
      <trkpt lat="48.21516" lon="6.94793">
        <ele>420.23</ele>
        <time>2018-04-22T07:11:59Z</time>
      </trkpt>
      <trkpt lat="48.21517" lon="6.94805">
        <ele>420.71</ele>
        <time>2018-04-22T07:12:05Z</time>
      </trkpt>
      <trkpt lat="48.21519" lon="6.94818">
        <ele>420.71</ele>
        <time>2018-04-22T07:12:18Z</time>
      </trkpt>
      <trkpt lat="48.21526" lon="6.94829">
        <ele>420.71</ele>
        <time>2018-04-22T07:12:24Z</time>
      </trkpt>
      <trkpt lat="48.2153" lon="6.94843">
        <ele>420.23</ele>
        <time>2018-04-22T07:12:29Z</time>
      </trkpt>
      <trkpt lat="48.21535" lon="6.94856">
        <ele>420.23</ele>
        <time>2018-04-22T07:12:33Z</time>
      </trkpt>
      <trkpt lat="48.2154" lon="6.94867">
        <ele>420.71</ele>
        <time>2018-04-22T07:12:37Z</time>
      </trkpt>
      <trkpt lat="48.21547" lon="6.94881">
        <ele>419.75</ele>
        <time>2018-04-22T07:12:42Z</time>
      </trkpt>
      <trkpt lat="48.21553" lon="6.94894">
        <ele>420.23</ele>
        <time>2018-04-22T07:12:47Z</time>
      </trkpt>
      <trkpt lat="48.21559" lon="6.94907">
        <ele>420.23</ele>
        <time>2018-04-22T07:12:52Z</time>
      </trkpt>
      <trkpt lat="48.21565" lon="6.9492">
        <ele>420.23</ele>
        <time>2018-04-22T07:12:56Z</time>
      </trkpt>
      <trkpt lat="48.2157" lon="6.94931">
        <ele>420.23</ele>
        <time>2018-04-22T07:12:59Z</time>
      </trkpt>
      <trkpt lat="48.21576" lon="6.94942">
        <ele>420.71</ele>
        <time>2018-04-22T07:13:02Z</time>
      </trkpt>
      <trkpt lat="48.21581" lon="6.94952">
        <ele>420.23</ele>
        <time>2018-04-22T07:13:05Z</time>
      </trkpt>
      <trkpt lat="48.21581" lon="6.94968">
        <ele>420.23</ele>
        <time>2018-04-22T07:13:09Z</time>
      </trkpt>
      <trkpt lat="48.21572" lon="6.94974">
        <ele>420.23</ele>
        <time>2018-04-22T07:13:12Z</time>
      </trkpt>
      <trkpt lat="48.21562" lon="6.94973">
        <ele>419.75</ele>
        <time>2018-04-22T07:13:15Z</time>
      </trkpt>
      <trkpt lat="48.21552" lon="6.94968">
        <ele>420.23</ele>
        <time>2018-04-22T07:13:19Z</time>
      </trkpt>
      <trkpt lat="48.21542" lon="6.94965">
        <ele>420.71</ele>
        <time>2018-04-22T07:13:23Z</time>
      </trkpt>
      <trkpt lat="48.21531" lon="6.94963">
        <ele>420.71</ele>
        <time>2018-04-22T07:13:27Z</time>
      </trkpt>
      <trkpt lat="48.21523" lon="6.94961">
        <ele>420.71</ele>
        <time>2018-04-22T07:13:31Z</time>
      </trkpt>
      <trkpt lat="48.21512" lon="6.94961">
        <ele>421.19</ele>
        <time>2018-04-22T07:13:35Z</time>
      </trkpt>
      <trkpt lat="48.21501" lon="6.9496">
        <ele>421.19</ele>
        <time>2018-04-22T07:13:39Z</time>
      </trkpt>
      <trkpt lat="48.21489" lon="6.94961">
        <ele>421.68</ele>
        <time>2018-04-22T07:13:43Z</time>
      </trkpt>
      <trkpt lat="48.21479" lon="6.9496">
        <ele>421.19</ele>
        <time>2018-04-22T07:13:46Z</time>
      </trkpt>
      <trkpt lat="48.2147" lon="6.9496">
        <ele>421.68</ele>
        <time>2018-04-22T07:13:49Z</time>
      </trkpt>
      <trkpt lat="48.21459" lon="6.94957">
        <ele>421.68</ele>
        <time>2018-04-22T07:13:53Z</time>
      </trkpt>
      <trkpt lat="48.2145" lon="6.94955">
        <ele>422.16</ele>
        <time>2018-04-22T07:13:56Z</time>
      </trkpt>
      <trkpt lat="48.21441" lon="6.94952">
        <ele>422.64</ele>
        <time>2018-04-22T07:13:59Z</time>
      </trkpt>
      <trkpt lat="48.21431" lon="6.9495">
        <ele>422.16</ele>
        <time>2018-04-22T07:14:02Z</time>
      </trkpt>
      <trkpt lat="48.21422" lon="6.94946">
        <ele>422.16</ele>
        <time>2018-04-22T07:14:05Z</time>
      </trkpt>
      <trkpt lat="48.21412" lon="6.94945">
        <ele>422.16</ele>
        <time>2018-04-22T07:14:08Z</time>
      </trkpt>
      <trkpt lat="48.21407" lon="6.94957">
        <ele>422.16</ele>
        <time>2018-04-22T07:14:11Z</time>
      </trkpt>
      <trkpt lat="48.21404" lon="6.94975">
        <ele>422.64</ele>
        <time>2018-04-22T07:14:15Z</time>
      </trkpt>
      <trkpt lat="48.21402" lon="6.94992">
        <ele>422.64</ele>
        <time>2018-04-22T07:14:19Z</time>
      </trkpt>
      <trkpt lat="48.214" lon="6.95005">
        <ele>422.64</ele>
        <time>2018-04-22T07:14:22Z</time>
      </trkpt>
      <trkpt lat="48.21398" lon="6.95019">
        <ele>423.12</ele>
        <time>2018-04-22T07:14:25Z</time>
      </trkpt>
      <trkpt lat="48.21395" lon="6.95033">
        <ele>423.12</ele>
        <time>2018-04-22T07:14:28Z</time>
      </trkpt>
      <trkpt lat="48.21393" lon="6.95047">
        <ele>422.64</ele>
        <time>2018-04-22T07:14:31Z</time>
      </trkpt>
      <trkpt lat="48.21392" lon="6.95062">
        <ele>422.64</ele>
        <time>2018-04-22T07:14:34Z</time>
      </trkpt>
      <trkpt lat="48.2139" lon="6.95077">
        <ele>423.12</ele>
        <time>2018-04-22T07:14:37Z</time>
      </trkpt>
      <trkpt lat="48.21388" lon="6.9509">
        <ele>423.12</ele>
        <time>2018-04-22T07:14:40Z</time>
      </trkpt>
      <trkpt lat="48.21386" lon="6.95106">
        <ele>423.12</ele>
        <time>2018-04-22T07:14:43Z</time>
      </trkpt>
      <trkpt lat="48.21384" lon="6.95122">
        <ele>423.12</ele>
        <time>2018-04-22T07:14:46Z</time>
      </trkpt>
      <trkpt lat="48.21383" lon="6.95137">
        <ele>423.6</ele>
        <time>2018-04-22T07:14:49Z</time>
      </trkpt>
      <trkpt lat="48.21381" lon="6.95153">
        <ele>423.12</ele>
        <time>2018-04-22T07:14:52Z</time>
      </trkpt>
      <trkpt lat="48.21379" lon="6.9517">
        <ele>423.12</ele>
        <time>2018-04-22T07:14:55Z</time>
      </trkpt>
      <trkpt lat="48.21377" lon="6.95186">
        <ele>423.6</ele>
        <time>2018-04-22T07:14:58Z</time>
      </trkpt>
      <trkpt lat="48.21375" lon="6.95202">
        <ele>423.6</ele>
        <time>2018-04-22T07:15:01Z</time>
      </trkpt>
      <trkpt lat="48.21373" lon="6.95217">
        <ele>424.08</ele>
        <time>2018-04-22T07:15:04Z</time>
      </trkpt>
      <trkpt lat="48.21371" lon="6.95233">
        <ele>423.6</ele>
        <time>2018-04-22T07:15:07Z</time>
      </trkpt>
      <trkpt lat="48.21368" lon="6.95251">
        <ele>423.6</ele>
        <time>2018-04-22T07:15:10Z</time>
      </trkpt>
      <trkpt lat="48.21365" lon="6.95268">
        <ele>423.6</ele>
        <time>2018-04-22T07:15:13Z</time>
      </trkpt>
      <trkpt lat="48.21363" lon="6.95285">
        <ele>423.6</ele>
        <time>2018-04-22T07:15:16Z</time>
      </trkpt>
      <trkpt lat="48.2136" lon="6.95302">
        <ele>423.6</ele>
        <time>2018-04-22T07:15:19Z</time>
      </trkpt>
      <trkpt lat="48.21356" lon="6.95318">
        <ele>423.12</ele>
        <time>2018-04-22T07:15:22Z</time>
      </trkpt>
      <trkpt lat="48.21353" lon="6.95335">
        <ele>423.12</ele>
        <time>2018-04-22T07:15:25Z</time>
      </trkpt>
      <trkpt lat="48.21349" lon="6.95352">
        <ele>423.6</ele>
        <time>2018-04-22T07:15:28Z</time>
      </trkpt>
      <trkpt lat="48.21345" lon="6.95369">
        <ele>423.12</ele>
        <time>2018-04-22T07:15:31Z</time>
      </trkpt>
      <trkpt lat="48.21342" lon="6.95385">
        <ele>422.64</ele>
        <time>2018-04-22T07:15:34Z</time>
      </trkpt>
      <trkpt lat="48.21338" lon="6.95401">
        <ele>423.12</ele>
        <time>2018-04-22T07:15:37Z</time>
      </trkpt>
      <trkpt lat="48.21334" lon="6.95418">
        <ele>423.6</ele>
        <time>2018-04-22T07:15:40Z</time>
      </trkpt>
      <trkpt lat="48.2133" lon="6.95435">
        <ele>423.12</ele>
        <time>2018-04-22T07:15:43Z</time>
      </trkpt>
      <trkpt lat="48.21325" lon="6.95452">
        <ele>423.12</ele>
        <time>2018-04-22T07:15:46Z</time>
      </trkpt>
      <trkpt lat="48.21321" lon="6.95468">
        <ele>423.6</ele>
        <time>2018-04-22T07:15:49Z</time>
      </trkpt>
      <trkpt lat="48.21316" lon="6.95484">
        <ele>422.64</ele>
        <time>2018-04-22T07:15:52Z</time>
      </trkpt>
      <trkpt lat="48.21312" lon="6.95501">
        <ele>423.12</ele>
        <time>2018-04-22T07:15:55Z</time>
      </trkpt>
      <trkpt lat="48.21308" lon="6.95516">
        <ele>423.6</ele>
        <time>2018-04-22T07:15:58Z</time>
      </trkpt>
      <trkpt lat="48.21304" lon="6.95531">
        <ele>423.6</ele>
        <time>2018-04-22T07:16:01Z</time>
      </trkpt>
      <trkpt lat="48.21301" lon="6.95547">
        <ele>423.6</ele>
        <time>2018-04-22T07:16:04Z</time>
      </trkpt>
      <trkpt lat="48.21297" lon="6.95561">
        <ele>423.6</ele>
        <time>2018-04-22T07:16:07Z</time>
      </trkpt>
      <trkpt lat="48.21293" lon="6.95575">
        <ele>423.6</ele>
        <time>2018-04-22T07:16:10Z</time>
      </trkpt>
      <trkpt lat="48.2129" lon="6.95588">
        <ele>424.08</ele>
        <time>2018-04-22T07:16:13Z</time>
      </trkpt>
      <trkpt lat="48.21289" lon="6.956">
        <ele>424.56</ele>
        <time>2018-04-22T07:16:16Z</time>
      </trkpt>
      <trkpt lat="48.2128" lon="6.95602">
        <ele>425.04</ele>
        <time>2018-04-22T07:16:20Z</time>
      </trkpt>
      <trkpt lat="48.21268" lon="6.95596">
        <ele>425.04</ele>
        <time>2018-04-22T07:16:24Z</time>
      </trkpt>
      <trkpt lat="48.21258" lon="6.95592">
        <ele>425.52</ele>
        <time>2018-04-22T07:16:28Z</time>
      </trkpt>
      <trkpt lat="48.21248" lon="6.95583">
        <ele>426.48</ele>
        <time>2018-04-22T07:16:33Z</time>
      </trkpt>
      <trkpt lat="48.21244" lon="6.9557">
        <ele>426.48</ele>
        <time>2018-04-22T07:16:38Z</time>
      </trkpt>
      <trkpt lat="48.21239" lon="6.95557">
        <ele>426.96</ele>
        <time>2018-04-22T07:16:43Z</time>
      </trkpt>
      <trkpt lat="48.21232" lon="6.95546">
        <ele>427.44</ele>
        <time>2018-04-22T07:16:47Z</time>
      </trkpt>
      <trkpt lat="48.21222" lon="6.95539">
        <ele>428.89</ele>
        <time>2018-04-22T07:16:53Z</time>
      </trkpt>
      <trkpt lat="48.21213" lon="6.95532">
        <ele>430.33</ele>
        <time>2018-04-22T07:16:59Z</time>
      </trkpt>
      <trkpt lat="48.21201" lon="6.95521">
        <ele>431.77</ele>
        <time>2018-04-22T07:17:05Z</time>
      </trkpt>
      <trkpt lat="48.21192" lon="6.95513">
        <ele>434.17</ele>
        <time>2018-04-22T07:17:13Z</time>
      </trkpt>
      <trkpt lat="48.21177" lon="6.95499">
        <ele>435.61</ele>
        <time>2018-04-22T07:17:20Z</time>
      </trkpt>
      <trkpt lat="48.21164" lon="6.95489">
        <ele>436.58</ele>
        <time>2018-04-22T07:17:25Z</time>
      </trkpt>
      <trkpt lat="48.21152" lon="6.9548">
        <ele>437.54</ele>
        <time>2018-04-22T07:17:31Z</time>
      </trkpt>
      <trkpt lat="48.21142" lon="6.95472">
        <ele>438.5</ele>
        <time>2018-04-22T07:17:36Z</time>
      </trkpt>
      <trkpt lat="48.21132" lon="6.95462">
        <ele>438.98</ele>
        <time>2018-04-22T07:17:42Z</time>
      </trkpt>
      <trkpt lat="48.21124" lon="6.95451">
        <ele>439.94</ele>
        <time>2018-04-22T07:17:48Z</time>
      </trkpt>
      <trkpt lat="48.21114" lon="6.95442">
        <ele>441.38</ele>
        <time>2018-04-22T07:17:56Z</time>
      </trkpt>
      <trkpt lat="48.21101" lon="6.9543">
        <ele>442.34</ele>
        <time>2018-04-22T07:18:01Z</time>
      </trkpt>
      <trkpt lat="48.21086" lon="6.9542">
        <ele>443.31</ele>
        <time>2018-04-22T07:18:07Z</time>
      </trkpt>
      <trkpt lat="48.21074" lon="6.9541">
        <ele>444.75</ele>
        <time>2018-04-22T07:18:16Z</time>
      </trkpt>
      <trkpt lat="48.21061" lon="6.95413">
        <ele>446.67</ele>
        <time>2018-04-22T07:18:23Z</time>
      </trkpt>
      <trkpt lat="48.21055" lon="6.95426">
        <ele>448.11</ele>
        <time>2018-04-22T07:18:31Z</time>
      </trkpt>
      <trkpt lat="48.21052" lon="6.95445">
        <ele>448.59</ele>
        <time>2018-04-22T07:18:38Z</time>
      </trkpt>
      <trkpt lat="48.2105" lon="6.95462">
        <ele>449.07</ele>
        <time>2018-04-22T07:18:43Z</time>
      </trkpt>
      <trkpt lat="48.21047" lon="6.95478">
        <ele>449.55</ele>
        <time>2018-04-22T07:18:48Z</time>
      </trkpt>
      <trkpt lat="48.21043" lon="6.95495">
        <ele>450.52</ele>
        <time>2018-04-22T07:18:53Z</time>
      </trkpt>
      <trkpt lat="48.2104" lon="6.95513">
        <ele>450.52</ele>
        <time>2018-04-22T07:18:58Z</time>
      </trkpt>
      <trkpt lat="48.21036" lon="6.95527">
        <ele>450.52</ele>
        <time>2018-04-22T07:19:02Z</time>
      </trkpt>
      <trkpt lat="48.21036" lon="6.95544">
        <ele>450.52</ele>
        <time>2018-04-22T07:19:06Z</time>
      </trkpt>
      <trkpt lat="48.21034" lon="6.95561">
        <ele>450.52</ele>
        <time>2018-04-22T07:19:10Z</time>
      </trkpt>
      <trkpt lat="48.21032" lon="6.95578">
        <ele>450.52</ele>
        <time>2018-04-22T07:19:14Z</time>
      </trkpt>
      <trkpt lat="48.2103" lon="6.95593">
        <ele>451</ele>
        <time>2018-04-22T07:19:18Z</time>
      </trkpt>
      <trkpt lat="48.21027" lon="6.95611">
        <ele>451.48</ele>
        <time>2018-04-22T07:19:23Z</time>
      </trkpt>
      <trkpt lat="48.21024" lon="6.95629">
        <ele>453.4</ele>
        <time>2018-04-22T07:19:29Z</time>
      </trkpt>
      <trkpt lat="48.21018" lon="6.95648">
        <ele>454.84</ele>
        <time>2018-04-22T07:19:36Z</time>
      </trkpt>
      <trkpt lat="48.21013" lon="6.95664">
        <ele>456.28</ele>
        <time>2018-04-22T07:19:42Z</time>
      </trkpt>
      <trkpt lat="48.21007" lon="6.95678">
        <ele>457.72</ele>
        <time>2018-04-22T07:19:48Z</time>
      </trkpt>
      <trkpt lat="48.21" lon="6.9569">
        <ele>457.72</ele>
        <time>2018-04-22T07:19:54Z</time>
      </trkpt>
      <trkpt lat="48.20989" lon="6.95697">
        <ele>457.24</ele>
        <time>2018-04-22T07:20:00Z</time>
      </trkpt>
      <trkpt lat="48.20977" lon="6.957">
        <ele>456.76</ele>
        <time>2018-04-22T07:20:04Z</time>
      </trkpt>
      <trkpt lat="48.20965" lon="6.95703">
        <ele>456.28</ele>
        <time>2018-04-22T07:20:08Z</time>
      </trkpt>
      <trkpt lat="48.20954" lon="6.95709">
        <ele>456.76</ele>
        <time>2018-04-22T07:20:12Z</time>
      </trkpt>
      <trkpt lat="48.20942" lon="6.95713">
        <ele>457.24</ele>
        <time>2018-04-22T07:20:17Z</time>
      </trkpt>
      <trkpt lat="48.20931" lon="6.95712">
        <ele>458.21</ele>
        <time>2018-04-22T07:20:21Z</time>
      </trkpt>
      <trkpt lat="48.20921" lon="6.95705">
        <ele>459.17</ele>
        <time>2018-04-22T07:20:26Z</time>
      </trkpt>
      <trkpt lat="48.20912" lon="6.95696">
        <ele>460.61</ele>
        <time>2018-04-22T07:20:31Z</time>
      </trkpt>
      <trkpt lat="48.20904" lon="6.95685">
        <ele>461.57</ele>
        <time>2018-04-22T07:20:36Z</time>
      </trkpt>
      <trkpt lat="48.20897" lon="6.95677">
        <ele>462.05</ele>
        <time>2018-04-22T07:20:40Z</time>
      </trkpt>
      <trkpt lat="48.20887" lon="6.95666">
        <ele>462.53</ele>
        <time>2018-04-22T07:20:45Z</time>
      </trkpt>
      <trkpt lat="48.20879" lon="6.95658">
        <ele>462.53</ele>
        <time>2018-04-22T07:20:49Z</time>
      </trkpt>
      <trkpt lat="48.20872" lon="6.95649">
        <ele>463.49</ele>
        <time>2018-04-22T07:20:53Z</time>
      </trkpt>
      <trkpt lat="48.20862" lon="6.95639">
        <ele>463.49</ele>
        <time>2018-04-22T07:20:58Z</time>
      </trkpt>
      <trkpt lat="48.20852" lon="6.95631">
        <ele>464.45</ele>
        <time>2018-04-22T07:21:03Z</time>
      </trkpt>
      <trkpt lat="48.20844" lon="6.95622">
        <ele>465.9</ele>
        <time>2018-04-22T07:21:08Z</time>
      </trkpt>
      <trkpt lat="48.20835" lon="6.95614">
        <ele>466.86</ele>
        <time>2018-04-22T07:21:14Z</time>
      </trkpt>
      <trkpt lat="48.20826" lon="6.95603">
        <ele>468.78</ele>
        <time>2018-04-22T07:21:20Z</time>
      </trkpt>
      <trkpt lat="48.20817" lon="6.95594">
        <ele>470.22</ele>
        <time>2018-04-22T07:21:26Z</time>
      </trkpt>
      <trkpt lat="48.20807" lon="6.95586">
        <ele>470.7</ele>
        <time>2018-04-22T07:21:32Z</time>
      </trkpt>
      <trkpt lat="48.20802" lon="6.95596">
        <ele>470.7</ele>
        <time>2018-04-22T07:21:38Z</time>
      </trkpt>
      <trkpt lat="48.208" lon="6.9561">
        <ele>470.7</ele>
        <time>2018-04-22T07:21:43Z</time>
      </trkpt>
      <trkpt lat="48.20797" lon="6.9563">
        <ele>469.74</ele>
        <time>2018-04-22T07:21:47Z</time>
      </trkpt>
      <trkpt lat="48.20796" lon="6.9565">
        <ele>468.3</ele>
        <time>2018-04-22T07:21:50Z</time>
      </trkpt>
      <trkpt lat="48.20796" lon="6.95666">
        <ele>468.3</ele>
        <time>2018-04-22T07:21:52Z</time>
      </trkpt>
      <trkpt lat="48.20795" lon="6.9568">
        <ele>467.82</ele>
        <time>2018-04-22T07:21:54Z</time>
      </trkpt>
      <trkpt lat="48.20793" lon="6.95697">
        <ele>467.82</ele>
        <time>2018-04-22T07:21:57Z</time>
      </trkpt>
      <trkpt lat="48.2079" lon="6.95713">
        <ele>468.3</ele>
        <time>2018-04-22T07:22:01Z</time>
      </trkpt>
      <trkpt lat="48.20786" lon="6.95729">
        <ele>468.3</ele>
        <time>2018-04-22T07:22:05Z</time>
      </trkpt>
      <trkpt lat="48.20782" lon="6.95744">
        <ele>469.26</ele>
        <time>2018-04-22T07:22:09Z</time>
      </trkpt>
      <trkpt lat="48.20777" lon="6.95758">
        <ele>469.74</ele>
        <time>2018-04-22T07:22:13Z</time>
      </trkpt>
      <trkpt lat="48.20769" lon="6.95769">
        <ele>469.74</ele>
        <time>2018-04-22T07:22:17Z</time>
      </trkpt>
      <trkpt lat="48.20761" lon="6.95779">
        <ele>470.22</ele>
        <time>2018-04-22T07:22:20Z</time>
      </trkpt>
      <trkpt lat="48.20754" lon="6.95787">
        <ele>470.7</ele>
        <time>2018-04-22T07:22:23Z</time>
      </trkpt>
      <trkpt lat="48.20744" lon="6.95797">
        <ele>469.74</ele>
        <time>2018-04-22T07:22:27Z</time>
      </trkpt>
      <trkpt lat="48.20735" lon="6.95803">
        <ele>470.22</ele>
        <time>2018-04-22T07:22:30Z</time>
      </trkpt>
      <trkpt lat="48.20725" lon="6.9581">
        <ele>470.22</ele>
        <time>2018-04-22T07:22:34Z</time>
      </trkpt>
      <trkpt lat="48.20715" lon="6.95817">
        <ele>470.7</ele>
        <time>2018-04-22T07:22:38Z</time>
      </trkpt>
      <trkpt lat="48.20703" lon="6.9583">
        <ele>474.07</ele>
        <time>2018-04-22T07:22:47Z</time>
      </trkpt>
      <trkpt lat="48.2069" lon="6.95845">
        <ele>476.47</ele>
        <time>2018-04-22T07:22:58Z</time>
      </trkpt>
      <trkpt lat="48.20683" lon="6.95861">
        <ele>477.91</ele>
        <time>2018-04-22T07:23:04Z</time>
      </trkpt>
      <trkpt lat="48.20684" lon="6.95881">
        <ele>478.87</ele>
        <time>2018-04-22T07:23:11Z</time>
      </trkpt>
      <trkpt lat="48.20687" lon="6.95897">
        <ele>478.87</ele>
        <time>2018-04-22T07:23:18Z</time>
      </trkpt>
      <trkpt lat="48.20683" lon="6.95914">
        <ele>479.35</ele>
        <time>2018-04-22T07:23:24Z</time>
      </trkpt>
      <trkpt lat="48.20682" lon="6.9594">
        <ele>480.8</ele>
        <time>2018-04-22T07:23:32Z</time>
      </trkpt>
      <trkpt lat="48.20675" lon="6.95954">
        <ele>482.72</ele>
        <time>2018-04-22T07:23:38Z</time>
      </trkpt>
      <trkpt lat="48.20672" lon="6.95974">
        <ele>483.68</ele>
        <time>2018-04-22T07:23:45Z</time>
      </trkpt>
      <trkpt lat="48.20672" lon="6.95998">
        <ele>485.12</ele>
        <time>2018-04-22T07:23:53Z</time>
      </trkpt>
      <trkpt lat="48.20669" lon="6.96016">
        <ele>486.08</ele>
        <time>2018-04-22T07:24:02Z</time>
      </trkpt>
      <trkpt lat="48.20668" lon="6.96037">
        <ele>488.01</ele>
        <time>2018-04-22T07:24:10Z</time>
      </trkpt>
      <trkpt lat="48.20663" lon="6.96055">
        <ele>488.97</ele>
        <time>2018-04-22T07:24:17Z</time>
      </trkpt>
      <trkpt lat="48.20657" lon="6.96075">
        <ele>488.97</ele>
        <time>2018-04-22T07:24:23Z</time>
      </trkpt>
      <trkpt lat="48.20653" lon="6.96092">
        <ele>488.49</ele>
        <time>2018-04-22T07:24:29Z</time>
      </trkpt>
      <trkpt lat="48.20649" lon="6.96109">
        <ele>488.97</ele>
        <time>2018-04-22T07:24:35Z</time>
      </trkpt>
      <trkpt lat="48.20645" lon="6.96125">
        <ele>489.45</ele>
        <time>2018-04-22T07:24:40Z</time>
      </trkpt>
      <trkpt lat="48.20642" lon="6.96142">
        <ele>489.93</ele>
        <time>2018-04-22T07:24:45Z</time>
      </trkpt>
      <trkpt lat="48.2064" lon="6.96161">
        <ele>490.89</ele>
        <time>2018-04-22T07:24:50Z</time>
      </trkpt>
      <trkpt lat="48.20639" lon="6.96178">
        <ele>490.89</ele>
        <time>2018-04-22T07:24:55Z</time>
      </trkpt>
      <trkpt lat="48.20635" lon="6.96193">
        <ele>491.37</ele>
        <time>2018-04-22T07:25:01Z</time>
      </trkpt>
      <trkpt lat="48.20626" lon="6.962">
        <ele>492.33</ele>
        <time>2018-04-22T07:25:08Z</time>
      </trkpt>
      <trkpt lat="48.20617" lon="6.96211">
        <ele>493.77</ele>
        <time>2018-04-22T07:25:15Z</time>
      </trkpt>
      <trkpt lat="48.20609" lon="6.96222">
        <ele>496.66</ele>
        <time>2018-04-22T07:25:22Z</time>
      </trkpt>
      <trkpt lat="48.20603" lon="6.96236">
        <ele>498.58</ele>
        <time>2018-04-22T07:25:29Z</time>
      </trkpt>
      <trkpt lat="48.20598" lon="6.96249">
        <ele>500.5</ele>
        <time>2018-04-22T07:25:36Z</time>
      </trkpt>
      <trkpt lat="48.20595" lon="6.96263">
        <ele>501.46</ele>
        <time>2018-04-22T07:25:42Z</time>
      </trkpt>
      <trkpt lat="48.20592" lon="6.96278">
        <ele>502.91</ele>
        <time>2018-04-22T07:25:49Z</time>
      </trkpt>
      <trkpt lat="48.20589" lon="6.96291">
        <ele>504.35</ele>
        <time>2018-04-22T07:25:56Z</time>
      </trkpt>
      <trkpt lat="48.20588" lon="6.96306">
        <ele>505.31</ele>
        <time>2018-04-22T07:26:04Z</time>
      </trkpt>
      <trkpt lat="48.20588" lon="6.96324">
        <ele>508.19</ele>
        <time>2018-04-22T07:26:14Z</time>
      </trkpt>
      <trkpt lat="48.20587" lon="6.96341">
        <ele>509.16</ele>
        <time>2018-04-22T07:26:23Z</time>
      </trkpt>
      <trkpt lat="48.20581" lon="6.96357">
        <ele>511.56</ele>
        <time>2018-04-22T07:26:33Z</time>
      </trkpt>
      <trkpt lat="48.20578" lon="6.96376">
        <ele>512.52</ele>
        <time>2018-04-22T07:26:41Z</time>
      </trkpt>
      <trkpt lat="48.20574" lon="6.96393">
        <ele>513.96</ele>
        <time>2018-04-22T07:26:48Z</time>
      </trkpt>
      <trkpt lat="48.20571" lon="6.96413">
        <ele>515.88</ele>
        <time>2018-04-22T07:26:57Z</time>
      </trkpt>
      <trkpt lat="48.20569" lon="6.96432">
        <ele>517.81</ele>
        <time>2018-04-22T07:27:05Z</time>
      </trkpt>
      <trkpt lat="48.20564" lon="6.9645">
        <ele>518.77</ele>
        <time>2018-04-22T07:27:12Z</time>
      </trkpt>
      <trkpt lat="48.20567" lon="6.96465">
        <ele>518.29</ele>
        <time>2018-04-22T07:27:19Z</time>
      </trkpt>
      <trkpt lat="48.20566" lon="6.96483">
        <ele>519.25</ele>
        <time>2018-04-22T07:27:25Z</time>
      </trkpt>
      <trkpt lat="48.20564" lon="6.96506">
        <ele>520.21</ele>
        <time>2018-04-22T07:27:31Z</time>
      </trkpt>
      <trkpt lat="48.20561" lon="6.96523">
        <ele>521.65</ele>
        <time>2018-04-22T07:27:37Z</time>
      </trkpt>
      <trkpt lat="48.20556" lon="6.9654">
        <ele>522.61</ele>
        <time>2018-04-22T07:27:43Z</time>
      </trkpt>
      <trkpt lat="48.20551" lon="6.96555">
        <ele>523.09</ele>
        <time>2018-04-22T07:27:50Z</time>
      </trkpt>
      <trkpt lat="48.20553" lon="6.96576">
        <ele>524.06</ele>
        <time>2018-04-22T07:27:56Z</time>
      </trkpt>
      <trkpt lat="48.20549" lon="6.96595">
        <ele>525.5</ele>
        <time>2018-04-22T07:28:03Z</time>
      </trkpt>
      <trkpt lat="48.20559" lon="6.96623">
        <ele>527.42</ele>
        <time>2018-04-22T07:28:10Z</time>
      </trkpt>
      <trkpt lat="48.20568" lon="6.96635">
        <ele>526.94</ele>
        <time>2018-04-22T07:28:14Z</time>
      </trkpt>
      <trkpt lat="48.20578" lon="6.96644">
        <ele>527.9</ele>
        <time>2018-04-22T07:28:19Z</time>
      </trkpt>
      <trkpt lat="48.20586" lon="6.96661">
        <ele>528.86</ele>
        <time>2018-04-22T07:28:28Z</time>
      </trkpt>
      <trkpt lat="48.20596" lon="6.9667">
        <ele>528.86</ele>
        <time>2018-04-22T07:28:34Z</time>
      </trkpt>
      <trkpt lat="48.20606" lon="6.96678">
        <ele>528.38</ele>
        <time>2018-04-22T07:28:39Z</time>
      </trkpt>
      <trkpt lat="48.20617" lon="6.96685">
        <ele>528.38</ele>
        <time>2018-04-22T07:28:43Z</time>
      </trkpt>
      <trkpt lat="48.20632" lon="6.96693">
        <ele>527.9</ele>
        <time>2018-04-22T07:28:47Z</time>
      </trkpt>
      <trkpt lat="48.20643" lon="6.96701">
        <ele>527.42</ele>
        <time>2018-04-22T07:28:50Z</time>
      </trkpt>
      <trkpt lat="48.20656" lon="6.96709">
        <ele>526.46</ele>
        <time>2018-04-22T07:28:53Z</time>
      </trkpt>
      <trkpt lat="48.20666" lon="6.96716">
        <ele>525.98</ele>
        <time>2018-04-22T07:28:55Z</time>
      </trkpt>
      <trkpt lat="48.20676" lon="6.96724">
        <ele>525.02</ele>
        <time>2018-04-22T07:28:57Z</time>
      </trkpt>
      <trkpt lat="48.20688" lon="6.96729">
        <ele>524.06</ele>
        <time>2018-04-22T07:28:59Z</time>
      </trkpt>
      <trkpt lat="48.20701" lon="6.96731">
        <ele>522.61</ele>
        <time>2018-04-22T07:29:01Z</time>
      </trkpt>
      <trkpt lat="48.20715" lon="6.96731">
        <ele>522.61</ele>
        <time>2018-04-22T07:29:03Z</time>
      </trkpt>
      <trkpt lat="48.20728" lon="6.96726">
        <ele>523.09</ele>
        <time>2018-04-22T07:29:05Z</time>
      </trkpt>
      <trkpt lat="48.20739" lon="6.9672">
        <ele>522.61</ele>
        <time>2018-04-22T07:29:07Z</time>
      </trkpt>
      <trkpt lat="48.20749" lon="6.96716">
        <ele>523.09</ele>
        <time>2018-04-22T07:29:09Z</time>
      </trkpt>
      <trkpt lat="48.20758" lon="6.96713">
        <ele>523.09</ele>
        <time>2018-04-22T07:29:11Z</time>
      </trkpt>
      <trkpt lat="48.20768" lon="6.96712">
        <ele>522.13</ele>
        <time>2018-04-22T07:29:13Z</time>
      </trkpt>
      <trkpt lat="48.20779" lon="6.96713">
        <ele>522.61</ele>
        <time>2018-04-22T07:29:15Z</time>
      </trkpt>
      <trkpt lat="48.20788" lon="6.96716">
        <ele>522.13</ele>
        <time>2018-04-22T07:29:17Z</time>
      </trkpt>
      <trkpt lat="48.20798" lon="6.96721">
        <ele>521.65</ele>
        <time>2018-04-22T07:29:19Z</time>
      </trkpt>
      <trkpt lat="48.20809" lon="6.96729">
        <ele>521.65</ele>
        <time>2018-04-22T07:29:22Z</time>
      </trkpt>
      <trkpt lat="48.20818" lon="6.96743">
        <ele>521.65</ele>
        <time>2018-04-22T07:29:26Z</time>
      </trkpt>
      <trkpt lat="48.20823" lon="6.96757">
        <ele>521.17</ele>
        <time>2018-04-22T07:29:28Z</time>
      </trkpt>
      <trkpt lat="48.20828" lon="6.96772">
        <ele>521.65</ele>
        <time>2018-04-22T07:29:30Z</time>
      </trkpt>
      <trkpt lat="48.20831" lon="6.96787">
        <ele>521.17</ele>
        <time>2018-04-22T07:29:32Z</time>
      </trkpt>
      <trkpt lat="48.20834" lon="6.96803">
        <ele>521.65</ele>
        <time>2018-04-22T07:29:34Z</time>
      </trkpt>
      <trkpt lat="48.20837" lon="6.96819">
        <ele>522.13</ele>
        <time>2018-04-22T07:29:36Z</time>
      </trkpt>
      <trkpt lat="48.2084" lon="6.96836">
        <ele>522.13</ele>
        <time>2018-04-22T07:29:38Z</time>
      </trkpt>
      <trkpt lat="48.20842" lon="6.96852">
        <ele>522.61</ele>
        <time>2018-04-22T07:29:40Z</time>
      </trkpt>
      <trkpt lat="48.20844" lon="6.96869">
        <ele>523.58</ele>
        <time>2018-04-22T07:29:42Z</time>
      </trkpt>
      <trkpt lat="48.20847" lon="6.96883">
        <ele>524.06</ele>
        <time>2018-04-22T07:29:44Z</time>
      </trkpt>
      <trkpt lat="48.20851" lon="6.96901">
        <ele>524.54</ele>
        <time>2018-04-22T07:29:47Z</time>
      </trkpt>
      <trkpt lat="48.20851" lon="6.96915">
        <ele>525.02</ele>
        <time>2018-04-22T07:29:50Z</time>
      </trkpt>
      <trkpt lat="48.20851" lon="6.96929">
        <ele>525.02</ele>
        <time>2018-04-22T07:29:53Z</time>
      </trkpt>
      <trkpt lat="48.20849" lon="6.96944">
        <ele>525.5</ele>
        <time>2018-04-22T07:29:56Z</time>
      </trkpt>
      <trkpt lat="48.20848" lon="6.9696">
        <ele>525.98</ele>
        <time>2018-04-22T07:29:59Z</time>
      </trkpt>
      <trkpt lat="48.20846" lon="6.96975">
        <ele>526.46</ele>
        <time>2018-04-22T07:30:02Z</time>
      </trkpt>
      <trkpt lat="48.20844" lon="6.96996">
        <ele>525.5</ele>
        <time>2018-04-22T07:30:05Z</time>
      </trkpt>
      <trkpt lat="48.20842" lon="6.9701">
        <ele>524.54</ele>
        <time>2018-04-22T07:30:07Z</time>
      </trkpt>
      <trkpt lat="48.20839" lon="6.97025">
        <ele>524.06</ele>
        <time>2018-04-22T07:30:09Z</time>
      </trkpt>
      <trkpt lat="48.20838" lon="6.97041">
        <ele>523.58</ele>
        <time>2018-04-22T07:30:11Z</time>
      </trkpt>
      <trkpt lat="48.20837" lon="6.97059">
        <ele>523.58</ele>
        <time>2018-04-22T07:30:13Z</time>
      </trkpt>
      <trkpt lat="48.20837" lon="6.97078">
        <ele>523.58</ele>
        <time>2018-04-22T07:30:15Z</time>
      </trkpt>
      <trkpt lat="48.20839" lon="6.97097">
        <ele>524.06</ele>
        <time>2018-04-22T07:30:17Z</time>
      </trkpt>
      <trkpt lat="48.2084" lon="6.97115">
        <ele>524.54</ele>
        <time>2018-04-22T07:30:19Z</time>
      </trkpt>
      <trkpt lat="48.20842" lon="6.97129">
        <ele>524.54</ele>
        <time>2018-04-22T07:30:21Z</time>
      </trkpt>
      <trkpt lat="48.20845" lon="6.97148">
        <ele>525.02</ele>
        <time>2018-04-22T07:30:24Z</time>
      </trkpt>
      <trkpt lat="48.20848" lon="6.97167">
        <ele>525.5</ele>
        <time>2018-04-22T07:30:27Z</time>
      </trkpt>
      <trkpt lat="48.20852" lon="6.97181">
        <ele>524.54</ele>
        <time>2018-04-22T07:30:29Z</time>
      </trkpt>
      <trkpt lat="48.20858" lon="6.97195">
        <ele>524.54</ele>
        <time>2018-04-22T07:30:31Z</time>
      </trkpt>
      <trkpt lat="48.20864" lon="6.97209">
        <ele>523.58</ele>
        <time>2018-04-22T07:30:33Z</time>
      </trkpt>
      <trkpt lat="48.20871" lon="6.97222">
        <ele>523.58</ele>
        <time>2018-04-22T07:30:35Z</time>
      </trkpt>
      <trkpt lat="48.20876" lon="6.97234">
        <ele>523.58</ele>
        <time>2018-04-22T07:30:37Z</time>
      </trkpt>
      <trkpt lat="48.20883" lon="6.97245">
        <ele>524.54</ele>
        <time>2018-04-22T07:30:39Z</time>
      </trkpt>
      <trkpt lat="48.2089" lon="6.97257">
        <ele>524.06</ele>
        <time>2018-04-22T07:30:41Z</time>
      </trkpt>
      <trkpt lat="48.20898" lon="6.97266">
        <ele>524.54</ele>
        <time>2018-04-22T07:30:43Z</time>
      </trkpt>
      <trkpt lat="48.20902" lon="6.97281">
        <ele>525.5</ele>
        <time>2018-04-22T07:30:47Z</time>
      </trkpt>
      <trkpt lat="48.20893" lon="6.97287">
        <ele>526.46</ele>
        <time>2018-04-22T07:30:53Z</time>
      </trkpt>
      <trkpt lat="48.20882" lon="6.97289">
        <ele>526.46</ele>
        <time>2018-04-22T07:31:00Z</time>
      </trkpt>
      <trkpt lat="48.20871" lon="6.97296">
        <ele>528.38</ele>
        <time>2018-04-22T07:31:07Z</time>
      </trkpt>
      <trkpt lat="48.20858" lon="6.973">
        <ele>529.82</ele>
        <time>2018-04-22T07:31:14Z</time>
      </trkpt>
      <trkpt lat="48.20847" lon="6.97304">
        <ele>530.79</ele>
        <time>2018-04-22T07:31:20Z</time>
      </trkpt>
      <trkpt lat="48.20835" lon="6.9731">
        <ele>531.75</ele>
        <time>2018-04-22T07:31:27Z</time>
      </trkpt>
      <trkpt lat="48.20824" lon="6.97316">
        <ele>534.15</ele>
        <time>2018-04-22T07:31:35Z</time>
      </trkpt>
      <trkpt lat="48.20813" lon="6.9732">
        <ele>535.59</ele>
        <time>2018-04-22T07:31:42Z</time>
      </trkpt>
      <trkpt lat="48.20799" lon="6.97317">
        <ele>537.99</ele>
        <time>2018-04-22T07:31:51Z</time>
      </trkpt>
      <trkpt lat="48.20784" lon="6.97317">
        <ele>540.4</ele>
        <time>2018-04-22T07:31:59Z</time>
      </trkpt>
      <trkpt lat="48.2077" lon="6.9731">
        <ele>541.36</ele>
        <time>2018-04-22T07:32:06Z</time>
      </trkpt>
      <trkpt lat="48.20759" lon="6.97307">
        <ele>541.36</ele>
        <time>2018-04-22T07:32:14Z</time>
      </trkpt>
      <trkpt lat="48.20744" lon="6.97301">
        <ele>542.32</ele>
        <time>2018-04-22T07:32:23Z</time>
      </trkpt>
      <trkpt lat="48.20726" lon="6.97303">
        <ele>542.8</ele>
        <time>2018-04-22T07:32:33Z</time>
      </trkpt>
      <trkpt lat="48.20709" lon="6.97302">
        <ele>543.76</ele>
        <time>2018-04-22T07:32:52Z</time>
      </trkpt>
      <trkpt lat="48.20697" lon="6.97304">
        <ele>545.2</ele>
        <time>2018-04-22T07:33:22Z</time>
      </trkpt>
      <trkpt lat="48.20683" lon="6.97307">
        <ele>546.65</ele>
        <time>2018-04-22T07:33:47Z</time>
      </trkpt>
      <trkpt lat="48.20667" lon="6.97309">
        <ele>549.05</ele>
        <time>2018-04-22T07:34:05Z</time>
      </trkpt>
      <trkpt lat="48.20652" lon="6.97316">
        <ele>550.49</ele>
        <time>2018-04-22T07:34:20Z</time>
      </trkpt>
      <trkpt lat="48.2064" lon="6.97323">
        <ele>550.97</ele>
        <time>2018-04-22T07:34:27Z</time>
      </trkpt>
      <trkpt lat="48.20628" lon="6.97327">
        <ele>552.41</ele>
        <time>2018-04-22T07:34:34Z</time>
      </trkpt>
      <trkpt lat="48.20617" lon="6.9733">
        <ele>552.9</ele>
        <time>2018-04-22T07:34:42Z</time>
      </trkpt>
      <trkpt lat="48.20601" lon="6.97331">
        <ele>554.34</ele>
        <time>2018-04-22T07:34:50Z</time>
      </trkpt>
      <trkpt lat="48.20588" lon="6.97322">
        <ele>556.26</ele>
        <time>2018-04-22T07:34:57Z</time>
      </trkpt>
      <trkpt lat="48.20574" lon="6.97328">
        <ele>557.7</ele>
        <time>2018-04-22T07:35:05Z</time>
      </trkpt>
      <trkpt lat="48.20562" lon="6.9734">
        <ele>560.59</ele>
        <time>2018-04-22T07:35:15Z</time>
      </trkpt>
      <trkpt lat="48.20555" lon="6.97355">
        <ele>562.99</ele>
        <time>2018-04-22T07:35:24Z</time>
      </trkpt>
      <trkpt lat="48.20548" lon="6.97368">
        <ele>564.91</ele>
        <time>2018-04-22T07:35:38Z</time>
      </trkpt>
      <trkpt lat="48.20532" lon="6.97379">
        <ele>568.28</ele>
        <time>2018-04-22T07:35:58Z</time>
      </trkpt>
      <trkpt lat="48.2052" lon="6.97381">
        <ele>570.2</ele>
        <time>2018-04-22T07:36:16Z</time>
      </trkpt>
      <trkpt lat="48.20509" lon="6.97385">
        <ele>572.12</ele>
        <time>2018-04-22T07:36:25Z</time>
      </trkpt>
      <trkpt lat="48.20498" lon="6.97394">
        <ele>574.04</ele>
        <time>2018-04-22T07:36:36Z</time>
      </trkpt>
      <trkpt lat="48.20487" lon="6.97406">
        <ele>575.97</ele>
        <time>2018-04-22T07:36:45Z</time>
      </trkpt>
      <trkpt lat="48.20476" lon="6.97417">
        <ele>577.89</ele>
        <time>2018-04-22T07:36:54Z</time>
      </trkpt>
      <trkpt lat="48.20463" lon="6.97423">
        <ele>578.37</ele>
        <time>2018-04-22T07:37:03Z</time>
      </trkpt>
      <trkpt lat="48.20451" lon="6.97429">
        <ele>579.81</ele>
        <time>2018-04-22T07:37:11Z</time>
      </trkpt>
      <trkpt lat="48.20439" lon="6.97432">
        <ele>581.25</ele>
        <time>2018-04-22T07:37:20Z</time>
      </trkpt>
      <trkpt lat="48.20427" lon="6.97437">
        <ele>581.73</ele>
        <time>2018-04-22T07:37:27Z</time>
      </trkpt>
      <trkpt lat="48.20415" lon="6.97447">
        <ele>582.7</ele>
        <time>2018-04-22T07:37:37Z</time>
      </trkpt>
      <trkpt lat="48.20404" lon="6.97459">
        <ele>584.62</ele>
        <time>2018-04-22T07:37:46Z</time>
      </trkpt>
      <trkpt lat="48.20394" lon="6.9747">
        <ele>586.54</ele>
        <time>2018-04-22T07:37:57Z</time>
      </trkpt>
      <trkpt lat="48.20383" lon="6.9748">
        <ele>588.95</ele>
        <time>2018-04-22T07:38:05Z</time>
      </trkpt>
      <trkpt lat="48.20371" lon="6.97488">
        <ele>591.83</ele>
        <time>2018-04-22T07:38:27Z</time>
      </trkpt>
      <trkpt lat="48.20363" lon="6.97495">
        <ele>593.27</ele>
        <time>2018-04-22T07:38:54Z</time>
      </trkpt>
      <trkpt lat="48.20351" lon="6.97498">
        <ele>593.75</ele>
        <time>2018-04-22T07:39:02Z</time>
      </trkpt>
      <trkpt lat="48.20338" lon="6.97502">
        <ele>594.71</ele>
        <time>2018-04-22T07:39:11Z</time>
      </trkpt>
      <trkpt lat="48.20324" lon="6.97506">
        <ele>595.67</ele>
        <time>2018-04-22T07:39:20Z</time>
      </trkpt>
      <trkpt lat="48.20312" lon="6.9752">
        <ele>596.15</ele>
        <time>2018-04-22T07:39:27Z</time>
      </trkpt>
      <trkpt lat="48.20301" lon="6.97531">
        <ele>597.12</ele>
        <time>2018-04-22T07:39:36Z</time>
      </trkpt>
      <trkpt lat="48.20291" lon="6.97543">
        <ele>598.08</ele>
        <time>2018-04-22T07:39:42Z</time>
      </trkpt>
      <trkpt lat="48.2028" lon="6.97558">
        <ele>600</ele>
        <time>2018-04-22T07:39:54Z</time>
      </trkpt>
      <trkpt lat="48.20268" lon="6.97576">
        <ele>601.44</ele>
        <time>2018-04-22T07:40:02Z</time>
      </trkpt>
      <trkpt lat="48.20259" lon="6.97592">
        <ele>602.88</ele>
        <time>2018-04-22T07:40:11Z</time>
      </trkpt>
      <trkpt lat="48.20248" lon="6.97606">
        <ele>605.77</ele>
        <time>2018-04-22T07:40:23Z</time>
      </trkpt>
      <trkpt lat="48.20239" lon="6.97618">
        <ele>608.17</ele>
        <time>2018-04-22T07:40:35Z</time>
      </trkpt>
      <trkpt lat="48.20228" lon="6.97631">
        <ele>611.06</ele>
        <time>2018-04-22T07:40:53Z</time>
      </trkpt>
      <trkpt lat="48.2022" lon="6.97644">
        <ele>614.42</ele>
        <time>2018-04-22T07:41:17Z</time>
      </trkpt>
      <trkpt lat="48.20214" lon="6.97664">
        <ele>617.3</ele>
        <time>2018-04-22T07:41:37Z</time>
      </trkpt>
      <trkpt lat="48.20207" lon="6.9768">
        <ele>619.23</ele>
        <time>2018-04-22T07:41:53Z</time>
      </trkpt>
      <trkpt lat="48.20198" lon="6.97691">
        <ele>620.67</ele>
        <time>2018-04-22T07:42:07Z</time>
      </trkpt>
      <trkpt lat="48.20191" lon="6.97704">
        <ele>622.11</ele>
        <time>2018-04-22T07:42:16Z</time>
      </trkpt>
      <trkpt lat="48.20182" lon="6.97715">
        <ele>624.03</ele>
        <time>2018-04-22T07:42:26Z</time>
      </trkpt>
      <trkpt lat="48.20176" lon="6.97728">
        <ele>624.99</ele>
        <time>2018-04-22T07:42:36Z</time>
      </trkpt>
      <trkpt lat="48.20171" lon="6.97731">
        <ele>626.44</ele>
        <time>2018-04-22T07:45:03Z</time>
      </trkpt>
      <trkpt lat="48.20163" lon="6.97741">
        <ele>626.44</ele>
        <time>2018-04-22T07:45:11Z</time>
      </trkpt>
      <trkpt lat="48.20155" lon="6.97752">
        <ele>626.44</ele>
        <time>2018-04-22T07:45:17Z</time>
      </trkpt>
      <trkpt lat="48.20148" lon="6.97766">
        <ele>627.4</ele>
        <time>2018-04-22T07:45:23Z</time>
      </trkpt>
      <trkpt lat="48.20147" lon="6.9779">
        <ele>628.36</ele>
        <time>2018-04-22T07:45:30Z</time>
      </trkpt>
      <trkpt lat="48.20155" lon="6.97795">
        <ele>629.32</ele>
        <time>2018-04-22T07:45:37Z</time>
      </trkpt>
      <trkpt lat="48.20166" lon="6.97792">
        <ele>629.8</ele>
        <time>2018-04-22T07:45:43Z</time>
      </trkpt>
      <trkpt lat="48.20177" lon="6.97792">
        <ele>629.32</ele>
        <time>2018-04-22T07:45:47Z</time>
      </trkpt>
      <trkpt lat="48.20186" lon="6.97791">
        <ele>628.36</ele>
        <time>2018-04-22T07:45:50Z</time>
      </trkpt>
      <trkpt lat="48.20196" lon="6.97789">
        <ele>626.44</ele>
        <time>2018-04-22T07:45:53Z</time>
      </trkpt>
      <trkpt lat="48.20205" lon="6.97793">
        <ele>625.47</ele>
        <time>2018-04-22T07:45:55Z</time>
      </trkpt>
      <trkpt lat="48.20217" lon="6.97799">
        <ele>624.51</ele>
        <time>2018-04-22T07:45:58Z</time>
      </trkpt>
      <trkpt lat="48.20227" lon="6.97802">
        <ele>623.07</ele>
        <time>2018-04-22T07:46:00Z</time>
      </trkpt>
      <trkpt lat="48.20241" lon="6.97802">
        <ele>619.23</ele>
        <time>2018-04-22T07:46:03Z</time>
      </trkpt>
      <trkpt lat="48.20253" lon="6.97805">
        <ele>616.82</ele>
        <time>2018-04-22T07:46:06Z</time>
      </trkpt>
      <trkpt lat="48.20262" lon="6.9781">
        <ele>614.42</ele>
        <time>2018-04-22T07:46:09Z</time>
      </trkpt>
      <trkpt lat="48.20274" lon="6.97824">
        <ele>613.94</ele>
        <time>2018-04-22T07:46:12Z</time>
      </trkpt>
      <trkpt lat="48.20285" lon="6.97834">
        <ele>613.46</ele>
        <time>2018-04-22T07:46:14Z</time>
      </trkpt>
      <trkpt lat="48.20296" lon="6.97844">
        <ele>612.02</ele>
        <time>2018-04-22T07:46:16Z</time>
      </trkpt>
      <trkpt lat="48.2031" lon="6.97858">
        <ele>611.06</ele>
        <time>2018-04-22T07:46:18Z</time>
      </trkpt>
      <trkpt lat="48.2032" lon="6.97869">
        <ele>609.61</ele>
        <time>2018-04-22T07:46:20Z</time>
      </trkpt>
      <trkpt lat="48.2033" lon="6.97876">
        <ele>607.69</ele>
        <time>2018-04-22T07:46:22Z</time>
      </trkpt>
      <trkpt lat="48.20347" lon="6.97881">
        <ele>604.33</ele>
        <time>2018-04-22T07:46:24Z</time>
      </trkpt>
      <trkpt lat="48.20366" lon="6.97882">
        <ele>602.4</ele>
        <time>2018-04-22T07:46:26Z</time>
      </trkpt>
      <trkpt lat="48.20381" lon="6.97882">
        <ele>601.44</ele>
        <time>2018-04-22T07:46:28Z</time>
      </trkpt>
      <trkpt lat="48.20399" lon="6.97885">
        <ele>601.44</ele>
        <time>2018-04-22T07:46:30Z</time>
      </trkpt>
      <trkpt lat="48.20409" lon="6.97887">
        <ele>600.96</ele>
        <time>2018-04-22T07:46:32Z</time>
      </trkpt>
      <trkpt lat="48.2042" lon="6.97888">
        <ele>600</ele>
        <time>2018-04-22T07:46:34Z</time>
      </trkpt>
      <trkpt lat="48.20434" lon="6.97888">
        <ele>599.04</ele>
        <time>2018-04-22T07:46:37Z</time>
      </trkpt>
      <trkpt lat="48.20448" lon="6.97883">
        <ele>597.6</ele>
        <time>2018-04-22T07:46:40Z</time>
      </trkpt>
      <trkpt lat="48.20458" lon="6.97876">
        <ele>597.12</ele>
        <time>2018-04-22T07:46:42Z</time>
      </trkpt>
      <trkpt lat="48.20469" lon="6.97873">
        <ele>596.64</ele>
        <time>2018-04-22T07:46:44Z</time>
      </trkpt>
      <trkpt lat="48.2048" lon="6.97871">
        <ele>595.67</ele>
        <time>2018-04-22T07:46:46Z</time>
      </trkpt>
      <trkpt lat="48.20493" lon="6.9787">
        <ele>595.19</ele>
        <time>2018-04-22T07:46:48Z</time>
      </trkpt>
      <trkpt lat="48.20506" lon="6.97868">
        <ele>594.71</ele>
        <time>2018-04-22T07:46:50Z</time>
      </trkpt>
      <trkpt lat="48.20518" lon="6.97866">
        <ele>594.71</ele>
        <time>2018-04-22T07:46:52Z</time>
      </trkpt>
      <trkpt lat="48.20528" lon="6.97865">
        <ele>593.75</ele>
        <time>2018-04-22T07:46:54Z</time>
      </trkpt>
      <trkpt lat="48.20541" lon="6.97864">
        <ele>593.27</ele>
        <time>2018-04-22T07:46:57Z</time>
      </trkpt>
      <trkpt lat="48.20554" lon="6.97856">
        <ele>591.35</ele>
        <time>2018-04-22T07:47:00Z</time>
      </trkpt>
      <trkpt lat="48.20562" lon="6.97839">
        <ele>589.91</ele>
        <time>2018-04-22T07:47:04Z</time>
      </trkpt>
      <trkpt lat="48.20572" lon="6.97823">
        <ele>587.5</ele>
        <time>2018-04-22T07:47:07Z</time>
      </trkpt>
      <trkpt lat="48.20578" lon="6.97809">
        <ele>585.58</ele>
        <time>2018-04-22T07:47:10Z</time>
      </trkpt>
      <trkpt lat="48.20583" lon="6.97796">
        <ele>584.62</ele>
        <time>2018-04-22T07:47:13Z</time>
      </trkpt>
      <trkpt lat="48.20588" lon="6.9778">
        <ele>583.18</ele>
        <time>2018-04-22T07:47:16Z</time>
      </trkpt>
      <trkpt lat="48.20593" lon="6.97763">
        <ele>580.77</ele>
        <time>2018-04-22T07:47:19Z</time>
      </trkpt>
      <trkpt lat="48.20604" lon="6.97747">
        <ele>578.85</ele>
        <time>2018-04-22T07:47:22Z</time>
      </trkpt>
      <trkpt lat="48.2061" lon="6.97733">
        <ele>576.93</ele>
        <time>2018-04-22T07:47:24Z</time>
      </trkpt>
      <trkpt lat="48.20613" lon="6.97714">
        <ele>574.53</ele>
        <time>2018-04-22T07:47:28Z</time>
      </trkpt>
      <trkpt lat="48.20615" lon="6.97699">
        <ele>572.12</ele>
        <time>2018-04-22T07:47:32Z</time>
      </trkpt>
      <trkpt lat="48.20616" lon="6.97685">
        <ele>569.72</ele>
        <time>2018-04-22T07:47:37Z</time>
      </trkpt>
      <trkpt lat="48.20618" lon="6.97666">
        <ele>564.91</ele>
        <time>2018-04-22T07:47:45Z</time>
      </trkpt>
      <trkpt lat="48.20621" lon="6.97649">
        <ele>562.51</ele>
        <time>2018-04-22T07:47:50Z</time>
      </trkpt>
      <trkpt lat="48.20624" lon="6.97634">
        <ele>560.11</ele>
        <time>2018-04-22T07:47:54Z</time>
      </trkpt>
      <trkpt lat="48.20627" lon="6.97616">
        <ele>557.22</ele>
        <time>2018-04-22T07:47:59Z</time>
      </trkpt>
      <trkpt lat="48.20631" lon="6.97596">
        <ele>554.82</ele>
        <time>2018-04-22T07:48:04Z</time>
      </trkpt>
      <trkpt lat="48.20637" lon="6.97583">
        <ele>552.9</ele>
        <time>2018-04-22T07:48:07Z</time>
      </trkpt>
      <trkpt lat="48.20643" lon="6.97566">
        <ele>550.49</ele>
        <time>2018-04-22T07:48:11Z</time>
      </trkpt>
      <trkpt lat="48.20647" lon="6.97549">
        <ele>548.09</ele>
        <time>2018-04-22T07:48:14Z</time>
      </trkpt>
      <trkpt lat="48.20652" lon="6.97532">
        <ele>545.69</ele>
        <time>2018-04-22T07:48:17Z</time>
      </trkpt>
      <trkpt lat="48.20665" lon="6.97524">
        <ele>543.76</ele>
        <time>2018-04-22T07:48:21Z</time>
      </trkpt>
      <trkpt lat="48.20674" lon="6.97512">
        <ele>540.88</ele>
        <time>2018-04-22T07:48:25Z</time>
      </trkpt>
      <trkpt lat="48.20684" lon="6.97507">
        <ele>539.44</ele>
        <time>2018-04-22T07:48:28Z</time>
      </trkpt>
      <trkpt lat="48.20693" lon="6.97502">
        <ele>537.51</ele>
        <time>2018-04-22T07:48:31Z</time>
      </trkpt>
      <trkpt lat="48.20701" lon="6.97491">
        <ele>536.07</ele>
        <time>2018-04-22T07:48:34Z</time>
      </trkpt>
      <trkpt lat="48.20718" lon="6.97483">
        <ele>534.15</ele>
        <time>2018-04-22T07:48:37Z</time>
      </trkpt>
      <trkpt lat="48.20727" lon="6.9747">
        <ele>533.19</ele>
        <time>2018-04-22T07:48:39Z</time>
      </trkpt>
      <trkpt lat="48.20737" lon="6.97456">
        <ele>531.75</ele>
        <time>2018-04-22T07:48:41Z</time>
      </trkpt>
      <trkpt lat="48.20747" lon="6.97438">
        <ele>530.3</ele>
        <time>2018-04-22T07:48:43Z</time>
      </trkpt>
      <trkpt lat="48.20757" lon="6.97422">
        <ele>529.82</ele>
        <time>2018-04-22T07:48:45Z</time>
      </trkpt>
      <trkpt lat="48.20764" lon="6.9741">
        <ele>529.34</ele>
        <time>2018-04-22T07:48:47Z</time>
      </trkpt>
      <trkpt lat="48.20773" lon="6.97401">
        <ele>529.82</ele>
        <time>2018-04-22T07:48:50Z</time>
      </trkpt>
      <trkpt lat="48.20783" lon="6.97395">
        <ele>529.34</ele>
        <time>2018-04-22T07:48:54Z</time>
      </trkpt>
      <trkpt lat="48.20795" lon="6.97391">
        <ele>530.79</ele>
        <time>2018-04-22T07:48:58Z</time>
      </trkpt>
      <trkpt lat="48.20808" lon="6.97385">
        <ele>530.79</ele>
        <time>2018-04-22T07:49:02Z</time>
      </trkpt>
      <trkpt lat="48.2082" lon="6.97379">
        <ele>531.27</ele>
        <time>2018-04-22T07:49:06Z</time>
      </trkpt>
      <trkpt lat="48.20831" lon="6.9737">
        <ele>531.27</ele>
        <time>2018-04-22T07:49:09Z</time>
      </trkpt>
      <trkpt lat="48.20847" lon="6.97358">
        <ele>530.79</ele>
        <time>2018-04-22T07:49:12Z</time>
      </trkpt>
      <trkpt lat="48.20858" lon="6.97348">
        <ele>529.82</ele>
        <time>2018-04-22T07:49:14Z</time>
      </trkpt>
      <trkpt lat="48.20868" lon="6.97337">
        <ele>528.86</ele>
        <time>2018-04-22T07:49:16Z</time>
      </trkpt>
      <trkpt lat="48.20877" lon="6.97323">
        <ele>527.9</ele>
        <time>2018-04-22T07:49:18Z</time>
      </trkpt>
      <trkpt lat="48.20888" lon="6.9731">
        <ele>526.94</ele>
        <time>2018-04-22T07:49:20Z</time>
      </trkpt>
      <trkpt lat="48.20902" lon="6.97298">
        <ele>525.5</ele>
        <time>2018-04-22T07:49:22Z</time>
      </trkpt>
      <trkpt lat="48.20914" lon="6.97291">
        <ele>524.06</ele>
        <time>2018-04-22T07:49:24Z</time>
      </trkpt>
      <trkpt lat="48.20923" lon="6.97288">
        <ele>523.09</ele>
        <time>2018-04-22T07:49:26Z</time>
      </trkpt>
      <trkpt lat="48.20935" lon="6.97286">
        <ele>524.06</ele>
        <time>2018-04-22T07:49:29Z</time>
      </trkpt>
      <trkpt lat="48.20945" lon="6.97288">
        <ele>522.61</ele>
        <time>2018-04-22T07:49:33Z</time>
      </trkpt>
      <trkpt lat="48.20959" lon="6.97297">
        <ele>521.17</ele>
        <time>2018-04-22T07:49:36Z</time>
      </trkpt>
      <trkpt lat="48.20972" lon="6.97307">
        <ele>519.25</ele>
        <time>2018-04-22T07:49:39Z</time>
      </trkpt>
      <trkpt lat="48.20985" lon="6.97312">
        <ele>516.85</ele>
        <time>2018-04-22T07:49:42Z</time>
      </trkpt>
      <trkpt lat="48.20994" lon="6.97318">
        <ele>515.88</ele>
        <time>2018-04-22T07:49:44Z</time>
      </trkpt>
      <trkpt lat="48.21002" lon="6.97326">
        <ele>513.96</ele>
        <time>2018-04-22T07:49:46Z</time>
      </trkpt>
      <trkpt lat="48.21012" lon="6.97337">
        <ele>512.04</ele>
        <time>2018-04-22T07:49:49Z</time>
      </trkpt>
      <trkpt lat="48.21017" lon="6.97355">
        <ele>511.08</ele>
        <time>2018-04-22T07:49:53Z</time>
      </trkpt>
      <trkpt lat="48.21014" lon="6.97369">
        <ele>511.56</ele>
        <time>2018-04-22T07:49:56Z</time>
      </trkpt>
      <trkpt lat="48.21009" lon="6.97383">
        <ele>512.04</ele>
        <time>2018-04-22T07:49:59Z</time>
      </trkpt>
      <trkpt lat="48.21003" lon="6.97395">
        <ele>512.52</ele>
        <time>2018-04-22T07:50:02Z</time>
      </trkpt>
      <trkpt lat="48.20997" lon="6.97406">
        <ele>512.52</ele>
        <time>2018-04-22T07:50:05Z</time>
      </trkpt>
      <trkpt lat="48.20989" lon="6.97416">
        <ele>513</ele>
        <time>2018-04-22T07:50:08Z</time>
      </trkpt>
      <trkpt lat="48.2098" lon="6.97424">
        <ele>513</ele>
        <time>2018-04-22T07:50:11Z</time>
      </trkpt>
      <trkpt lat="48.20971" lon="6.97429">
        <ele>513.48</ele>
        <time>2018-04-22T07:50:14Z</time>
      </trkpt>
      <trkpt lat="48.2096" lon="6.97429">
        <ele>513.96</ele>
        <time>2018-04-22T07:50:17Z</time>
      </trkpt>
      <trkpt lat="48.20951" lon="6.97424">
        <ele>513.96</ele>
        <time>2018-04-22T07:50:20Z</time>
      </trkpt>
      <trkpt lat="48.2094" lon="6.97418">
        <ele>513.96</ele>
        <time>2018-04-22T07:50:23Z</time>
      </trkpt>
      <trkpt lat="48.20927" lon="6.97414">
        <ele>514.92</ele>
        <time>2018-04-22T07:50:26Z</time>
      </trkpt>
      <trkpt lat="48.20914" lon="6.97411">
        <ele>514.44</ele>
        <time>2018-04-22T07:50:29Z</time>
      </trkpt>
      <trkpt lat="48.20901" lon="6.97416">
        <ele>514.92</ele>
        <time>2018-04-22T07:50:32Z</time>
      </trkpt>
      <trkpt lat="48.20895" lon="6.97428">
        <ele>514.44</ele>
        <time>2018-04-22T07:50:34Z</time>
      </trkpt>
      <trkpt lat="48.20892" lon="6.97442">
        <ele>514.92</ele>
        <time>2018-04-22T07:50:36Z</time>
      </trkpt>
      <trkpt lat="48.20891" lon="6.97458">
        <ele>516.37</ele>
        <time>2018-04-22T07:50:39Z</time>
      </trkpt>
      <trkpt lat="48.20888" lon="6.97477">
        <ele>517.33</ele>
        <time>2018-04-22T07:50:43Z</time>
      </trkpt>
      <trkpt lat="48.20886" lon="6.97492">
        <ele>518.29</ele>
        <time>2018-04-22T07:50:47Z</time>
      </trkpt>
      <trkpt lat="48.20883" lon="6.97509">
        <ele>518.77</ele>
        <time>2018-04-22T07:50:51Z</time>
      </trkpt>
      <trkpt lat="48.20879" lon="6.97524">
        <ele>519.73</ele>
        <time>2018-04-22T07:50:55Z</time>
      </trkpt>
      <trkpt lat="48.20873" lon="6.97538">
        <ele>520.69</ele>
        <time>2018-04-22T07:50:59Z</time>
      </trkpt>
      <trkpt lat="48.20873" lon="6.97553">
        <ele>522.61</ele>
        <time>2018-04-22T07:51:05Z</time>
      </trkpt>
      <trkpt lat="48.20864" lon="6.97567">
        <ele>523.09</ele>
        <time>2018-04-22T07:51:09Z</time>
      </trkpt>
      <trkpt lat="48.20857" lon="6.97582">
        <ele>524.06</ele>
        <time>2018-04-22T07:51:14Z</time>
      </trkpt>
      <trkpt lat="48.20858" lon="6.97601">
        <ele>525.5</ele>
        <time>2018-04-22T07:51:19Z</time>
      </trkpt>
      <trkpt lat="48.2086" lon="6.9762">
        <ele>526.94</ele>
        <time>2018-04-22T07:51:25Z</time>
      </trkpt>
      <trkpt lat="48.20858" lon="6.97638">
        <ele>527.9</ele>
        <time>2018-04-22T07:51:31Z</time>
      </trkpt>
      <trkpt lat="48.20857" lon="6.97656">
        <ele>528.86</ele>
        <time>2018-04-22T07:51:37Z</time>
      </trkpt>
      <trkpt lat="48.20855" lon="6.97671">
        <ele>529.82</ele>
        <time>2018-04-22T07:51:42Z</time>
      </trkpt>
      <trkpt lat="48.2085" lon="6.97685">
        <ele>530.3</ele>
        <time>2018-04-22T07:51:47Z</time>
      </trkpt>
      <trkpt lat="48.20842" lon="6.97697">
        <ele>532.23</ele>
        <time>2018-04-22T07:51:52Z</time>
      </trkpt>
      <trkpt lat="48.20839" lon="6.97713">
        <ele>534.15</ele>
        <time>2018-04-22T07:51:58Z</time>
      </trkpt>
      <trkpt lat="48.20841" lon="6.97733">
        <ele>534.63</ele>
        <time>2018-04-22T07:52:05Z</time>
      </trkpt>
      <trkpt lat="48.20839" lon="6.97748">
        <ele>534.63</ele>
        <time>2018-04-22T07:52:13Z</time>
      </trkpt>
      <trkpt lat="48.20843" lon="6.97762">
        <ele>535.11</ele>
        <time>2018-04-22T07:52:19Z</time>
      </trkpt>
      <trkpt lat="48.20848" lon="6.97776">
        <ele>535.11</ele>
        <time>2018-04-22T07:52:24Z</time>
      </trkpt>
      <trkpt lat="48.20856" lon="6.9779">
        <ele>535.11</ele>
        <time>2018-04-22T07:52:29Z</time>
      </trkpt>
      <trkpt lat="48.20865" lon="6.97805">
        <ele>535.59</ele>
        <time>2018-04-22T07:52:33Z</time>
      </trkpt>
      <trkpt lat="48.20874" lon="6.97821">
        <ele>535.11</ele>
        <time>2018-04-22T07:52:37Z</time>
      </trkpt>
      <trkpt lat="48.2088" lon="6.97832">
        <ele>535.59</ele>
        <time>2018-04-22T07:52:40Z</time>
      </trkpt>
      <trkpt lat="48.20887" lon="6.9785">
        <ele>536.07</ele>
        <time>2018-04-22T07:52:44Z</time>
      </trkpt>
      <trkpt lat="48.20895" lon="6.97866">
        <ele>536.55</ele>
        <time>2018-04-22T07:52:48Z</time>
      </trkpt>
      <trkpt lat="48.20902" lon="6.97882">
        <ele>537.51</ele>
        <time>2018-04-22T07:52:52Z</time>
      </trkpt>
      <trkpt lat="48.20908" lon="6.97896">
        <ele>537.51</ele>
        <time>2018-04-22T07:52:56Z</time>
      </trkpt>
      <trkpt lat="48.20917" lon="6.97911">
        <ele>538.96</ele>
        <time>2018-04-22T07:53:00Z</time>
      </trkpt>
      <trkpt lat="48.20922" lon="6.97925">
        <ele>539.44</ele>
        <time>2018-04-22T07:53:04Z</time>
      </trkpt>
      <trkpt lat="48.20926" lon="6.97938">
        <ele>539.92</ele>
        <time>2018-04-22T07:53:08Z</time>
      </trkpt>
      <trkpt lat="48.20932" lon="6.97953">
        <ele>540.88</ele>
        <time>2018-04-22T07:53:13Z</time>
      </trkpt>
      <trkpt lat="48.20936" lon="6.97966">
        <ele>541.84</ele>
        <time>2018-04-22T07:53:18Z</time>
      </trkpt>
      <trkpt lat="48.20942" lon="6.9798">
        <ele>542.8</ele>
        <time>2018-04-22T07:53:23Z</time>
      </trkpt>
      <trkpt lat="48.20946" lon="6.97994">
        <ele>543.76</ele>
        <time>2018-04-22T07:53:28Z</time>
      </trkpt>
      <trkpt lat="48.20951" lon="6.98008">
        <ele>544.24</ele>
        <time>2018-04-22T07:53:33Z</time>
      </trkpt>
      <trkpt lat="48.20955" lon="6.98023">
        <ele>545.69</ele>
        <time>2018-04-22T07:53:39Z</time>
      </trkpt>
      <trkpt lat="48.20961" lon="6.98038">
        <ele>546.17</ele>
        <time>2018-04-22T07:53:44Z</time>
      </trkpt>
      <trkpt lat="48.20964" lon="6.98052">
        <ele>547.61</ele>
        <time>2018-04-22T07:53:49Z</time>
      </trkpt>
      <trkpt lat="48.2097" lon="6.98069">
        <ele>549.05</ele>
        <time>2018-04-22T07:53:55Z</time>
      </trkpt>
      <trkpt lat="48.20972" lon="6.98083">
        <ele>550.49</ele>
        <time>2018-04-22T07:54:00Z</time>
      </trkpt>
      <trkpt lat="48.20974" lon="6.98098">
        <ele>550.97</ele>
        <time>2018-04-22T07:54:05Z</time>
      </trkpt>
      <trkpt lat="48.20976" lon="6.98112">
        <ele>552.41</ele>
        <time>2018-04-22T07:54:10Z</time>
      </trkpt>
      <trkpt lat="48.20983" lon="6.98128">
        <ele>552.9</ele>
        <time>2018-04-22T07:54:16Z</time>
      </trkpt>
      <trkpt lat="48.2099" lon="6.98141">
        <ele>553.86</ele>
        <time>2018-04-22T07:54:21Z</time>
      </trkpt>
      <trkpt lat="48.20999" lon="6.98155">
        <ele>554.82</ele>
        <time>2018-04-22T07:54:26Z</time>
      </trkpt>
      <trkpt lat="48.21006" lon="6.98167">
        <ele>555.3</ele>
        <time>2018-04-22T07:54:30Z</time>
      </trkpt>
      <trkpt lat="48.21013" lon="6.98178">
        <ele>555.3</ele>
        <time>2018-04-22T07:54:34Z</time>
      </trkpt>
      <trkpt lat="48.21022" lon="6.98191">
        <ele>556.26</ele>
        <time>2018-04-22T07:54:39Z</time>
      </trkpt>
      <trkpt lat="48.2103" lon="6.98202">
        <ele>556.74</ele>
        <time>2018-04-22T07:54:44Z</time>
      </trkpt>
      <trkpt lat="48.21042" lon="6.98211">
        <ele>557.7</ele>
        <time>2018-04-22T07:54:49Z</time>
      </trkpt>
      <trkpt lat="48.21052" lon="6.98212">
        <ele>558.66</ele>
        <time>2018-04-22T07:54:54Z</time>
      </trkpt>
      <trkpt lat="48.21063" lon="6.9822">
        <ele>560.11</ele>
        <time>2018-04-22T07:55:00Z</time>
      </trkpt>
      <trkpt lat="48.21072" lon="6.98225">
        <ele>560.59</ele>
        <time>2018-04-22T07:55:05Z</time>
      </trkpt>
      <trkpt lat="48.2108" lon="6.98229">
        <ele>562.99</ele>
        <time>2018-04-22T07:55:15Z</time>
      </trkpt>
      <trkpt lat="48.21086" lon="6.98233">
        <ele>564.43</ele>
        <time>2018-04-22T07:55:26Z</time>
      </trkpt>
      <trkpt lat="48.21094" lon="6.98239">
        <ele>566.35</ele>
        <time>2018-04-22T07:55:34Z</time>
      </trkpt>
      <trkpt lat="48.21111" lon="6.9825">
        <ele>566.35</ele>
        <time>2018-04-22T07:55:41Z</time>
      </trkpt>
      <trkpt lat="48.21125" lon="6.98259">
        <ele>565.87</ele>
        <time>2018-04-22T07:55:46Z</time>
      </trkpt>
      <trkpt lat="48.21139" lon="6.98269">
        <ele>566.83</ele>
        <time>2018-04-22T07:55:50Z</time>
      </trkpt>
      <trkpt lat="48.21151" lon="6.98276">
        <ele>565.87</ele>
        <time>2018-04-22T07:55:53Z</time>
      </trkpt>
      <trkpt lat="48.21162" lon="6.98292">
        <ele>566.35</ele>
        <time>2018-04-22T07:55:56Z</time>
      </trkpt>
      <trkpt lat="48.21171" lon="6.98304">
        <ele>565.87</ele>
        <time>2018-04-22T07:55:59Z</time>
      </trkpt>
      <trkpt lat="48.21185" lon="6.98321">
        <ele>564.91</ele>
        <time>2018-04-22T07:56:01Z</time>
      </trkpt>
      <trkpt lat="48.21196" lon="6.98338">
        <ele>565.39</ele>
        <time>2018-04-22T07:56:03Z</time>
      </trkpt>
      <trkpt lat="48.21207" lon="6.98356">
        <ele>565.39</ele>
        <time>2018-04-22T07:56:05Z</time>
      </trkpt>
      <trkpt lat="48.21214" lon="6.98373">
        <ele>564.91</ele>
        <time>2018-04-22T07:56:07Z</time>
      </trkpt>
      <trkpt lat="48.21216" lon="6.98389">
        <ele>564.91</ele>
        <time>2018-04-22T07:56:09Z</time>
      </trkpt>
      <trkpt lat="48.21216" lon="6.98404">
        <ele>564.91</ele>
        <time>2018-04-22T07:56:11Z</time>
      </trkpt>
      <trkpt lat="48.21214" lon="6.98417">
        <ele>564.91</ele>
        <time>2018-04-22T07:56:13Z</time>
      </trkpt>
      <trkpt lat="48.21211" lon="6.98429">
        <ele>564.91</ele>
        <time>2018-04-22T07:56:15Z</time>
      </trkpt>
      <trkpt lat="48.21213" lon="6.98445">
        <ele>564.91</ele>
        <time>2018-04-22T07:56:18Z</time>
      </trkpt>
      <trkpt lat="48.21207" lon="6.98458">
        <ele>565.87</ele>
        <time>2018-04-22T07:56:21Z</time>
      </trkpt>
      <trkpt lat="48.21199" lon="6.98469">
        <ele>565.87</ele>
        <time>2018-04-22T07:56:24Z</time>
      </trkpt>
      <trkpt lat="48.21192" lon="6.98481">
        <ele>566.35</ele>
        <time>2018-04-22T07:56:27Z</time>
      </trkpt>
      <trkpt lat="48.21185" lon="6.98491">
        <ele>566.83</ele>
        <time>2018-04-22T07:56:30Z</time>
      </trkpt>
      <trkpt lat="48.21176" lon="6.98503">
        <ele>567.32</ele>
        <time>2018-04-22T07:56:33Z</time>
      </trkpt>
      <trkpt lat="48.21169" lon="6.98516">
        <ele>567.8</ele>
        <time>2018-04-22T07:56:36Z</time>
      </trkpt>
      <trkpt lat="48.2116" lon="6.98528">
        <ele>568.28</ele>
        <time>2018-04-22T07:56:39Z</time>
      </trkpt>
      <trkpt lat="48.21152" lon="6.9854">
        <ele>568.76</ele>
        <time>2018-04-22T07:56:42Z</time>
      </trkpt>
      <trkpt lat="48.21144" lon="6.98551">
        <ele>570.2</ele>
        <time>2018-04-22T07:56:45Z</time>
      </trkpt>
      <trkpt lat="48.21135" lon="6.9856">
        <ele>571.64</ele>
        <time>2018-04-22T07:56:48Z</time>
      </trkpt>
      <trkpt lat="48.21128" lon="6.98569">
        <ele>572.6</ele>
        <time>2018-04-22T07:56:51Z</time>
      </trkpt>
      <trkpt lat="48.21118" lon="6.98582">
        <ele>573.56</ele>
        <time>2018-04-22T07:56:55Z</time>
      </trkpt>
      <trkpt lat="48.21108" lon="6.98598">
        <ele>574.04</ele>
        <time>2018-04-22T07:56:59Z</time>
      </trkpt>
      <trkpt lat="48.21099" lon="6.98612">
        <ele>575.01</ele>
        <time>2018-04-22T07:57:03Z</time>
      </trkpt>
      <trkpt lat="48.21091" lon="6.98626">
        <ele>575.49</ele>
        <time>2018-04-22T07:57:07Z</time>
      </trkpt>
      <trkpt lat="48.21085" lon="6.9864">
        <ele>576.45</ele>
        <time>2018-04-22T07:57:11Z</time>
      </trkpt>
      <trkpt lat="48.21078" lon="6.98654">
        <ele>577.89</ele>
        <time>2018-04-22T07:57:15Z</time>
      </trkpt>
      <trkpt lat="48.21071" lon="6.98668">
        <ele>578.85</ele>
        <time>2018-04-22T07:57:19Z</time>
      </trkpt>
      <trkpt lat="48.21067" lon="6.98684">
        <ele>579.33</ele>
        <time>2018-04-22T07:57:23Z</time>
      </trkpt>
      <trkpt lat="48.21065" lon="6.98698">
        <ele>579.81</ele>
        <time>2018-04-22T07:57:28Z</time>
      </trkpt>
      <trkpt lat="48.21067" lon="6.98714">
        <ele>579.33</ele>
        <time>2018-04-22T07:57:32Z</time>
      </trkpt>
      <trkpt lat="48.21068" lon="6.98733">
        <ele>578.85</ele>
        <time>2018-04-22T07:57:36Z</time>
      </trkpt>
      <trkpt lat="48.21071" lon="6.9875">
        <ele>577.89</ele>
        <time>2018-04-22T07:57:40Z</time>
      </trkpt>
      <trkpt lat="48.21073" lon="6.98764">
        <ele>577.89</ele>
        <time>2018-04-22T07:57:43Z</time>
      </trkpt>
      <trkpt lat="48.21075" lon="6.98783">
        <ele>577.89</ele>
        <time>2018-04-22T07:57:47Z</time>
      </trkpt>
      <trkpt lat="48.21077" lon="6.988">
        <ele>577.41</ele>
        <time>2018-04-22T07:57:56Z</time>
      </trkpt>
      <trkpt lat="48.21084" lon="6.98813">
        <ele>575.49</ele>
        <time>2018-04-22T07:58:02Z</time>
      </trkpt>
      <trkpt lat="48.2109" lon="6.98826">
        <ele>572.12</ele>
        <time>2018-04-22T07:58:06Z</time>
      </trkpt>
      <trkpt lat="48.21097" lon="6.98837">
        <ele>570.2</ele>
        <time>2018-04-22T07:58:09Z</time>
      </trkpt>
      <trkpt lat="48.21107" lon="6.98851">
        <ele>566.35</ele>
        <time>2018-04-22T07:58:13Z</time>
      </trkpt>
      <trkpt lat="48.21118" lon="6.98859">
        <ele>563.95</ele>
        <time>2018-04-22T07:58:16Z</time>
      </trkpt>
      <trkpt lat="48.21127" lon="6.98864">
        <ele>562.51</ele>
        <time>2018-04-22T07:58:18Z</time>
      </trkpt>
      <trkpt lat="48.21135" lon="6.98869">
        <ele>561.07</ele>
        <time>2018-04-22T07:58:20Z</time>
      </trkpt>
      <trkpt lat="48.21147" lon="6.98877">
        <ele>559.62</ele>
        <time>2018-04-22T07:58:23Z</time>
      </trkpt>
      <trkpt lat="48.21157" lon="6.98882">
        <ele>556.26</ele>
        <time>2018-04-22T07:58:26Z</time>
      </trkpt>
      <trkpt lat="48.21169" lon="6.98888">
        <ele>554.82</ele>
        <time>2018-04-22T07:58:29Z</time>
      </trkpt>
      <trkpt lat="48.2118" lon="6.98893">
        <ele>551.45</ele>
        <time>2018-04-22T07:58:33Z</time>
      </trkpt>
      <trkpt lat="48.21191" lon="6.989">
        <ele>549.05</ele>
        <time>2018-04-22T07:58:37Z</time>
      </trkpt>
      <trkpt lat="48.21202" lon="6.98905">
        <ele>547.13</ele>
        <time>2018-04-22T07:58:40Z</time>
      </trkpt>
      <trkpt lat="48.21213" lon="6.98912">
        <ele>545.69</ele>
        <time>2018-04-22T07:58:43Z</time>
      </trkpt>
      <trkpt lat="48.21225" lon="6.98918">
        <ele>543.76</ele>
        <time>2018-04-22T07:58:46Z</time>
      </trkpt>
      <trkpt lat="48.21238" lon="6.98924">
        <ele>541.36</ele>
        <time>2018-04-22T07:58:49Z</time>
      </trkpt>
      <trkpt lat="48.21247" lon="6.9893">
        <ele>539.44</ele>
        <time>2018-04-22T07:58:51Z</time>
      </trkpt>
      <trkpt lat="48.21255" lon="6.98939">
        <ele>537.03</ele>
        <time>2018-04-22T07:58:53Z</time>
      </trkpt>
      <trkpt lat="48.21264" lon="6.98951">
        <ele>534.63</ele>
        <time>2018-04-22T07:58:56Z</time>
      </trkpt>
      <trkpt lat="48.2127" lon="6.98963">
        <ele>531.75</ele>
        <time>2018-04-22T07:58:59Z</time>
      </trkpt>
      <trkpt lat="48.21279" lon="6.98973">
        <ele>528.38</ele>
        <time>2018-04-22T07:59:04Z</time>
      </trkpt>
      <trkpt lat="48.21286" lon="6.98985">
        <ele>524.06</ele>
        <time>2018-04-22T07:59:10Z</time>
      </trkpt>
      <trkpt lat="48.21294" lon="6.98994">
        <ele>521.65</ele>
        <time>2018-04-22T07:59:14Z</time>
      </trkpt>
      <trkpt lat="48.21304" lon="6.99001">
        <ele>519.25</ele>
        <time>2018-04-22T07:59:16Z</time>
      </trkpt>
      <trkpt lat="48.21316" lon="6.99011">
        <ele>517.33</ele>
        <time>2018-04-22T07:59:18Z</time>
      </trkpt>
      <trkpt lat="48.21331" lon="6.9902">
        <ele>515.4</ele>
        <time>2018-04-22T07:59:20Z</time>
      </trkpt>
      <trkpt lat="48.21344" lon="6.99028">
        <ele>513.96</ele>
        <time>2018-04-22T07:59:22Z</time>
      </trkpt>
      <trkpt lat="48.21359" lon="6.99036">
        <ele>512.52</ele>
        <time>2018-04-22T07:59:24Z</time>
      </trkpt>
      <trkpt lat="48.21373" lon="6.99043">
        <ele>510.6</ele>
        <time>2018-04-22T07:59:26Z</time>
      </trkpt>
      <trkpt lat="48.21386" lon="6.99048">
        <ele>509.16</ele>
        <time>2018-04-22T07:59:28Z</time>
      </trkpt>
      <trkpt lat="48.214" lon="6.99054">
        <ele>507.23</ele>
        <time>2018-04-22T07:59:30Z</time>
      </trkpt>
      <trkpt lat="48.21412" lon="6.99059">
        <ele>506.27</ele>
        <time>2018-04-22T07:59:32Z</time>
      </trkpt>
      <trkpt lat="48.21424" lon="6.99062">
        <ele>505.31</ele>
        <time>2018-04-22T07:59:34Z</time>
      </trkpt>
      <trkpt lat="48.21439" lon="6.99068">
        <ele>503.87</ele>
        <time>2018-04-22T07:59:36Z</time>
      </trkpt>
      <trkpt lat="48.21451" lon="6.99077">
        <ele>502.91</ele>
        <time>2018-04-22T07:59:38Z</time>
      </trkpt>
      <trkpt lat="48.21461" lon="6.99084">
        <ele>500.98</ele>
        <time>2018-04-22T07:59:40Z</time>
      </trkpt>
      <trkpt lat="48.21469" lon="6.99092">
        <ele>500.02</ele>
        <time>2018-04-22T07:59:42Z</time>
      </trkpt>
      <trkpt lat="48.21477" lon="6.99098">
        <ele>498.58</ele>
        <time>2018-04-22T07:59:44Z</time>
      </trkpt>
      <trkpt lat="48.2149" lon="6.99106">
        <ele>497.14</ele>
        <time>2018-04-22T07:59:47Z</time>
      </trkpt>
      <trkpt lat="48.21499" lon="6.99112">
        <ele>495.7</ele>
        <time>2018-04-22T07:59:49Z</time>
      </trkpt>
      <trkpt lat="48.21509" lon="6.99118">
        <ele>494.26</ele>
        <time>2018-04-22T07:59:51Z</time>
      </trkpt>
      <trkpt lat="48.21517" lon="6.99126">
        <ele>492.33</ele>
        <time>2018-04-22T07:59:53Z</time>
      </trkpt>
      <trkpt lat="48.21524" lon="6.99135">
        <ele>491.37</ele>
        <time>2018-04-22T07:59:55Z</time>
      </trkpt>
      <trkpt lat="48.21531" lon="6.9915">
        <ele>489.93</ele>
        <time>2018-04-22T07:59:58Z</time>
      </trkpt>
      <trkpt lat="48.21538" lon="6.99164">
        <ele>488.97</ele>
        <time>2018-04-22T08:00:01Z</time>
      </trkpt>
      <trkpt lat="48.21547" lon="6.99182">
        <ele>486.08</ele>
        <time>2018-04-22T08:00:04Z</time>
      </trkpt>
      <trkpt lat="48.21555" lon="6.99196">
        <ele>483.2</ele>
        <time>2018-04-22T08:00:06Z</time>
      </trkpt>
      <trkpt lat="48.21561" lon="6.99209">
        <ele>480.32</ele>
        <time>2018-04-22T08:00:08Z</time>
      </trkpt>
      <trkpt lat="48.21565" lon="6.99226">
        <ele>478.87</ele>
        <time>2018-04-22T08:00:10Z</time>
      </trkpt>
      <trkpt lat="48.21571" lon="6.99243">
        <ele>477.43</ele>
        <time>2018-04-22T08:00:12Z</time>
      </trkpt>
      <trkpt lat="48.21575" lon="6.99263">
        <ele>475.99</ele>
        <time>2018-04-22T08:00:14Z</time>
      </trkpt>
      <trkpt lat="48.21579" lon="6.99283">
        <ele>474.07</ele>
        <time>2018-04-22T08:00:16Z</time>
      </trkpt>
      <trkpt lat="48.21581" lon="6.99299">
        <ele>472.14</ele>
        <time>2018-04-22T08:00:18Z</time>
      </trkpt>
      <trkpt lat="48.21584" lon="6.99317">
        <ele>470.7</ele>
        <time>2018-04-22T08:00:21Z</time>
      </trkpt>
      <trkpt lat="48.21589" lon="6.99337">
        <ele>469.74</ele>
        <time>2018-04-22T08:00:24Z</time>
      </trkpt>
      <trkpt lat="48.21591" lon="6.99353">
        <ele>467.82</ele>
        <time>2018-04-22T08:00:26Z</time>
      </trkpt>
      <trkpt lat="48.21593" lon="6.99367">
        <ele>466.38</ele>
        <time>2018-04-22T08:00:28Z</time>
      </trkpt>
      <trkpt lat="48.21603" lon="6.99382">
        <ele>463.97</ele>
        <time>2018-04-22T08:00:31Z</time>
      </trkpt>
      <trkpt lat="48.21611" lon="6.9939">
        <ele>462.53</ele>
        <time>2018-04-22T08:00:33Z</time>
      </trkpt>
      <trkpt lat="48.2162" lon="6.99394">
        <ele>461.09</ele>
        <time>2018-04-22T08:00:35Z</time>
      </trkpt>
      <trkpt lat="48.21632" lon="6.99397">
        <ele>459.65</ele>
        <time>2018-04-22T08:00:38Z</time>
      </trkpt>
      <trkpt lat="48.21643" lon="6.99398">
        <ele>458.21</ele>
        <time>2018-04-22T08:00:41Z</time>
      </trkpt>
      <trkpt lat="48.21652" lon="6.99401">
        <ele>457.24</ele>
        <time>2018-04-22T08:00:43Z</time>
      </trkpt>
      <trkpt lat="48.21661" lon="6.99407">
        <ele>455.32</ele>
        <time>2018-04-22T08:00:46Z</time>
      </trkpt>
      <trkpt lat="48.2167" lon="6.99418">
        <ele>454.84</ele>
        <time>2018-04-22T08:00:48Z</time>
      </trkpt>
      <trkpt lat="48.21681" lon="6.99433">
        <ele>453.88</ele>
        <time>2018-04-22T08:00:50Z</time>
      </trkpt>
      <trkpt lat="48.21692" lon="6.99447">
        <ele>453.4</ele>
        <time>2018-04-22T08:00:52Z</time>
      </trkpt>
      <trkpt lat="48.21699" lon="6.9946">
        <ele>452.92</ele>
        <time>2018-04-22T08:00:54Z</time>
      </trkpt>
      <trkpt lat="48.21706" lon="6.9947">
        <ele>451.48</ele>
        <time>2018-04-22T08:00:56Z</time>
      </trkpt>
      <trkpt lat="48.21714" lon="6.99481">
        <ele>450.52</ele>
        <time>2018-04-22T08:00:58Z</time>
      </trkpt>
      <trkpt lat="48.21723" lon="6.99494">
        <ele>448.59</ele>
        <time>2018-04-22T08:01:01Z</time>
      </trkpt>
      <trkpt lat="48.21729" lon="6.99505">
        <ele>447.63</ele>
        <time>2018-04-22T08:01:05Z</time>
      </trkpt>
      <trkpt lat="48.21742" lon="6.99495">
        <ele>445.71</ele>
        <time>2018-04-22T08:01:51Z</time>
      </trkpt>
      <trkpt lat="48.21751" lon="6.99484">
        <ele>444.27</ele>
        <time>2018-04-22T08:01:54Z</time>
      </trkpt>
      <trkpt lat="48.21759" lon="6.99473">
        <ele>441.86</ele>
        <time>2018-04-22T08:01:56Z</time>
      </trkpt>
      <trkpt lat="48.21767" lon="6.99459">
        <ele>440.9</ele>
        <time>2018-04-22T08:01:58Z</time>
      </trkpt>
      <trkpt lat="48.21775" lon="6.99443">
        <ele>438.5</ele>
        <time>2018-04-22T08:02:00Z</time>
      </trkpt>
      <trkpt lat="48.21783" lon="6.99431">
        <ele>437.54</ele>
        <time>2018-04-22T08:02:02Z</time>
      </trkpt>
      <trkpt lat="48.21794" lon="6.99428">
        <ele>436.1</ele>
        <time>2018-04-22T08:02:04Z</time>
      </trkpt>
      <trkpt lat="48.21807" lon="6.99428">
        <ele>434.65</ele>
        <time>2018-04-22T08:02:07Z</time>
      </trkpt>
      <trkpt lat="48.21814" lon="6.99438">
        <ele>433.69</ele>
        <time>2018-04-22T08:02:10Z</time>
      </trkpt>
      <trkpt lat="48.21814" lon="6.99458">
        <ele>432.73</ele>
        <time>2018-04-22T08:02:13Z</time>
      </trkpt>
      <trkpt lat="48.21814" lon="6.99474">
        <ele>432.25</ele>
        <time>2018-04-22T08:02:15Z</time>
      </trkpt>
      <trkpt lat="48.21813" lon="6.99491">
        <ele>431.77</ele>
        <time>2018-04-22T08:02:17Z</time>
      </trkpt>
      <trkpt lat="48.21811" lon="6.9951">
        <ele>430.81</ele>
        <time>2018-04-22T08:02:19Z</time>
      </trkpt>
      <trkpt lat="48.21808" lon="6.9953">
        <ele>430.81</ele>
        <time>2018-04-22T08:02:21Z</time>
      </trkpt>
      <trkpt lat="48.21807" lon="6.9955">
        <ele>430.33</ele>
        <time>2018-04-22T08:02:23Z</time>
      </trkpt>
      <trkpt lat="48.21809" lon="6.99569">
        <ele>430.33</ele>
        <time>2018-04-22T08:02:25Z</time>
      </trkpt>
      <trkpt lat="48.21814" lon="6.99582">
        <ele>430.33</ele>
        <time>2018-04-22T08:02:27Z</time>
      </trkpt>
      <trkpt lat="48.21822" lon="6.99586">
        <ele>429.85</ele>
        <time>2018-04-22T08:02:29Z</time>
      </trkpt>
      <trkpt lat="48.21833" lon="6.99588">
        <ele>429.37</ele>
        <time>2018-04-22T08:02:31Z</time>
      </trkpt>
      <trkpt lat="48.21844" lon="6.99589">
        <ele>429.37</ele>
        <time>2018-04-22T08:02:33Z</time>
      </trkpt>
      <trkpt lat="48.21856" lon="6.99588">
        <ele>428.4</ele>
        <time>2018-04-22T08:02:35Z</time>
      </trkpt>
      <trkpt lat="48.2187" lon="6.99583">
        <ele>428.4</ele>
        <time>2018-04-22T08:02:37Z</time>
      </trkpt>
      <trkpt lat="48.21883" lon="6.99575">
        <ele>427.44</ele>
        <time>2018-04-22T08:02:39Z</time>
      </trkpt>
      <trkpt lat="48.21895" lon="6.99565">
        <ele>427.44</ele>
        <time>2018-04-22T08:02:41Z</time>
      </trkpt>
      <trkpt lat="48.21906" lon="6.99555">
        <ele>427.44</ele>
        <time>2018-04-22T08:02:43Z</time>
      </trkpt>
      <trkpt lat="48.21916" lon="6.99547">
        <ele>426.48</ele>
        <time>2018-04-22T08:02:45Z</time>
      </trkpt>
      <trkpt lat="48.21928" lon="6.99547">
        <ele>425.52</ele>
        <time>2018-04-22T08:02:48Z</time>
      </trkpt>
      <trkpt lat="48.21935" lon="6.99559">
        <ele>425.04</ele>
        <time>2018-04-22T08:02:50Z</time>
      </trkpt>
      <trkpt lat="48.2194" lon="6.99575">
        <ele>425.04</ele>
        <time>2018-04-22T08:02:52Z</time>
      </trkpt>
      <trkpt lat="48.21944" lon="6.99592">
        <ele>424.56</ele>
        <time>2018-04-22T08:02:54Z</time>
      </trkpt>
      <trkpt lat="48.21948" lon="6.99606">
        <ele>424.56</ele>
        <time>2018-04-22T08:02:56Z</time>
      </trkpt>
      <trkpt lat="48.21961" lon="6.99614">
        <ele>424.08</ele>
        <time>2018-04-22T08:02:58Z</time>
      </trkpt>
      <trkpt lat="48.21974" lon="6.99615">
        <ele>423.6</ele>
        <time>2018-04-22T08:03:00Z</time>
      </trkpt>
      <trkpt lat="48.21986" lon="6.99619">
        <ele>423.6</ele>
        <time>2018-04-22T08:03:02Z</time>
      </trkpt>
      <trkpt lat="48.21997" lon="6.99627">
        <ele>422.64</ele>
        <time>2018-04-22T08:03:04Z</time>
      </trkpt>
      <trkpt lat="48.22006" lon="6.99635">
        <ele>423.12</ele>
        <time>2018-04-22T08:03:06Z</time>
      </trkpt>
      <trkpt lat="48.22017" lon="6.99647">
        <ele>423.6</ele>
        <time>2018-04-22T08:03:08Z</time>
      </trkpt>
      <trkpt lat="48.22024" lon="6.9966">
        <ele>423.12</ele>
        <time>2018-04-22T08:03:10Z</time>
      </trkpt>
      <trkpt lat="48.22032" lon="6.99673">
        <ele>423.12</ele>
        <time>2018-04-22T08:03:12Z</time>
      </trkpt>
      <trkpt lat="48.22041" lon="6.99683">
        <ele>423.12</ele>
        <time>2018-04-22T08:03:14Z</time>
      </trkpt>
      <trkpt lat="48.2205" lon="6.99689">
        <ele>423.12</ele>
        <time>2018-04-22T08:03:16Z</time>
      </trkpt>
      <trkpt lat="48.22059" lon="6.99693">
        <ele>423.6</ele>
        <time>2018-04-22T08:03:18Z</time>
      </trkpt>
      <trkpt lat="48.22068" lon="6.99697">
        <ele>423.6</ele>
        <time>2018-04-22T08:03:20Z</time>
      </trkpt>
      <trkpt lat="48.22077" lon="6.99709">
        <ele>424.56</ele>
        <time>2018-04-22T08:03:23Z</time>
      </trkpt>
      <trkpt lat="48.22077" lon="6.99724">
        <ele>425.52</ele>
        <time>2018-04-22T08:03:25Z</time>
      </trkpt>
      <trkpt lat="48.22075" lon="6.99736">
        <ele>426</ele>
        <time>2018-04-22T08:03:28Z</time>
      </trkpt>
      <trkpt lat="48.2207" lon="6.99749">
        <ele>427.44</ele>
        <time>2018-04-22T08:03:31Z</time>
      </trkpt>
      <trkpt lat="48.22063" lon="6.99762">
        <ele>428.89</ele>
        <time>2018-04-22T08:03:35Z</time>
      </trkpt>
      <trkpt lat="48.22054" lon="6.99772">
        <ele>428.89</ele>
        <time>2018-04-22T08:03:41Z</time>
      </trkpt>
      <trkpt lat="48.22051" lon="6.99787">
        <ele>429.37</ele>
        <time>2018-04-22T08:03:45Z</time>
      </trkpt>
      <trkpt lat="48.22051" lon="6.99802">
        <ele>430.81</ele>
        <time>2018-04-22T08:03:50Z</time>
      </trkpt>
      <trkpt lat="48.22059" lon="6.99811">
        <ele>432.25</ele>
        <time>2018-04-22T08:03:56Z</time>
      </trkpt>
      <trkpt lat="48.22071" lon="6.9981">
        <ele>434.65</ele>
        <time>2018-04-22T08:04:04Z</time>
      </trkpt>
      <trkpt lat="48.22082" lon="6.99809">
        <ele>437.06</ele>
        <time>2018-04-22T08:04:12Z</time>
      </trkpt>
      <trkpt lat="48.22093" lon="6.99811">
        <ele>438.98</ele>
        <time>2018-04-22T08:04:21Z</time>
      </trkpt>
      <trkpt lat="48.221" lon="6.9982">
        <ele>441.38</ele>
        <time>2018-04-22T08:04:28Z</time>
      </trkpt>
      <trkpt lat="48.22106" lon="6.99833">
        <ele>442.82</ele>
        <time>2018-04-22T08:04:35Z</time>
      </trkpt>
      <trkpt lat="48.22111" lon="6.99842">
        <ele>443.79</ele>
        <time>2018-04-22T08:04:41Z</time>
      </trkpt>
      <trkpt lat="48.22118" lon="6.99853">
        <ele>445.23</ele>
        <time>2018-04-22T08:04:48Z</time>
      </trkpt>
      <trkpt lat="48.22126" lon="6.99862">
        <ele>446.19</ele>
        <time>2018-04-22T08:04:55Z</time>
      </trkpt>
      <trkpt lat="48.22135" lon="6.99868">
        <ele>447.15</ele>
        <time>2018-04-22T08:05:00Z</time>
      </trkpt>
      <trkpt lat="48.22143" lon="6.99872">
        <ele>448.11</ele>
        <time>2018-04-22T08:05:06Z</time>
      </trkpt>
      <trkpt lat="48.22151" lon="6.99873">
        <ele>448.59</ele>
        <time>2018-04-22T08:05:12Z</time>
      </trkpt>
      <trkpt lat="48.2216" lon="6.99874">
        <ele>449.55</ele>
        <time>2018-04-22T08:05:19Z</time>
      </trkpt>
      <trkpt lat="48.22169" lon="6.99879">
        <ele>450.03</ele>
        <time>2018-04-22T08:05:25Z</time>
      </trkpt>
      <trkpt lat="48.22179" lon="6.99881">
        <ele>452.44</ele>
        <time>2018-04-22T08:05:32Z</time>
      </trkpt>
      <trkpt lat="48.22188" lon="6.99883">
        <ele>452.92</ele>
        <time>2018-04-22T08:05:38Z</time>
      </trkpt>
      <trkpt lat="48.22196" lon="6.99885">
        <ele>454.36</ele>
        <time>2018-04-22T08:05:44Z</time>
      </trkpt>
      <trkpt lat="48.22205" lon="6.99885">
        <ele>455.8</ele>
        <time>2018-04-22T08:05:51Z</time>
      </trkpt>
      <trkpt lat="48.22213" lon="6.99886">
        <ele>457.72</ele>
        <time>2018-04-22T08:05:59Z</time>
      </trkpt>
      <trkpt lat="48.22222" lon="6.99889">
        <ele>466.38</ele>
        <time>2018-04-22T08:06:06Z</time>
      </trkpt>
      <trkpt lat="48.2223" lon="6.99894">
        <ele>460.61</ele>
        <time>2018-04-22T08:06:13Z</time>
      </trkpt>
      <trkpt lat="48.22238" lon="6.99903">
        <ele>463.49</ele>
        <time>2018-04-22T08:06:25Z</time>
      </trkpt>
      <trkpt lat="48.22249" lon="6.99907">
        <ele>465.42</ele>
        <time>2018-04-22T08:06:33Z</time>
      </trkpt>
      <trkpt lat="48.22259" lon="6.99913">
        <ele>465.9</ele>
        <time>2018-04-22T08:06:39Z</time>
      </trkpt>
      <trkpt lat="48.22269" lon="6.99917">
        <ele>466.86</ele>
        <time>2018-04-22T08:06:47Z</time>
      </trkpt>
      <trkpt lat="48.22277" lon="6.99923">
        <ele>467.82</ele>
        <time>2018-04-22T08:06:54Z</time>
      </trkpt>
      <trkpt lat="48.22323" lon="6.99935">
        <ele>469.26</ele>
        <time>2018-04-22T08:07:00Z</time>
      </trkpt>
      <trkpt lat="48.22332" lon="6.99942">
        <ele>469.74</ele>
        <time>2018-04-22T08:07:06Z</time>
      </trkpt>
      <trkpt lat="48.2234" lon="6.99951">
        <ele>471.18</ele>
        <time>2018-04-22T08:07:12Z</time>
      </trkpt>
      <trkpt lat="48.22347" lon="6.9996">
        <ele>473.11</ele>
        <time>2018-04-22T08:07:18Z</time>
      </trkpt>
      <trkpt lat="48.22354" lon="6.99969">
        <ele>474.07</ele>
        <time>2018-04-22T08:07:24Z</time>
      </trkpt>
      <trkpt lat="48.22362" lon="6.99976">
        <ele>475.51</ele>
        <time>2018-04-22T08:07:30Z</time>
      </trkpt>
      <trkpt lat="48.22371" lon="6.99984">
        <ele>477.91</ele>
        <time>2018-04-22T08:07:37Z</time>
      </trkpt>
      <trkpt lat="48.22381" lon="6.99989">
        <ele>479.35</ele>
        <time>2018-04-22T08:07:44Z</time>
      </trkpt>
      <trkpt lat="48.22391" lon="6.9999">
        <ele>480.8</ele>
        <time>2018-04-22T08:07:51Z</time>
      </trkpt>
      <trkpt lat="48.22401" lon="6.99986">
        <ele>482.72</ele>
        <time>2018-04-22T08:07:58Z</time>
      </trkpt>
      <trkpt lat="48.22411" lon="6.99979">
        <ele>483.68</ele>
        <time>2018-04-22T08:08:05Z</time>
      </trkpt>
      <trkpt lat="48.22419" lon="6.9997">
        <ele>485.12</ele>
        <time>2018-04-22T08:08:12Z</time>
      </trkpt>
      <trkpt lat="48.22427" lon="6.99958">
        <ele>486.56</ele>
        <time>2018-04-22T08:08:20Z</time>
      </trkpt>
      <trkpt lat="48.22434" lon="6.99946">
        <ele>488.01</ele>
        <time>2018-04-22T08:08:27Z</time>
      </trkpt>
      <trkpt lat="48.2244" lon="6.99935">
        <ele>488.97</ele>
        <time>2018-04-22T08:08:34Z</time>
      </trkpt>
      <trkpt lat="48.22446" lon="6.99923">
        <ele>490.41</ele>
        <time>2018-04-22T08:08:41Z</time>
      </trkpt>
      <trkpt lat="48.22452" lon="6.99912">
        <ele>491.85</ele>
        <time>2018-04-22T08:08:48Z</time>
      </trkpt>
      <trkpt lat="48.22459" lon="6.99902">
        <ele>493.29</ele>
        <time>2018-04-22T08:08:55Z</time>
      </trkpt>
      <trkpt lat="48.22467" lon="6.99896">
        <ele>494.74</ele>
        <time>2018-04-22T08:09:03Z</time>
      </trkpt>
      <trkpt lat="48.22478" lon="6.99893">
        <ele>496.18</ele>
        <time>2018-04-22T08:09:10Z</time>
      </trkpt>
      <trkpt lat="48.22488" lon="6.99894">
        <ele>498.1</ele>
        <time>2018-04-22T08:09:17Z</time>
      </trkpt>
      <trkpt lat="48.22498" lon="6.99894">
        <ele>498.58</ele>
        <time>2018-04-22T08:09:23Z</time>
      </trkpt>
      <trkpt lat="48.22507" lon="6.99893">
        <ele>500.02</ele>
        <time>2018-04-22T08:09:29Z</time>
      </trkpt>
      <trkpt lat="48.22518" lon="6.99894">
        <ele>501.46</ele>
        <time>2018-04-22T08:09:36Z</time>
      </trkpt>
      <trkpt lat="48.22528" lon="6.99894">
        <ele>502.91</ele>
        <time>2018-04-22T08:09:42Z</time>
      </trkpt>
      <trkpt lat="48.22538" lon="6.99894">
        <ele>503.87</ele>
        <time>2018-04-22T08:09:49Z</time>
      </trkpt>
      <trkpt lat="48.22547" lon="6.99892">
        <ele>505.31</ele>
        <time>2018-04-22T08:09:57Z</time>
      </trkpt>
      <trkpt lat="48.22556" lon="6.99892">
        <ele>507.23</ele>
        <time>2018-04-22T08:10:05Z</time>
      </trkpt>
      <trkpt lat="48.22568" lon="6.99893">
        <ele>508.67</ele>
        <time>2018-04-22T08:10:11Z</time>
      </trkpt>
      <trkpt lat="48.2258" lon="6.99896">
        <ele>509.16</ele>
        <time>2018-04-22T08:10:17Z</time>
      </trkpt>
      <trkpt lat="48.22588" lon="6.999">
        <ele>510.6</ele>
        <time>2018-04-22T08:10:22Z</time>
      </trkpt>
      <trkpt lat="48.22597" lon="6.99906">
        <ele>511.56</ele>
        <time>2018-04-22T08:10:27Z</time>
      </trkpt>
      <trkpt lat="48.22605" lon="6.99915">
        <ele>511.56</ele>
        <time>2018-04-22T08:10:32Z</time>
      </trkpt>
      <trkpt lat="48.22612" lon="6.99925">
        <ele>511.56</ele>
        <time>2018-04-22T08:10:36Z</time>
      </trkpt>
      <trkpt lat="48.22618" lon="6.99937">
        <ele>512.04</ele>
        <time>2018-04-22T08:10:40Z</time>
      </trkpt>
      <trkpt lat="48.22624" lon="6.9995">
        <ele>512.04</ele>
        <time>2018-04-22T08:10:44Z</time>
      </trkpt>
      <trkpt lat="48.22628" lon="6.99963">
        <ele>512.04</ele>
        <time>2018-04-22T08:10:47Z</time>
      </trkpt>
      <trkpt lat="48.22629" lon="6.99977">
        <ele>512.04</ele>
        <time>2018-04-22T08:10:50Z</time>
      </trkpt>
      <trkpt lat="48.2263" lon="6.99993">
        <ele>512.04</ele>
        <time>2018-04-22T08:10:53Z</time>
      </trkpt>
      <trkpt lat="48.22632" lon="7.00009">
        <ele>512.04</ele>
        <time>2018-04-22T08:10:56Z</time>
      </trkpt>
      <trkpt lat="48.22635" lon="7.00025">
        <ele>512.04</ele>
        <time>2018-04-22T08:10:59Z</time>
      </trkpt>
      <trkpt lat="48.22638" lon="7.00041">
        <ele>512.04</ele>
        <time>2018-04-22T08:11:02Z</time>
      </trkpt>
      <trkpt lat="48.22642" lon="7.00056">
        <ele>512.52</ele>
        <time>2018-04-22T08:11:05Z</time>
      </trkpt>
      <trkpt lat="48.22645" lon="7.00071">
        <ele>513</ele>
        <time>2018-04-22T08:11:08Z</time>
      </trkpt>
      <trkpt lat="48.2265" lon="7.00084">
        <ele>513.48</ele>
        <time>2018-04-22T08:11:11Z</time>
      </trkpt>
      <trkpt lat="48.22655" lon="7.00098">
        <ele>514.44</ele>
        <time>2018-04-22T08:11:15Z</time>
      </trkpt>
      <trkpt lat="48.22659" lon="7.00112">
        <ele>515.88</ele>
        <time>2018-04-22T08:11:20Z</time>
      </trkpt>
      <trkpt lat="48.22659" lon="7.00127">
        <ele>516.85</ele>
        <time>2018-04-22T08:11:25Z</time>
      </trkpt>
      <trkpt lat="48.2266" lon="7.00141">
        <ele>517.33</ele>
        <time>2018-04-22T08:11:31Z</time>
      </trkpt>
      <trkpt lat="48.22659" lon="7.00156">
        <ele>518.29</ele>
        <time>2018-04-22T08:11:37Z</time>
      </trkpt>
      <trkpt lat="48.22658" lon="7.00171">
        <ele>519.25</ele>
        <time>2018-04-22T08:11:44Z</time>
      </trkpt>
      <trkpt lat="48.22659" lon="7.00186">
        <ele>520.69</ele>
        <time>2018-04-22T08:11:51Z</time>
      </trkpt>
      <trkpt lat="48.22657" lon="7.002">
        <ele>523.09</ele>
        <time>2018-04-22T08:11:59Z</time>
      </trkpt>
      <trkpt lat="48.22661" lon="7.00211">
        <ele>524.06</ele>
        <time>2018-04-22T08:12:06Z</time>
      </trkpt>
      <trkpt lat="48.22667" lon="7.00223">
        <ele>525.98</ele>
        <time>2018-04-22T08:12:15Z</time>
      </trkpt>
      <trkpt lat="48.22674" lon="7.00231">
        <ele>527.42</ele>
        <time>2018-04-22T08:12:25Z</time>
      </trkpt>
      <trkpt lat="48.22678" lon="7.00243">
        <ele>530.79</ele>
        <time>2018-04-22T08:12:35Z</time>
      </trkpt>
      <trkpt lat="48.22679" lon="7.00256">
        <ele>533.67</ele>
        <time>2018-04-22T08:12:51Z</time>
      </trkpt>
      <trkpt lat="48.22696" lon="7.00267">
        <ele>535.59</ele>
        <time>2018-04-22T08:13:12Z</time>
      </trkpt>
      <trkpt lat="48.227" lon="7.00281">
        <ele>537.51</ele>
        <time>2018-04-22T08:13:25Z</time>
      </trkpt>
      <trkpt lat="48.22705" lon="7.00294">
        <ele>538.48</ele>
        <time>2018-04-22T08:13:36Z</time>
      </trkpt>
      <trkpt lat="48.22709" lon="7.00307">
        <ele>540.88</ele>
        <time>2018-04-22T08:13:49Z</time>
      </trkpt>
      <trkpt lat="48.22709" lon="7.00321">
        <ele>541.84</ele>
        <time>2018-04-22T08:14:03Z</time>
      </trkpt>
      <trkpt lat="48.22705" lon="7.00336">
        <ele>543.28</ele>
        <time>2018-04-22T08:14:11Z</time>
      </trkpt>
      <trkpt lat="48.22704" lon="7.00351">
        <ele>544.24</ele>
        <time>2018-04-22T08:14:18Z</time>
      </trkpt>
      <trkpt lat="48.22704" lon="7.00365">
        <ele>545.69</ele>
        <time>2018-04-22T08:14:24Z</time>
      </trkpt>
      <trkpt lat="48.22705" lon="7.0038">
        <ele>546.17</ele>
        <time>2018-04-22T08:14:30Z</time>
      </trkpt>
      <trkpt lat="48.22704" lon="7.00397">
        <ele>546.65</ele>
        <time>2018-04-22T08:14:35Z</time>
      </trkpt>
      <trkpt lat="48.22705" lon="7.00412">
        <ele>547.61</ele>
        <time>2018-04-22T08:14:39Z</time>
      </trkpt>
      <trkpt lat="48.22706" lon="7.00427">
        <ele>547.61</ele>
        <time>2018-04-22T08:14:43Z</time>
      </trkpt>
      <trkpt lat="48.22706" lon="7.00443">
        <ele>547.61</ele>
        <time>2018-04-22T08:14:47Z</time>
      </trkpt>
      <trkpt lat="48.22707" lon="7.0046">
        <ele>547.61</ele>
        <time>2018-04-22T08:14:51Z</time>
      </trkpt>
      <trkpt lat="48.22708" lon="7.00474">
        <ele>548.09</ele>
        <time>2018-04-22T08:14:54Z</time>
      </trkpt>
      <trkpt lat="48.22708" lon="7.0049">
        <ele>548.57</ele>
        <time>2018-04-22T08:14:57Z</time>
      </trkpt>
      <trkpt lat="48.22708" lon="7.00505">
        <ele>549.05</ele>
        <time>2018-04-22T08:15:00Z</time>
      </trkpt>
      <trkpt lat="48.22708" lon="7.0052">
        <ele>549.05</ele>
        <time>2018-04-22T08:15:03Z</time>
      </trkpt>
      <trkpt lat="48.22708" lon="7.00535">
        <ele>548.57</ele>
        <time>2018-04-22T08:15:06Z</time>
      </trkpt>
      <trkpt lat="48.22706" lon="7.0055">
        <ele>549.05</ele>
        <time>2018-04-22T08:15:09Z</time>
      </trkpt>
      <trkpt lat="48.22703" lon="7.00565">
        <ele>549.05</ele>
        <time>2018-04-22T08:15:12Z</time>
      </trkpt>
      <trkpt lat="48.227" lon="7.00581">
        <ele>549.53</ele>
        <time>2018-04-22T08:15:15Z</time>
      </trkpt>
      <trkpt lat="48.22696" lon="7.00596">
        <ele>550.01</ele>
        <time>2018-04-22T08:15:18Z</time>
      </trkpt>
      <trkpt lat="48.22692" lon="7.00613">
        <ele>549.53</ele>
        <time>2018-04-22T08:15:21Z</time>
      </trkpt>
      <trkpt lat="48.2269" lon="7.00627">
        <ele>549.05</ele>
        <time>2018-04-22T08:15:23Z</time>
      </trkpt>
      <trkpt lat="48.22688" lon="7.00643">
        <ele>548.57</ele>
        <time>2018-04-22T08:15:25Z</time>
      </trkpt>
      <trkpt lat="48.22686" lon="7.00663">
        <ele>547.61</ele>
        <time>2018-04-22T08:15:27Z</time>
      </trkpt>
      <trkpt lat="48.22685" lon="7.00684">
        <ele>547.13</ele>
        <time>2018-04-22T08:15:29Z</time>
      </trkpt>
      <trkpt lat="48.22683" lon="7.00709">
        <ele>545.69</ele>
        <time>2018-04-22T08:15:31Z</time>
      </trkpt>
      <trkpt lat="48.22683" lon="7.00735">
        <ele>544.72</ele>
        <time>2018-04-22T08:15:33Z</time>
      </trkpt>
      <trkpt lat="48.22683" lon="7.00759">
        <ele>544.72</ele>
        <time>2018-04-22T08:15:35Z</time>
      </trkpt>
      <trkpt lat="48.22683" lon="7.00783">
        <ele>545.69</ele>
        <time>2018-04-22T08:15:37Z</time>
      </trkpt>
      <trkpt lat="48.22684" lon="7.00804">
        <ele>546.17</ele>
        <time>2018-04-22T08:15:39Z</time>
      </trkpt>
      <trkpt lat="48.22684" lon="7.00822">
        <ele>547.61</ele>
        <time>2018-04-22T08:15:41Z</time>
      </trkpt>
      <trkpt lat="48.22683" lon="7.00836">
        <ele>548.09</ele>
        <time>2018-04-22T08:15:43Z</time>
      </trkpt>
      <trkpt lat="48.22683" lon="7.00852">
        <ele>548.57</ele>
        <time>2018-04-22T08:15:46Z</time>
      </trkpt>
      <trkpt lat="48.22679" lon="7.00866">
        <ele>550.01</ele>
        <time>2018-04-22T08:15:50Z</time>
      </trkpt>
      <trkpt lat="48.22674" lon="7.00878">
        <ele>550.01</ele>
        <time>2018-04-22T08:15:54Z</time>
      </trkpt>
      <trkpt lat="48.22669" lon="7.00891">
        <ele>550.49</ele>
        <time>2018-04-22T08:15:58Z</time>
      </trkpt>
      <trkpt lat="48.22664" lon="7.00904">
        <ele>550.97</ele>
        <time>2018-04-22T08:16:02Z</time>
      </trkpt>
      <trkpt lat="48.2266" lon="7.00917">
        <ele>551.45</ele>
        <time>2018-04-22T08:16:06Z</time>
      </trkpt>
      <trkpt lat="48.22656" lon="7.00932">
        <ele>551.93</ele>
        <time>2018-04-22T08:16:11Z</time>
      </trkpt>
      <trkpt lat="48.22655" lon="7.00946">
        <ele>553.38</ele>
        <time>2018-04-22T08:16:16Z</time>
      </trkpt>
      <trkpt lat="48.22654" lon="7.0096">
        <ele>554.82</ele>
        <time>2018-04-22T08:16:21Z</time>
      </trkpt>
      <trkpt lat="48.2265" lon="7.00973">
        <ele>556.26</ele>
        <time>2018-04-22T08:16:27Z</time>
      </trkpt>
      <trkpt lat="48.22644" lon="7.0099">
        <ele>558.18</ele>
        <time>2018-04-22T08:16:37Z</time>
      </trkpt>
      <trkpt lat="48.22637" lon="7.01005">
        <ele>559.14</ele>
        <time>2018-04-22T08:16:46Z</time>
      </trkpt>
      <trkpt lat="48.22629" lon="7.0102">
        <ele>561.07</ele>
        <time>2018-04-22T08:16:56Z</time>
      </trkpt>
      <trkpt lat="48.22622" lon="7.01036">
        <ele>562.99</ele>
        <time>2018-04-22T08:17:06Z</time>
      </trkpt>
      <trkpt lat="48.22618" lon="7.01053">
        <ele>564.91</ele>
        <time>2018-04-22T08:17:14Z</time>
      </trkpt>
      <trkpt lat="48.22618" lon="7.01072">
        <ele>566.83</ele>
        <time>2018-04-22T08:17:22Z</time>
      </trkpt>
      <trkpt lat="48.2262" lon="7.01088">
        <ele>568.28</ele>
        <time>2018-04-22T08:17:30Z</time>
      </trkpt>
      <trkpt lat="48.22623" lon="7.01103">
        <ele>569.72</ele>
        <time>2018-04-22T08:17:38Z</time>
      </trkpt>
      <trkpt lat="48.22626" lon="7.01117">
        <ele>571.16</ele>
        <time>2018-04-22T08:17:45Z</time>
      </trkpt>
      <trkpt lat="48.22629" lon="7.01131">
        <ele>573.08</ele>
        <time>2018-04-22T08:17:53Z</time>
      </trkpt>
      <trkpt lat="48.22635" lon="7.01146">
        <ele>575.01</ele>
        <time>2018-04-22T08:18:02Z</time>
      </trkpt>
      <trkpt lat="48.22642" lon="7.01156">
        <ele>575.97</ele>
        <time>2018-04-22T08:18:10Z</time>
      </trkpt>
      <trkpt lat="48.22651" lon="7.01163">
        <ele>577.41</ele>
        <time>2018-04-22T08:18:17Z</time>
      </trkpt>
      <trkpt lat="48.2266" lon="7.01174">
        <ele>578.85</ele>
        <time>2018-04-22T08:18:25Z</time>
      </trkpt>
      <trkpt lat="48.22668" lon="7.01185">
        <ele>579.81</ele>
        <time>2018-04-22T08:18:34Z</time>
      </trkpt>
      <trkpt lat="48.22674" lon="7.01199">
        <ele>581.25</ele>
        <time>2018-04-22T08:18:42Z</time>
      </trkpt>
      <trkpt lat="48.2268" lon="7.01211">
        <ele>583.18</ele>
        <time>2018-04-22T08:18:49Z</time>
      </trkpt>
      <trkpt lat="48.22684" lon="7.01224">
        <ele>583.18</ele>
        <time>2018-04-22T08:18:55Z</time>
      </trkpt>
      <trkpt lat="48.22688" lon="7.01237">
        <ele>584.14</ele>
        <time>2018-04-22T08:19:01Z</time>
      </trkpt>
      <trkpt lat="48.22692" lon="7.0125">
        <ele>585.1</ele>
        <time>2018-04-22T08:19:06Z</time>
      </trkpt>
      <trkpt lat="48.22694" lon="7.01264">
        <ele>585.1</ele>
        <time>2018-04-22T08:19:11Z</time>
      </trkpt>
      <trkpt lat="48.22696" lon="7.01279">
        <ele>586.06</ele>
        <time>2018-04-22T08:19:17Z</time>
      </trkpt>
      <trkpt lat="48.22692" lon="7.01294">
        <ele>587.02</ele>
        <time>2018-04-22T08:19:23Z</time>
      </trkpt>
      <trkpt lat="48.2269" lon="7.01308">
        <ele>587.98</ele>
        <time>2018-04-22T08:19:28Z</time>
      </trkpt>
      <trkpt lat="48.22686" lon="7.01321">
        <ele>588.95</ele>
        <time>2018-04-22T08:19:33Z</time>
      </trkpt>
      <trkpt lat="48.22682" lon="7.01335">
        <ele>589.43</ele>
        <time>2018-04-22T08:19:38Z</time>
      </trkpt>
      <trkpt lat="48.22679" lon="7.0135">
        <ele>590.39</ele>
        <time>2018-04-22T08:19:43Z</time>
      </trkpt>
      <trkpt lat="48.22679" lon="7.01366">
        <ele>590.87</ele>
        <time>2018-04-22T08:19:48Z</time>
      </trkpt>
      <trkpt lat="48.2268" lon="7.0138">
        <ele>590.87</ele>
        <time>2018-04-22T08:19:52Z</time>
      </trkpt>
      <trkpt lat="48.22681" lon="7.01395">
        <ele>591.35</ele>
        <time>2018-04-22T08:19:56Z</time>
      </trkpt>
      <trkpt lat="48.2268" lon="7.01409">
        <ele>591.35</ele>
        <time>2018-04-22T08:20:00Z</time>
      </trkpt>
      <trkpt lat="48.22676" lon="7.01425">
        <ele>591.35</ele>
        <time>2018-04-22T08:20:04Z</time>
      </trkpt>
      <trkpt lat="48.22675" lon="7.01441">
        <ele>592.31</ele>
        <time>2018-04-22T08:20:08Z</time>
      </trkpt>
      <trkpt lat="48.22674" lon="7.01456">
        <ele>593.27</ele>
        <time>2018-04-22T08:20:14Z</time>
      </trkpt>
      <trkpt lat="48.22673" lon="7.01473">
        <ele>593.27</ele>
        <time>2018-04-22T08:20:30Z</time>
      </trkpt>
      <trkpt lat="48.22672" lon="7.01489">
        <ele>592.79</ele>
        <time>2018-04-22T08:20:34Z</time>
      </trkpt>
      <trkpt lat="48.22675" lon="7.01508">
        <ele>593.75</ele>
        <time>2018-04-22T08:20:38Z</time>
      </trkpt>
      <trkpt lat="48.22677" lon="7.01525">
        <ele>592.31</ele>
        <time>2018-04-22T08:20:41Z</time>
      </trkpt>
      <trkpt lat="48.22677" lon="7.01542">
        <ele>592.31</ele>
        <time>2018-04-22T08:20:44Z</time>
      </trkpt>
      <trkpt lat="48.22679" lon="7.01559">
        <ele>592.79</ele>
        <time>2018-04-22T08:20:47Z</time>
      </trkpt>
      <trkpt lat="48.2268" lon="7.01577">
        <ele>592.79</ele>
        <time>2018-04-22T08:20:50Z</time>
      </trkpt>
      <trkpt lat="48.22679" lon="7.01594">
        <ele>593.27</ele>
        <time>2018-04-22T08:20:53Z</time>
      </trkpt>
      <trkpt lat="48.22678" lon="7.01608">
        <ele>593.75</ele>
        <time>2018-04-22T08:20:56Z</time>
      </trkpt>
      <trkpt lat="48.22675" lon="7.01622">
        <ele>594.23</ele>
        <time>2018-04-22T08:20:59Z</time>
      </trkpt>
      <trkpt lat="48.22671" lon="7.01635">
        <ele>594.23</ele>
        <time>2018-04-22T08:21:02Z</time>
      </trkpt>
      <trkpt lat="48.22669" lon="7.01648">
        <ele>594.71</ele>
        <time>2018-04-22T08:21:05Z</time>
      </trkpt>
      <trkpt lat="48.22665" lon="7.01664">
        <ele>595.67</ele>
        <time>2018-04-22T08:21:10Z</time>
      </trkpt>
      <trkpt lat="48.22663" lon="7.0168">
        <ele>596.64</ele>
        <time>2018-04-22T08:21:14Z</time>
      </trkpt>
      <trkpt lat="48.2266" lon="7.01695">
        <ele>598.08</ele>
        <time>2018-04-22T08:21:18Z</time>
      </trkpt>
      <trkpt lat="48.22657" lon="7.01712">
        <ele>598.08</ele>
        <time>2018-04-22T08:21:22Z</time>
      </trkpt>
      <trkpt lat="48.22654" lon="7.01728">
        <ele>599.04</ele>
        <time>2018-04-22T08:21:26Z</time>
      </trkpt>
      <trkpt lat="48.22651" lon="7.01743">
        <ele>600</ele>
        <time>2018-04-22T08:21:30Z</time>
      </trkpt>
      <trkpt lat="48.22646" lon="7.01758">
        <ele>600.96</ele>
        <time>2018-04-22T08:21:34Z</time>
      </trkpt>
      <trkpt lat="48.22642" lon="7.01774">
        <ele>601.44</ele>
        <time>2018-04-22T08:21:39Z</time>
      </trkpt>
      <trkpt lat="48.22638" lon="7.01798">
        <ele>602.4</ele>
        <time>2018-04-22T08:21:46Z</time>
      </trkpt>
      <trkpt lat="48.22634" lon="7.0182">
        <ele>602.4</ele>
        <time>2018-04-22T08:21:51Z</time>
      </trkpt>
      <trkpt lat="48.22631" lon="7.01839">
        <ele>602.88</ele>
        <time>2018-04-22T08:21:55Z</time>
      </trkpt>
      <trkpt lat="48.22627" lon="7.01859">
        <ele>603.36</ele>
        <time>2018-04-22T08:21:59Z</time>
      </trkpt>
      <trkpt lat="48.22623" lon="7.0188">
        <ele>603.85</ele>
        <time>2018-04-22T08:22:03Z</time>
      </trkpt>
      <trkpt lat="48.2262" lon="7.01899">
        <ele>603.36</ele>
        <time>2018-04-22T08:22:07Z</time>
      </trkpt>
      <trkpt lat="48.22616" lon="7.01917">
        <ele>604.33</ele>
        <time>2018-04-22T08:22:11Z</time>
      </trkpt>
      <trkpt lat="48.22613" lon="7.01935">
        <ele>604.33</ele>
        <time>2018-04-22T08:22:14Z</time>
      </trkpt>
      <trkpt lat="48.2261" lon="7.01955">
        <ele>603.85</ele>
        <time>2018-04-22T08:22:17Z</time>
      </trkpt>
      <trkpt lat="48.22607" lon="7.01974">
        <ele>603.85</ele>
        <time>2018-04-22T08:22:20Z</time>
      </trkpt>
      <trkpt lat="48.22602" lon="7.01992">
        <ele>603.85</ele>
        <time>2018-04-22T08:22:23Z</time>
      </trkpt>
      <trkpt lat="48.22598" lon="7.0201">
        <ele>604.33</ele>
        <time>2018-04-22T08:22:26Z</time>
      </trkpt>
      <trkpt lat="48.22595" lon="7.02025">
        <ele>604.81</ele>
        <time>2018-04-22T08:22:29Z</time>
      </trkpt>
      <trkpt lat="48.22593" lon="7.0204">
        <ele>605.77</ele>
        <time>2018-04-22T08:22:32Z</time>
      </trkpt>
      <trkpt lat="48.22593" lon="7.02058">
        <ele>606.73</ele>
        <time>2018-04-22T08:22:36Z</time>
      </trkpt>
      <trkpt lat="48.22594" lon="7.02072">
        <ele>606.73</ele>
        <time>2018-04-22T08:22:39Z</time>
      </trkpt>
      <trkpt lat="48.22592" lon="7.0209">
        <ele>606.25</ele>
        <time>2018-04-22T08:22:42Z</time>
      </trkpt>
      <trkpt lat="48.22588" lon="7.02109">
        <ele>605.77</ele>
        <time>2018-04-22T08:22:45Z</time>
      </trkpt>
      <trkpt lat="48.22584" lon="7.02125">
        <ele>605.29</ele>
        <time>2018-04-22T08:22:48Z</time>
      </trkpt>
      <trkpt lat="48.2258" lon="7.02141">
        <ele>605.29</ele>
        <time>2018-04-22T08:22:51Z</time>
      </trkpt>
      <trkpt lat="48.22576" lon="7.02159">
        <ele>605.29</ele>
        <time>2018-04-22T08:22:54Z</time>
      </trkpt>
      <trkpt lat="48.22573" lon="7.02176">
        <ele>606.25</ele>
        <time>2018-04-22T08:22:57Z</time>
      </trkpt>
      <trkpt lat="48.22569" lon="7.0219">
        <ele>606.73</ele>
        <time>2018-04-22T08:23:00Z</time>
      </trkpt>
      <trkpt lat="48.22565" lon="7.02204">
        <ele>607.21</ele>
        <time>2018-04-22T08:23:04Z</time>
      </trkpt>
      <trkpt lat="48.22561" lon="7.02219">
        <ele>607.69</ele>
        <time>2018-04-22T08:23:09Z</time>
      </trkpt>
      <trkpt lat="48.22558" lon="7.02233">
        <ele>608.65</ele>
        <time>2018-04-22T08:23:14Z</time>
      </trkpt>
      <trkpt lat="48.22557" lon="7.02249">
        <ele>609.61</ele>
        <time>2018-04-22T08:23:19Z</time>
      </trkpt>
      <trkpt lat="48.22557" lon="7.02263">
        <ele>611.54</ele>
        <time>2018-04-22T08:23:24Z</time>
      </trkpt>
      <trkpt lat="48.22554" lon="7.02277">
        <ele>612.5</ele>
        <time>2018-04-22T08:23:30Z</time>
      </trkpt>
      <trkpt lat="48.22549" lon="7.02292">
        <ele>613.94</ele>
        <time>2018-04-22T08:23:37Z</time>
      </trkpt>
      <trkpt lat="48.22543" lon="7.02303">
        <ele>615.86</ele>
        <time>2018-04-22T08:23:43Z</time>
      </trkpt>
      <trkpt lat="48.22534" lon="7.0231">
        <ele>616.82</ele>
        <time>2018-04-22T08:23:49Z</time>
      </trkpt>
      <trkpt lat="48.22525" lon="7.0232">
        <ele>618.26</ele>
        <time>2018-04-22T08:23:54Z</time>
      </trkpt>
      <trkpt lat="48.22515" lon="7.0233">
        <ele>618.75</ele>
        <time>2018-04-22T08:23:59Z</time>
      </trkpt>
      <trkpt lat="48.22506" lon="7.02341">
        <ele>619.71</ele>
        <time>2018-04-22T08:24:04Z</time>
      </trkpt>
      <trkpt lat="48.22499" lon="7.02351">
        <ele>620.67</ele>
        <time>2018-04-22T08:24:09Z</time>
      </trkpt>
      <trkpt lat="48.22493" lon="7.02362">
        <ele>622.11</ele>
        <time>2018-04-22T08:24:14Z</time>
      </trkpt>
      <trkpt lat="48.22487" lon="7.02373">
        <ele>623.07</ele>
        <time>2018-04-22T08:24:19Z</time>
      </trkpt>
      <trkpt lat="48.22483" lon="7.02384">
        <ele>624.99</ele>
        <time>2018-04-22T08:24:24Z</time>
      </trkpt>
      <trkpt lat="48.22479" lon="7.02397">
        <ele>626.44</ele>
        <time>2018-04-22T08:24:30Z</time>
      </trkpt>
      <trkpt lat="48.22472" lon="7.02407">
        <ele>627.4</ele>
        <time>2018-04-22T08:24:37Z</time>
      </trkpt>
      <trkpt lat="48.22465" lon="7.02417">
        <ele>627.88</ele>
        <time>2018-04-22T08:24:43Z</time>
      </trkpt>
      <trkpt lat="48.22459" lon="7.02428">
        <ele>627.88</ele>
        <time>2018-04-22T08:24:48Z</time>
      </trkpt>
      <trkpt lat="48.22452" lon="7.02437">
        <ele>628.36</ele>
        <time>2018-04-22T08:24:54Z</time>
      </trkpt>
      <trkpt lat="48.22446" lon="7.02449">
        <ele>628.36</ele>
        <time>2018-04-22T08:25:04Z</time>
      </trkpt>
      <trkpt lat="48.22439" lon="7.02454">
        <ele>628.36</ele>
        <time>2018-04-22T08:26:51Z</time>
      </trkpt>
      <trkpt lat="48.22432" lon="7.02466">
        <ele>628.36</ele>
        <time>2018-04-22T08:26:58Z</time>
      </trkpt>
      <trkpt lat="48.22426" lon="7.02477">
        <ele>628.84</ele>
        <time>2018-04-22T08:27:04Z</time>
      </trkpt>
      <trkpt lat="48.22417" lon="7.02487">
        <ele>628.84</ele>
        <time>2018-04-22T08:27:10Z</time>
      </trkpt>
      <trkpt lat="48.22409" lon="7.02497">
        <ele>629.32</ele>
        <time>2018-04-22T08:27:15Z</time>
      </trkpt>
      <trkpt lat="48.22399" lon="7.02508">
        <ele>629.8</ele>
        <time>2018-04-22T08:27:20Z</time>
      </trkpt>
      <trkpt lat="48.2239" lon="7.02519">
        <ele>629.8</ele>
        <time>2018-04-22T08:27:24Z</time>
      </trkpt>
      <trkpt lat="48.22382" lon="7.0253">
        <ele>630.28</ele>
        <time>2018-04-22T08:27:28Z</time>
      </trkpt>
      <trkpt lat="48.22375" lon="7.02543">
        <ele>630.76</ele>
        <time>2018-04-22T08:27:34Z</time>
      </trkpt>
      <trkpt lat="48.22368" lon="7.02559">
        <ele>630.76</ele>
        <time>2018-04-22T08:27:39Z</time>
      </trkpt>
      <trkpt lat="48.22362" lon="7.02573">
        <ele>630.28</ele>
        <time>2018-04-22T08:27:42Z</time>
      </trkpt>
      <trkpt lat="48.22355" lon="7.02586">
        <ele>630.76</ele>
        <time>2018-04-22T08:27:45Z</time>
      </trkpt>
      <trkpt lat="48.22347" lon="7.026">
        <ele>630.76</ele>
        <time>2018-04-22T08:27:49Z</time>
      </trkpt>
      <trkpt lat="48.22339" lon="7.02616">
        <ele>631.24</ele>
        <time>2018-04-22T08:27:52Z</time>
      </trkpt>
      <trkpt lat="48.22333" lon="7.0263">
        <ele>630.76</ele>
        <time>2018-04-22T08:27:55Z</time>
      </trkpt>
      <trkpt lat="48.22326" lon="7.02647">
        <ele>631.72</ele>
        <time>2018-04-22T08:27:59Z</time>
      </trkpt>
      <trkpt lat="48.22317" lon="7.02664">
        <ele>633.17</ele>
        <time>2018-04-22T08:28:03Z</time>
      </trkpt>
      <trkpt lat="48.2231" lon="7.02678">
        <ele>634.13</ele>
        <time>2018-04-22T08:28:07Z</time>
      </trkpt>
      <trkpt lat="48.22302" lon="7.0269">
        <ele>634.61</ele>
        <time>2018-04-22T08:28:11Z</time>
      </trkpt>
      <trkpt lat="48.22296" lon="7.02705">
        <ele>635.57</ele>
        <time>2018-04-22T08:28:15Z</time>
      </trkpt>
      <trkpt lat="48.22288" lon="7.02719">
        <ele>636.53</ele>
        <time>2018-04-22T08:28:19Z</time>
      </trkpt>
      <trkpt lat="48.22281" lon="7.02733">
        <ele>637.49</ele>
        <time>2018-04-22T08:28:24Z</time>
      </trkpt>
      <trkpt lat="48.22274" lon="7.02747">
        <ele>637.49</ele>
        <time>2018-04-22T08:28:28Z</time>
      </trkpt>
      <trkpt lat="48.22268" lon="7.02763">
        <ele>637.49</ele>
        <time>2018-04-22T08:28:32Z</time>
      </trkpt>
      <trkpt lat="48.22262" lon="7.02779">
        <ele>637.49</ele>
        <time>2018-04-22T08:28:36Z</time>
      </trkpt>
      <trkpt lat="48.22257" lon="7.02794">
        <ele>638.45</ele>
        <time>2018-04-22T08:28:40Z</time>
      </trkpt>
      <trkpt lat="48.22252" lon="7.02811">
        <ele>638.93</ele>
        <time>2018-04-22T08:28:44Z</time>
      </trkpt>
      <trkpt lat="48.22247" lon="7.02825">
        <ele>638.45</ele>
        <time>2018-04-22T08:28:48Z</time>
      </trkpt>
      <trkpt lat="48.22238" lon="7.02844">
        <ele>637.49</ele>
        <time>2018-04-22T08:28:51Z</time>
      </trkpt>
      <trkpt lat="48.22232" lon="7.02859">
        <ele>637.01</ele>
        <time>2018-04-22T08:28:53Z</time>
      </trkpt>
      <trkpt lat="48.22224" lon="7.02878">
        <ele>637.01</ele>
        <time>2018-04-22T08:28:55Z</time>
      </trkpt>
      <trkpt lat="48.22217" lon="7.02896">
        <ele>635.57</ele>
        <time>2018-04-22T08:28:57Z</time>
      </trkpt>
      <trkpt lat="48.22209" lon="7.02914">
        <ele>634.61</ele>
        <time>2018-04-22T08:28:59Z</time>
      </trkpt>
      <trkpt lat="48.222" lon="7.02932">
        <ele>634.13</ele>
        <time>2018-04-22T08:29:01Z</time>
      </trkpt>
      <trkpt lat="48.22189" lon="7.02951">
        <ele>632.2</ele>
        <time>2018-04-22T08:29:03Z</time>
      </trkpt>
      <trkpt lat="48.22178" lon="7.02968">
        <ele>630.76</ele>
        <time>2018-04-22T08:29:05Z</time>
      </trkpt>
      <trkpt lat="48.22166" lon="7.02985">
        <ele>630.28</ele>
        <time>2018-04-22T08:29:07Z</time>
      </trkpt>
      <trkpt lat="48.22154" lon="7.03001">
        <ele>630.28</ele>
        <time>2018-04-22T08:29:09Z</time>
      </trkpt>
      <trkpt lat="48.22142" lon="7.03012">
        <ele>630.76</ele>
        <time>2018-04-22T08:29:11Z</time>
      </trkpt>
      <trkpt lat="48.2213" lon="7.03021">
        <ele>631.24</ele>
        <time>2018-04-22T08:29:13Z</time>
      </trkpt>
      <trkpt lat="48.22121" lon="7.03033">
        <ele>631.72</ele>
        <time>2018-04-22T08:29:15Z</time>
      </trkpt>
      <trkpt lat="48.22115" lon="7.03052">
        <ele>633.65</ele>
        <time>2018-04-22T08:29:18Z</time>
      </trkpt>
      <trkpt lat="48.22109" lon="7.0307">
        <ele>634.61</ele>
        <time>2018-04-22T08:29:23Z</time>
      </trkpt>
      <trkpt lat="48.22103" lon="7.03085">
        <ele>636.05</ele>
        <time>2018-04-22T08:29:30Z</time>
      </trkpt>
      <trkpt lat="48.22096" lon="7.03098">
        <ele>637.49</ele>
        <time>2018-04-22T08:29:35Z</time>
      </trkpt>
      <trkpt lat="48.22092" lon="7.03111">
        <ele>638.93</ele>
        <time>2018-04-22T08:29:40Z</time>
      </trkpt>
      <trkpt lat="48.22086" lon="7.03124">
        <ele>639.89</ele>
        <time>2018-04-22T08:29:45Z</time>
      </trkpt>
      <trkpt lat="48.22081" lon="7.03139">
        <ele>640.86</ele>
        <time>2018-04-22T08:29:50Z</time>
      </trkpt>
      <trkpt lat="48.22075" lon="7.03152">
        <ele>641.82</ele>
        <time>2018-04-22T08:29:55Z</time>
      </trkpt>
      <trkpt lat="48.22069" lon="7.03167">
        <ele>642.3</ele>
        <time>2018-04-22T08:30:00Z</time>
      </trkpt>
      <trkpt lat="48.22064" lon="7.03181">
        <ele>642.78</ele>
        <time>2018-04-22T08:30:04Z</time>
      </trkpt>
      <trkpt lat="48.2206" lon="7.03197">
        <ele>643.26</ele>
        <time>2018-04-22T08:30:08Z</time>
      </trkpt>
      <trkpt lat="48.22057" lon="7.03211">
        <ele>644.22</ele>
        <time>2018-04-22T08:30:12Z</time>
      </trkpt>
      <trkpt lat="48.22053" lon="7.03227">
        <ele>645.18</ele>
        <time>2018-04-22T08:30:17Z</time>
      </trkpt>
      <trkpt lat="48.2205" lon="7.03243">
        <ele>645.18</ele>
        <time>2018-04-22T08:30:21Z</time>
      </trkpt>
      <trkpt lat="48.22049" lon="7.03258">
        <ele>646.14</ele>
        <time>2018-04-22T08:30:26Z</time>
      </trkpt>
      <trkpt lat="48.22049" lon="7.03272">
        <ele>647.59</ele>
        <time>2018-04-22T08:30:31Z</time>
      </trkpt>
      <trkpt lat="48.2205" lon="7.0329">
        <ele>649.03</ele>
        <time>2018-04-22T08:30:38Z</time>
      </trkpt>
      <trkpt lat="48.22052" lon="7.03308">
        <ele>650.47</ele>
        <time>2018-04-22T08:30:45Z</time>
      </trkpt>
      <trkpt lat="48.22057" lon="7.03322">
        <ele>651.43</ele>
        <time>2018-04-22T08:30:51Z</time>
      </trkpt>
      <trkpt lat="48.22061" lon="7.03337">
        <ele>652.39</ele>
        <time>2018-04-22T08:30:58Z</time>
      </trkpt>
      <trkpt lat="48.22065" lon="7.03352">
        <ele>653.83</ele>
        <time>2018-04-22T08:31:05Z</time>
      </trkpt>
      <trkpt lat="48.22066" lon="7.03368">
        <ele>655.28</ele>
        <time>2018-04-22T08:31:11Z</time>
      </trkpt>
      <trkpt lat="48.22068" lon="7.03382">
        <ele>656.24</ele>
        <time>2018-04-22T08:31:17Z</time>
      </trkpt>
      <trkpt lat="48.2207" lon="7.03396">
        <ele>656.72</ele>
        <time>2018-04-22T08:31:23Z</time>
      </trkpt>
      <trkpt lat="48.22068" lon="7.03413">
        <ele>657.2</ele>
        <time>2018-04-22T08:31:28Z</time>
      </trkpt>
      <trkpt lat="48.22068" lon="7.03429">
        <ele>658.16</ele>
        <time>2018-04-22T08:31:33Z</time>
      </trkpt>
      <trkpt lat="48.22066" lon="7.03445">
        <ele>658.64</ele>
        <time>2018-04-22T08:31:38Z</time>
      </trkpt>
      <trkpt lat="48.22066" lon="7.0346">
        <ele>660.56</ele>
        <time>2018-04-22T08:31:43Z</time>
      </trkpt>
      <trkpt lat="48.22064" lon="7.03475">
        <ele>660.08</ele>
        <time>2018-04-22T08:31:48Z</time>
      </trkpt>
      <trkpt lat="48.22063" lon="7.0349">
        <ele>660.08</ele>
        <time>2018-04-22T08:31:52Z</time>
      </trkpt>
      <trkpt lat="48.2206" lon="7.03503">
        <ele>659.6</ele>
        <time>2018-04-22T08:31:55Z</time>
      </trkpt>
      <trkpt lat="48.22058" lon="7.0352">
        <ele>658.64</ele>
        <time>2018-04-22T08:31:58Z</time>
      </trkpt>
      <trkpt lat="48.22056" lon="7.0354">
        <ele>657.2</ele>
        <time>2018-04-22T08:32:01Z</time>
      </trkpt>
      <trkpt lat="48.22057" lon="7.03558">
        <ele>657.2</ele>
        <time>2018-04-22T08:32:04Z</time>
      </trkpt>
      <trkpt lat="48.22056" lon="7.03566">
        <ele>656.72</ele>
        <time>2018-04-22T08:34:12Z</time>
      </trkpt>
      <trkpt lat="48.22059" lon="7.03566">
        <ele>658.64</ele>
        <time>2018-04-22T08:45:41Z</time>
      </trkpt>
      <trkpt lat="48.22058" lon="7.03578">
        <ele>658.64</ele>
        <time>2018-04-22T08:46:39Z</time>
      </trkpt>
      <trkpt lat="48.22054" lon="7.03593">
        <ele>657.2</ele>
        <time>2018-04-22T08:46:42Z</time>
      </trkpt>
      <trkpt lat="48.22049" lon="7.03608">
        <ele>656.72</ele>
        <time>2018-04-22T08:46:45Z</time>
      </trkpt>
      <trkpt lat="48.22043" lon="7.03626">
        <ele>656.24</ele>
        <time>2018-04-22T08:46:48Z</time>
      </trkpt>
      <trkpt lat="48.22038" lon="7.0364">
        <ele>654.8</ele>
        <time>2018-04-22T08:46:50Z</time>
      </trkpt>
      <trkpt lat="48.22035" lon="7.03656">
        <ele>653.83</ele>
        <time>2018-04-22T08:46:52Z</time>
      </trkpt>
      <trkpt lat="48.22031" lon="7.03671">
        <ele>651.91</ele>
        <time>2018-04-22T08:46:54Z</time>
      </trkpt>
      <trkpt lat="48.22028" lon="7.03688">
        <ele>649.99</ele>
        <time>2018-04-22T08:46:56Z</time>
      </trkpt>
      <trkpt lat="48.22024" lon="7.03705">
        <ele>648.07</ele>
        <time>2018-04-22T08:46:58Z</time>
      </trkpt>
      <trkpt lat="48.22021" lon="7.03722">
        <ele>646.14</ele>
        <time>2018-04-22T08:47:00Z</time>
      </trkpt>
      <trkpt lat="48.22017" lon="7.03738">
        <ele>644.22</ele>
        <time>2018-04-22T08:47:02Z</time>
      </trkpt>
      <trkpt lat="48.22013" lon="7.03754">
        <ele>642.3</ele>
        <time>2018-04-22T08:47:04Z</time>
      </trkpt>
      <trkpt lat="48.22008" lon="7.03771">
        <ele>639.89</ele>
        <time>2018-04-22T08:47:06Z</time>
      </trkpt>
      <trkpt lat="48.22003" lon="7.03787">
        <ele>637.97</ele>
        <time>2018-04-22T08:47:08Z</time>
      </trkpt>
      <trkpt lat="48.21998" lon="7.03802">
        <ele>634.61</ele>
        <time>2018-04-22T08:47:10Z</time>
      </trkpt>
      <trkpt lat="48.21988" lon="7.03814">
        <ele>633.17</ele>
        <time>2018-04-22T08:47:12Z</time>
      </trkpt>
      <trkpt lat="48.21974" lon="7.03821">
        <ele>631.24</ele>
        <time>2018-04-22T08:47:14Z</time>
      </trkpt>
      <trkpt lat="48.2196" lon="7.03825">
        <ele>631.72</ele>
        <time>2018-04-22T08:47:16Z</time>
      </trkpt>
      <trkpt lat="48.21948" lon="7.03832">
        <ele>631.72</ele>
        <time>2018-04-22T08:47:18Z</time>
      </trkpt>
      <trkpt lat="48.21936" lon="7.03837">
        <ele>632.2</ele>
        <time>2018-04-22T08:47:20Z</time>
      </trkpt>
      <trkpt lat="48.21926" lon="7.03842">
        <ele>630.28</ele>
        <time>2018-04-22T08:47:22Z</time>
      </trkpt>
      <trkpt lat="48.21917" lon="7.03846">
        <ele>627.88</ele>
        <time>2018-04-22T08:47:24Z</time>
      </trkpt>
      <trkpt lat="48.21905" lon="7.03849">
        <ele>625.96</ele>
        <time>2018-04-22T08:47:27Z</time>
      </trkpt>
      <trkpt lat="48.21893" lon="7.03846">
        <ele>623.55</ele>
        <time>2018-04-22T08:47:30Z</time>
      </trkpt>
      <trkpt lat="48.2188" lon="7.03844">
        <ele>621.15</ele>
        <time>2018-04-22T08:47:32Z</time>
      </trkpt>
      <trkpt lat="48.21867" lon="7.03848">
        <ele>618.75</ele>
        <time>2018-04-22T08:47:34Z</time>
      </trkpt>
      <trkpt lat="48.21856" lon="7.03854">
        <ele>617.78</ele>
        <time>2018-04-22T08:47:36Z</time>
      </trkpt>
      <trkpt lat="48.21846" lon="7.0386">
        <ele>616.34</ele>
        <time>2018-04-22T08:47:38Z</time>
      </trkpt>
      <trkpt lat="48.21838" lon="7.03866">
        <ele>615.38</ele>
        <time>2018-04-22T08:47:40Z</time>
      </trkpt>
      <trkpt lat="48.21825" lon="7.03874">
        <ele>613.94</ele>
        <time>2018-04-22T08:47:43Z</time>
      </trkpt>
      <trkpt lat="48.21817" lon="7.03882">
        <ele>612.5</ele>
        <time>2018-04-22T08:47:45Z</time>
      </trkpt>
      <trkpt lat="48.21807" lon="7.03891">
        <ele>610.57</ele>
        <time>2018-04-22T08:47:47Z</time>
      </trkpt>
      <trkpt lat="48.21798" lon="7.03899">
        <ele>609.61</ele>
        <time>2018-04-22T08:47:49Z</time>
      </trkpt>
      <trkpt lat="48.21791" lon="7.03914">
        <ele>605.77</ele>
        <time>2018-04-22T08:47:52Z</time>
      </trkpt>
      <trkpt lat="48.21782" lon="7.03931">
        <ele>603.85</ele>
        <time>2018-04-22T08:47:54Z</time>
      </trkpt>
      <trkpt lat="48.21774" lon="7.03944">
        <ele>602.4</ele>
        <time>2018-04-22T08:47:56Z</time>
      </trkpt>
      <trkpt lat="48.21765" lon="7.03958">
        <ele>600.96</ele>
        <time>2018-04-22T08:47:58Z</time>
      </trkpt>
      <trkpt lat="48.21758" lon="7.03972">
        <ele>599.52</ele>
        <time>2018-04-22T08:48:00Z</time>
      </trkpt>
      <trkpt lat="48.2175" lon="7.03983">
        <ele>598.08</ele>
        <time>2018-04-22T08:48:02Z</time>
      </trkpt>
      <trkpt lat="48.21741" lon="7.03994">
        <ele>596.15</ele>
        <time>2018-04-22T08:48:04Z</time>
      </trkpt>
      <trkpt lat="48.21734" lon="7.04009">
        <ele>594.23</ele>
        <time>2018-04-22T08:48:06Z</time>
      </trkpt>
      <trkpt lat="48.21723" lon="7.04026">
        <ele>592.31</ele>
        <time>2018-04-22T08:48:08Z</time>
      </trkpt>
      <trkpt lat="48.21713" lon="7.04042">
        <ele>590.39</ele>
        <time>2018-04-22T08:48:10Z</time>
      </trkpt>
      <trkpt lat="48.21704" lon="7.04058">
        <ele>588.46</ele>
        <time>2018-04-22T08:48:12Z</time>
      </trkpt>
      <trkpt lat="48.21694" lon="7.04075">
        <ele>586.54</ele>
        <time>2018-04-22T08:48:14Z</time>
      </trkpt>
      <trkpt lat="48.21685" lon="7.04091">
        <ele>585.58</ele>
        <time>2018-04-22T08:48:16Z</time>
      </trkpt>
      <trkpt lat="48.21679" lon="7.04105">
        <ele>583.66</ele>
        <time>2018-04-22T08:48:18Z</time>
      </trkpt>
      <trkpt lat="48.21673" lon="7.04121">
        <ele>582.22</ele>
        <time>2018-04-22T08:48:21Z</time>
      </trkpt>
      <trkpt lat="48.21667" lon="7.0414">
        <ele>577.89</ele>
        <time>2018-04-22T08:48:24Z</time>
      </trkpt>
      <trkpt lat="48.21661" lon="7.04158">
        <ele>575.01</ele>
        <time>2018-04-22T08:48:26Z</time>
      </trkpt>
      <trkpt lat="48.21654" lon="7.04179">
        <ele>572.6</ele>
        <time>2018-04-22T08:48:28Z</time>
      </trkpt>
      <trkpt lat="48.21645" lon="7.04203">
        <ele>570.68</ele>
        <time>2018-04-22T08:48:30Z</time>
      </trkpt>
      <trkpt lat="48.21639" lon="7.04215">
        <ele>569.24</ele>
        <time>2018-04-22T08:48:31Z</time>
      </trkpt>
      <trkpt lat="48.21634" lon="7.04228">
        <ele>567.8</ele>
        <time>2018-04-22T08:48:32Z</time>
      </trkpt>
      <trkpt lat="48.21628" lon="7.0424">
        <ele>566.83</ele>
        <time>2018-04-22T08:48:33Z</time>
      </trkpt>
      <trkpt lat="48.21617" lon="7.04264">
        <ele>562.99</ele>
        <time>2018-04-22T08:48:35Z</time>
      </trkpt>
      <trkpt lat="48.21607" lon="7.04285">
        <ele>561.07</ele>
        <time>2018-04-22T08:48:37Z</time>
      </trkpt>
      <trkpt lat="48.21595" lon="7.04305">
        <ele>557.7</ele>
        <time>2018-04-22T08:48:39Z</time>
      </trkpt>
      <trkpt lat="48.21588" lon="7.04315">
        <ele>556.74</ele>
        <time>2018-04-22T08:48:40Z</time>
      </trkpt>
      <trkpt lat="48.21581" lon="7.04324">
        <ele>554.82</ele>
        <time>2018-04-22T08:48:41Z</time>
      </trkpt>
      <trkpt lat="48.21573" lon="7.04332">
        <ele>553.38</ele>
        <time>2018-04-22T08:48:42Z</time>
      </trkpt>
      <trkpt lat="48.21559" lon="7.04347">
        <ele>551.93</ele>
        <time>2018-04-22T08:48:44Z</time>
      </trkpt>
      <trkpt lat="48.21547" lon="7.04358">
        <ele>550.49</ele>
        <time>2018-04-22T08:48:46Z</time>
      </trkpt>
      <trkpt lat="48.21535" lon="7.04365">
        <ele>550.01</ele>
        <time>2018-04-22T08:48:48Z</time>
      </trkpt>
      <trkpt lat="48.21523" lon="7.04366">
        <ele>549.05</ele>
        <time>2018-04-22T08:48:50Z</time>
      </trkpt>
      <trkpt lat="48.21513" lon="7.04363">
        <ele>551.45</ele>
        <time>2018-04-22T08:48:54Z</time>
      </trkpt>
      <trkpt lat="48.21502" lon="7.04359">
        <ele>552.41</ele>
        <time>2018-04-22T08:48:59Z</time>
      </trkpt>
      <trkpt lat="48.21492" lon="7.04354">
        <ele>553.86</ele>
        <time>2018-04-22T08:49:04Z</time>
      </trkpt>
      <trkpt lat="48.21483" lon="7.04348">
        <ele>555.3</ele>
        <time>2018-04-22T08:49:09Z</time>
      </trkpt>
      <trkpt lat="48.21476" lon="7.04338">
        <ele>555.78</ele>
        <time>2018-04-22T08:49:14Z</time>
      </trkpt>
      <trkpt lat="48.21469" lon="7.04324">
        <ele>556.26</ele>
        <time>2018-04-22T08:49:19Z</time>
      </trkpt>
      <trkpt lat="48.21462" lon="7.04311">
        <ele>556.26</ele>
        <time>2018-04-22T08:49:23Z</time>
      </trkpt>
      <trkpt lat="48.21456" lon="7.04297">
        <ele>556.26</ele>
        <time>2018-04-22T08:49:27Z</time>
      </trkpt>
      <trkpt lat="48.2145" lon="7.04285">
        <ele>557.22</ele>
        <time>2018-04-22T08:49:31Z</time>
      </trkpt>
      <trkpt lat="48.21444" lon="7.04272">
        <ele>557.7</ele>
        <time>2018-04-22T08:49:37Z</time>
      </trkpt>
      <trkpt lat="48.21438" lon="7.0426">
        <ele>559.14</ele>
        <time>2018-04-22T08:49:44Z</time>
      </trkpt>
      <trkpt lat="48.21431" lon="7.04249">
        <ele>560.59</ele>
        <time>2018-04-22T08:49:51Z</time>
      </trkpt>
      <trkpt lat="48.21425" lon="7.04237">
        <ele>562.03</ele>
        <time>2018-04-22T08:49:58Z</time>
      </trkpt>
      <trkpt lat="48.2142" lon="7.04225">
        <ele>563.47</ele>
        <time>2018-04-22T08:50:05Z</time>
      </trkpt>
      <trkpt lat="48.21414" lon="7.04211">
        <ele>564.91</ele>
        <time>2018-04-22T08:50:12Z</time>
      </trkpt>
      <trkpt lat="48.21408" lon="7.04199">
        <ele>566.35</ele>
        <time>2018-04-22T08:50:18Z</time>
      </trkpt>
      <trkpt lat="48.21403" lon="7.04187">
        <ele>567.32</ele>
        <time>2018-04-22T08:50:24Z</time>
      </trkpt>
      <trkpt lat="48.21398" lon="7.04173">
        <ele>567.8</ele>
        <time>2018-04-22T08:50:30Z</time>
      </trkpt>
      <trkpt lat="48.21392" lon="7.04159">
        <ele>568.28</ele>
        <time>2018-04-22T08:50:35Z</time>
      </trkpt>
      <trkpt lat="48.21387" lon="7.04145">
        <ele>568.76</ele>
        <time>2018-04-22T08:50:41Z</time>
      </trkpt>
      <trkpt lat="48.21383" lon="7.04131">
        <ele>568.76</ele>
        <time>2018-04-22T08:50:46Z</time>
      </trkpt>
      <trkpt lat="48.21377" lon="7.04113">
        <ele>569.72</ele>
        <time>2018-04-22T08:50:51Z</time>
      </trkpt>
      <trkpt lat="48.21372" lon="7.04099">
        <ele>569.72</ele>
        <time>2018-04-22T08:50:55Z</time>
      </trkpt>
      <trkpt lat="48.21365" lon="7.04084">
        <ele>570.2</ele>
        <time>2018-04-22T08:50:59Z</time>
      </trkpt>
      <trkpt lat="48.21358" lon="7.04069">
        <ele>571.64</ele>
        <time>2018-04-22T08:51:03Z</time>
      </trkpt>
      <trkpt lat="48.2135" lon="7.04053">
        <ele>571.64</ele>
        <time>2018-04-22T08:51:07Z</time>
      </trkpt>
      <trkpt lat="48.21344" lon="7.04037">
        <ele>573.08</ele>
        <time>2018-04-22T08:51:11Z</time>
      </trkpt>
      <trkpt lat="48.2134" lon="7.04022">
        <ele>573.08</ele>
        <time>2018-04-22T08:51:15Z</time>
      </trkpt>
      <trkpt lat="48.21337" lon="7.04006">
        <ele>574.04</ele>
        <time>2018-04-22T08:51:19Z</time>
      </trkpt>
      <trkpt lat="48.21334" lon="7.03989">
        <ele>575.01</ele>
        <time>2018-04-22T08:51:24Z</time>
      </trkpt>
      <trkpt lat="48.21332" lon="7.03973">
        <ele>576.93</ele>
        <time>2018-04-22T08:51:29Z</time>
      </trkpt>
      <trkpt lat="48.21329" lon="7.03956">
        <ele>577.41</ele>
        <time>2018-04-22T08:51:34Z</time>
      </trkpt>
      <trkpt lat="48.21325" lon="7.03943">
        <ele>578.37</ele>
        <time>2018-04-22T08:51:39Z</time>
      </trkpt>
      <trkpt lat="48.21318" lon="7.0393">
        <ele>579.81</ele>
        <time>2018-04-22T08:51:45Z</time>
      </trkpt>
      <trkpt lat="48.21308" lon="7.03923">
        <ele>582.7</ele>
        <time>2018-04-22T08:51:56Z</time>
      </trkpt>
      <trkpt lat="48.21298" lon="7.03924">
        <ele>583.66</ele>
        <time>2018-04-22T08:52:04Z</time>
      </trkpt>
      <trkpt lat="48.21286" lon="7.03925">
        <ele>586.54</ele>
        <time>2018-04-22T08:52:16Z</time>
      </trkpt>
      <trkpt lat="48.21278" lon="7.03928">
        <ele>589.43</ele>
        <time>2018-04-22T08:52:32Z</time>
      </trkpt>
      <trkpt lat="48.21264" lon="7.03923">
        <ele>591.35</ele>
        <time>2018-04-22T08:52:45Z</time>
      </trkpt>
      <trkpt lat="48.21254" lon="7.0391">
        <ele>593.75</ele>
        <time>2018-04-22T08:52:57Z</time>
      </trkpt>
      <trkpt lat="48.21248" lon="7.03897">
        <ele>594.71</ele>
        <time>2018-04-22T08:53:05Z</time>
      </trkpt>
      <trkpt lat="48.21239" lon="7.03883">
        <ele>595.67</ele>
        <time>2018-04-22T08:53:12Z</time>
      </trkpt>
      <trkpt lat="48.21232" lon="7.0387">
        <ele>595.67</ele>
        <time>2018-04-22T08:53:19Z</time>
      </trkpt>
      <trkpt lat="48.21227" lon="7.03853">
        <ele>596.64</ele>
        <time>2018-04-22T08:53:24Z</time>
      </trkpt>
      <trkpt lat="48.21224" lon="7.03836">
        <ele>597.6</ele>
        <time>2018-04-22T08:53:29Z</time>
      </trkpt>
      <trkpt lat="48.21218" lon="7.03818">
        <ele>598.08</ele>
        <time>2018-04-22T08:53:34Z</time>
      </trkpt>
      <trkpt lat="48.21214" lon="7.03802">
        <ele>598.56</ele>
        <time>2018-04-22T08:53:39Z</time>
      </trkpt>
      <trkpt lat="48.21213" lon="7.03783">
        <ele>600</ele>
        <time>2018-04-22T08:53:45Z</time>
      </trkpt>
      <trkpt lat="48.21215" lon="7.03769">
        <ele>600.48</ele>
        <time>2018-04-22T08:53:50Z</time>
      </trkpt>
      <trkpt lat="48.21218" lon="7.03752">
        <ele>602.4</ele>
        <time>2018-04-22T08:53:56Z</time>
      </trkpt>
      <trkpt lat="48.21212" lon="7.03734">
        <ele>602.4</ele>
        <time>2018-04-22T08:54:01Z</time>
      </trkpt>
      <trkpt lat="48.21215" lon="7.03722">
        <ele>603.36</ele>
        <time>2018-04-22T08:54:06Z</time>
      </trkpt>
      <trkpt lat="48.21214" lon="7.03705">
        <ele>604.33</ele>
        <time>2018-04-22T08:54:12Z</time>
      </trkpt>
      <trkpt lat="48.21214" lon="7.03691">
        <ele>604.81</ele>
        <time>2018-04-22T08:54:17Z</time>
      </trkpt>
      <trkpt lat="48.2121" lon="7.03674">
        <ele>605.77</ele>
        <time>2018-04-22T08:54:22Z</time>
      </trkpt>
      <trkpt lat="48.21208" lon="7.0366">
        <ele>606.25</ele>
        <time>2018-04-22T08:54:27Z</time>
      </trkpt>
      <trkpt lat="48.21206" lon="7.03644">
        <ele>607.21</ele>
        <time>2018-04-22T08:54:33Z</time>
      </trkpt>
      <trkpt lat="48.21204" lon="7.03631">
        <ele>607.69</ele>
        <time>2018-04-22T08:54:38Z</time>
      </trkpt>
      <trkpt lat="48.21196" lon="7.03614">
        <ele>608.65</ele>
        <time>2018-04-22T08:54:47Z</time>
      </trkpt>
      <trkpt lat="48.21173" lon="7.03595">
        <ele>609.13</ele>
        <time>2018-04-22T08:54:53Z</time>
      </trkpt>
      <trkpt lat="48.21144" lon="7.03582">
        <ele>610.09</ele>
        <time>2018-04-22T08:54:59Z</time>
      </trkpt>
      <trkpt lat="48.21134" lon="7.03586">
        <ele>611.06</ele>
        <time>2018-04-22T08:55:04Z</time>
      </trkpt>
      <trkpt lat="48.21125" lon="7.03594">
        <ele>612.5</ele>
        <time>2018-04-22T08:55:09Z</time>
      </trkpt>
      <trkpt lat="48.21116" lon="7.03604">
        <ele>613.94</ele>
        <time>2018-04-22T08:55:15Z</time>
      </trkpt>
      <trkpt lat="48.21106" lon="7.03612">
        <ele>614.9</ele>
        <time>2018-04-22T08:55:21Z</time>
      </trkpt>
      <trkpt lat="48.21098" lon="7.03619">
        <ele>617.3</ele>
        <time>2018-04-22T08:55:27Z</time>
      </trkpt>
      <trkpt lat="48.21088" lon="7.03629">
        <ele>617.78</ele>
        <time>2018-04-22T08:55:34Z</time>
      </trkpt>
      <trkpt lat="48.21079" lon="7.03635">
        <ele>618.75</ele>
        <time>2018-04-22T08:55:40Z</time>
      </trkpt>
      <trkpt lat="48.2107" lon="7.03638">
        <ele>620.19</ele>
        <time>2018-04-22T08:55:46Z</time>
      </trkpt>
      <trkpt lat="48.2106" lon="7.03639">
        <ele>621.63</ele>
        <time>2018-04-22T08:55:54Z</time>
      </trkpt>
      <trkpt lat="48.21048" lon="7.03641">
        <ele>623.55</ele>
        <time>2018-04-22T08:56:03Z</time>
      </trkpt>
      <trkpt lat="48.21038" lon="7.03642">
        <ele>624.51</ele>
        <time>2018-04-22T08:56:12Z</time>
      </trkpt>
      <trkpt lat="48.21026" lon="7.03639">
        <ele>625.96</ele>
        <time>2018-04-22T08:56:20Z</time>
      </trkpt>
      <trkpt lat="48.21014" lon="7.03636">
        <ele>626.92</ele>
        <time>2018-04-22T08:56:27Z</time>
      </trkpt>
      <trkpt lat="48.21003" lon="7.03634">
        <ele>628.36</ele>
        <time>2018-04-22T08:56:36Z</time>
      </trkpt>
      <trkpt lat="48.20993" lon="7.03629">
        <ele>628.84</ele>
        <time>2018-04-22T08:56:43Z</time>
      </trkpt>
      <trkpt lat="48.2098" lon="7.03625">
        <ele>629.32</ele>
        <time>2018-04-22T08:56:50Z</time>
      </trkpt>
      <trkpt lat="48.2097" lon="7.0362">
        <ele>630.28</ele>
        <time>2018-04-22T08:56:56Z</time>
      </trkpt>
      <trkpt lat="48.2096" lon="7.03614">
        <ele>631.72</ele>
        <time>2018-04-22T08:57:03Z</time>
      </trkpt>
      <trkpt lat="48.20949" lon="7.03611">
        <ele>633.17</ele>
        <time>2018-04-22T08:57:10Z</time>
      </trkpt>
      <trkpt lat="48.20939" lon="7.03609">
        <ele>634.13</ele>
        <time>2018-04-22T08:57:17Z</time>
      </trkpt>
      <trkpt lat="48.20929" lon="7.0361">
        <ele>635.09</ele>
        <time>2018-04-22T08:57:25Z</time>
      </trkpt>
      <trkpt lat="48.20918" lon="7.0361">
        <ele>636.53</ele>
        <time>2018-04-22T08:57:32Z</time>
      </trkpt>
      <trkpt lat="48.20906" lon="7.03605">
        <ele>637.97</ele>
        <time>2018-04-22T08:57:39Z</time>
      </trkpt>
      <trkpt lat="48.20895" lon="7.03601">
        <ele>638.93</ele>
        <time>2018-04-22T08:57:46Z</time>
      </trkpt>
      <trkpt lat="48.20884" lon="7.03597">
        <ele>638.93</ele>
        <time>2018-04-22T08:57:52Z</time>
      </trkpt>
      <trkpt lat="48.20873" lon="7.03595">
        <ele>639.41</ele>
        <time>2018-04-22T08:57:56Z</time>
      </trkpt>
      <trkpt lat="48.20863" lon="7.03592">
        <ele>638.45</ele>
        <time>2018-04-22T08:57:59Z</time>
      </trkpt>
      <trkpt lat="48.20851" lon="7.0359">
        <ele>638.45</ele>
        <time>2018-04-22T08:58:02Z</time>
      </trkpt>
      <trkpt lat="48.20838" lon="7.03587">
        <ele>637.97</ele>
        <time>2018-04-22T08:58:05Z</time>
      </trkpt>
      <trkpt lat="48.20828" lon="7.03584">
        <ele>637.49</ele>
        <time>2018-04-22T08:58:07Z</time>
      </trkpt>
      <trkpt lat="48.20817" lon="7.03581">
        <ele>636.53</ele>
        <time>2018-04-22T08:58:09Z</time>
      </trkpt>
      <trkpt lat="48.20806" lon="7.03577">
        <ele>636.53</ele>
        <time>2018-04-22T08:58:11Z</time>
      </trkpt>
      <trkpt lat="48.20796" lon="7.03574">
        <ele>637.01</ele>
        <time>2018-04-22T08:58:13Z</time>
      </trkpt>
      <trkpt lat="48.20786" lon="7.0357">
        <ele>637.01</ele>
        <time>2018-04-22T08:58:15Z</time>
      </trkpt>
      <trkpt lat="48.20776" lon="7.03567">
        <ele>636.53</ele>
        <time>2018-04-22T08:58:17Z</time>
      </trkpt>
      <trkpt lat="48.20766" lon="7.03562">
        <ele>637.01</ele>
        <time>2018-04-22T08:58:19Z</time>
      </trkpt>
      <trkpt lat="48.20757" lon="7.03558">
        <ele>636.53</ele>
        <time>2018-04-22T08:58:21Z</time>
      </trkpt>
      <trkpt lat="48.20747" lon="7.03554">
        <ele>636.53</ele>
        <time>2018-04-22T08:58:23Z</time>
      </trkpt>
      <trkpt lat="48.20737" lon="7.03551">
        <ele>637.01</ele>
        <time>2018-04-22T08:58:25Z</time>
      </trkpt>
      <trkpt lat="48.20726" lon="7.03546">
        <ele>636.53</ele>
        <time>2018-04-22T08:58:27Z</time>
      </trkpt>
      <trkpt lat="48.20714" lon="7.03541">
        <ele>635.57</ele>
        <time>2018-04-22T08:58:29Z</time>
      </trkpt>
      <trkpt lat="48.20703" lon="7.03535">
        <ele>634.61</ele>
        <time>2018-04-22T08:58:31Z</time>
      </trkpt>
      <trkpt lat="48.20692" lon="7.03527">
        <ele>633.65</ele>
        <time>2018-04-22T08:58:33Z</time>
      </trkpt>
      <trkpt lat="48.20679" lon="7.03519">
        <ele>633.65</ele>
        <time>2018-04-22T08:58:35Z</time>
      </trkpt>
      <trkpt lat="48.20667" lon="7.0351">
        <ele>632.68</ele>
        <time>2018-04-22T08:58:37Z</time>
      </trkpt>
      <trkpt lat="48.20653" lon="7.03501">
        <ele>632.2</ele>
        <time>2018-04-22T08:58:39Z</time>
      </trkpt>
      <trkpt lat="48.2064" lon="7.03491">
        <ele>631.72</ele>
        <time>2018-04-22T08:58:41Z</time>
      </trkpt>
      <trkpt lat="48.20627" lon="7.03482">
        <ele>631.24</ele>
        <time>2018-04-22T08:58:43Z</time>
      </trkpt>
      <trkpt lat="48.20613" lon="7.03472">
        <ele>629.8</ele>
        <time>2018-04-22T08:58:45Z</time>
      </trkpt>
      <trkpt lat="48.20598" lon="7.03462">
        <ele>628.84</ele>
        <time>2018-04-22T08:58:47Z</time>
      </trkpt>
      <trkpt lat="48.20585" lon="7.0345">
        <ele>628.36</ele>
        <time>2018-04-22T08:58:49Z</time>
      </trkpt>
      <trkpt lat="48.20574" lon="7.03437">
        <ele>628.84</ele>
        <time>2018-04-22T08:58:51Z</time>
      </trkpt>
      <trkpt lat="48.20564" lon="7.03425">
        <ele>628.36</ele>
        <time>2018-04-22T08:58:53Z</time>
      </trkpt>
      <trkpt lat="48.20555" lon="7.03415">
        <ele>628.84</ele>
        <time>2018-04-22T08:58:55Z</time>
      </trkpt>
      <trkpt lat="48.20547" lon="7.03407">
        <ele>629.32</ele>
        <time>2018-04-22T08:58:57Z</time>
      </trkpt>
      <trkpt lat="48.20539" lon="7.03399">
        <ele>629.32</ele>
        <time>2018-04-22T08:58:59Z</time>
      </trkpt>
      <trkpt lat="48.2053" lon="7.03391">
        <ele>629.8</ele>
        <time>2018-04-22T08:59:01Z</time>
      </trkpt>
      <trkpt lat="48.20521" lon="7.03385">
        <ele>629.8</ele>
        <time>2018-04-22T08:59:03Z</time>
      </trkpt>
      <trkpt lat="48.20511" lon="7.03378">
        <ele>629.8</ele>
        <time>2018-04-22T08:59:06Z</time>
      </trkpt>
      <trkpt lat="48.205" lon="7.0337">
        <ele>631.72</ele>
        <time>2018-04-22T08:59:09Z</time>
      </trkpt>
      <trkpt lat="48.2049" lon="7.0336">
        <ele>632.68</ele>
        <time>2018-04-22T08:59:12Z</time>
      </trkpt>
      <trkpt lat="48.20481" lon="7.03351">
        <ele>634.13</ele>
        <time>2018-04-22T08:59:15Z</time>
      </trkpt>
      <trkpt lat="48.20473" lon="7.03339">
        <ele>634.13</ele>
        <time>2018-04-22T08:59:18Z</time>
      </trkpt>
      <trkpt lat="48.20465" lon="7.03324">
        <ele>635.09</ele>
        <time>2018-04-22T08:59:21Z</time>
      </trkpt>
      <trkpt lat="48.20457" lon="7.03311">
        <ele>636.05</ele>
        <time>2018-04-22T08:59:24Z</time>
      </trkpt>
      <trkpt lat="48.20449" lon="7.03297">
        <ele>637.01</ele>
        <time>2018-04-22T08:59:27Z</time>
      </trkpt>
      <trkpt lat="48.2044" lon="7.03283">
        <ele>635.57</ele>
        <time>2018-04-22T08:59:30Z</time>
      </trkpt>
      <trkpt lat="48.20432" lon="7.03268">
        <ele>636.05</ele>
        <time>2018-04-22T08:59:33Z</time>
      </trkpt>
      <trkpt lat="48.20424" lon="7.03253">
        <ele>637.01</ele>
        <time>2018-04-22T08:59:36Z</time>
      </trkpt>
      <trkpt lat="48.20419" lon="7.03236">
        <ele>637.49</ele>
        <time>2018-04-22T08:59:39Z</time>
      </trkpt>
      <trkpt lat="48.20415" lon="7.03218">
        <ele>637.97</ele>
        <time>2018-04-22T08:59:42Z</time>
      </trkpt>
      <trkpt lat="48.20416" lon="7.032">
        <ele>637.97</ele>
        <time>2018-04-22T08:59:45Z</time>
      </trkpt>
      <trkpt lat="48.20418" lon="7.0318">
        <ele>637.49</ele>
        <time>2018-04-22T08:59:48Z</time>
      </trkpt>
      <trkpt lat="48.2042" lon="7.03164">
        <ele>636.53</ele>
        <time>2018-04-22T08:59:50Z</time>
      </trkpt>
      <trkpt lat="48.20423" lon="7.03147">
        <ele>636.05</ele>
        <time>2018-04-22T08:59:52Z</time>
      </trkpt>
      <trkpt lat="48.20426" lon="7.03128">
        <ele>635.09</ele>
        <time>2018-04-22T08:59:54Z</time>
      </trkpt>
      <trkpt lat="48.20428" lon="7.03109">
        <ele>634.61</ele>
        <time>2018-04-22T08:59:56Z</time>
      </trkpt>
      <trkpt lat="48.20431" lon="7.0309">
        <ele>634.61</ele>
        <time>2018-04-22T08:59:58Z</time>
      </trkpt>
      <trkpt lat="48.20432" lon="7.0307">
        <ele>633.65</ele>
        <time>2018-04-22T09:00:00Z</time>
      </trkpt>
      <trkpt lat="48.20433" lon="7.03051">
        <ele>634.13</ele>
        <time>2018-04-22T09:00:02Z</time>
      </trkpt>
      <trkpt lat="48.20435" lon="7.03032">
        <ele>633.65</ele>
        <time>2018-04-22T09:00:04Z</time>
      </trkpt>
      <trkpt lat="48.20437" lon="7.03012">
        <ele>633.17</ele>
        <time>2018-04-22T09:00:06Z</time>
      </trkpt>
      <trkpt lat="48.20439" lon="7.02991">
        <ele>630.76</ele>
        <time>2018-04-22T09:00:08Z</time>
      </trkpt>
      <trkpt lat="48.2044" lon="7.02976">
        <ele>630.28</ele>
        <time>2018-04-22T09:00:09Z</time>
      </trkpt>
      <trkpt lat="48.20441" lon="7.02962">
        <ele>629.32</ele>
        <time>2018-04-22T09:00:11Z</time>
      </trkpt>
      <trkpt lat="48.20444" lon="7.02939">
        <ele>627.4</ele>
        <time>2018-04-22T09:00:13Z</time>
      </trkpt>
      <trkpt lat="48.20446" lon="7.02918">
        <ele>625.47</ele>
        <time>2018-04-22T09:00:15Z</time>
      </trkpt>
      <trkpt lat="48.2045" lon="7.02896">
        <ele>624.03</ele>
        <time>2018-04-22T09:00:17Z</time>
      </trkpt>
      <trkpt lat="48.20455" lon="7.02871">
        <ele>621.15</ele>
        <time>2018-04-22T09:00:19Z</time>
      </trkpt>
      <trkpt lat="48.2046" lon="7.02858">
        <ele>620.19</ele>
        <time>2018-04-22T09:00:20Z</time>
      </trkpt>
      <trkpt lat="48.20466" lon="7.02845">
        <ele>618.75</ele>
        <time>2018-04-22T09:00:21Z</time>
      </trkpt>
      <trkpt lat="48.20472" lon="7.02832">
        <ele>617.78</ele>
        <time>2018-04-22T09:00:22Z</time>
      </trkpt>
      <trkpt lat="48.20477" lon="7.02818">
        <ele>616.34</ele>
        <time>2018-04-22T09:00:23Z</time>
      </trkpt>
      <trkpt lat="48.20481" lon="7.02802">
        <ele>615.86</ele>
        <time>2018-04-22T09:00:24Z</time>
      </trkpt>
      <trkpt lat="48.20486" lon="7.02785">
        <ele>614.9</ele>
        <time>2018-04-22T09:00:25Z</time>
      </trkpt>
      <trkpt lat="48.2049" lon="7.02768">
        <ele>613.94</ele>
        <time>2018-04-22T09:00:26Z</time>
      </trkpt>
      <trkpt lat="48.20493" lon="7.0275">
        <ele>612.98</ele>
        <time>2018-04-22T09:00:27Z</time>
      </trkpt>
      <trkpt lat="48.20497" lon="7.02732">
        <ele>612.5</ele>
        <time>2018-04-22T09:00:28Z</time>
      </trkpt>
      <trkpt lat="48.205" lon="7.02715">
        <ele>612.02</ele>
        <time>2018-04-22T09:00:29Z</time>
      </trkpt>
      <trkpt lat="48.20502" lon="7.02698">
        <ele>611.06</ele>
        <time>2018-04-22T09:00:30Z</time>
      </trkpt>
      <trkpt lat="48.20504" lon="7.0268">
        <ele>610.57</ele>
        <time>2018-04-22T09:00:31Z</time>
      </trkpt>
      <trkpt lat="48.20505" lon="7.02664">
        <ele>609.13</ele>
        <time>2018-04-22T09:00:32Z</time>
      </trkpt>
      <trkpt lat="48.20505" lon="7.02648">
        <ele>608.65</ele>
        <time>2018-04-22T09:00:33Z</time>
      </trkpt>
      <trkpt lat="48.20504" lon="7.02627">
        <ele>607.21</ele>
        <time>2018-04-22T09:00:34Z</time>
      </trkpt>
      <trkpt lat="48.20503" lon="7.02601">
        <ele>606.25</ele>
        <time>2018-04-22T09:00:36Z</time>
      </trkpt>
      <trkpt lat="48.20499" lon="7.0258">
        <ele>605.29</ele>
        <time>2018-04-22T09:00:38Z</time>
      </trkpt>
      <trkpt lat="48.20496" lon="7.02561">
        <ele>604.33</ele>
        <time>2018-04-22T09:00:40Z</time>
      </trkpt>
      <trkpt lat="48.20493" lon="7.02545">
        <ele>603.36</ele>
        <time>2018-04-22T09:00:43Z</time>
      </trkpt>
      <trkpt lat="48.20486" lon="7.02534">
        <ele>602.4</ele>
        <time>2018-04-22T09:00:46Z</time>
      </trkpt>
      <trkpt lat="48.20476" lon="7.02524">
        <ele>600.96</ele>
        <time>2018-04-22T09:00:49Z</time>
      </trkpt>
      <trkpt lat="48.20466" lon="7.02518">
        <ele>599.52</ele>
        <time>2018-04-22T09:00:51Z</time>
      </trkpt>
      <trkpt lat="48.20453" lon="7.02514">
        <ele>597.6</ele>
        <time>2018-04-22T09:00:53Z</time>
      </trkpt>
      <trkpt lat="48.20437" lon="7.02513">
        <ele>596.64</ele>
        <time>2018-04-22T09:00:55Z</time>
      </trkpt>
      <trkpt lat="48.20419" lon="7.02514">
        <ele>595.19</ele>
        <time>2018-04-22T09:00:57Z</time>
      </trkpt>
      <trkpt lat="48.2041" lon="7.02516">
        <ele>594.23</ele>
        <time>2018-04-22T09:00:58Z</time>
      </trkpt>
      <trkpt lat="48.20401" lon="7.02518">
        <ele>593.75</ele>
        <time>2018-04-22T09:00:59Z</time>
      </trkpt>
      <trkpt lat="48.20384" lon="7.02524">
        <ele>591.83</ele>
        <time>2018-04-22T09:01:01Z</time>
      </trkpt>
      <trkpt lat="48.20368" lon="7.02527">
        <ele>591.35</ele>
        <time>2018-04-22T09:01:03Z</time>
      </trkpt>
      <trkpt lat="48.20352" lon="7.02528">
        <ele>588.95</ele>
        <time>2018-04-22T09:01:05Z</time>
      </trkpt>
      <trkpt lat="48.20334" lon="7.02524">
        <ele>587.5</ele>
        <time>2018-04-22T09:01:07Z</time>
      </trkpt>
      <trkpt lat="48.20319" lon="7.02515">
        <ele>586.54</ele>
        <time>2018-04-22T09:01:09Z</time>
      </trkpt>
      <trkpt lat="48.20307" lon="7.02499">
        <ele>585.1</ele>
        <time>2018-04-22T09:01:11Z</time>
      </trkpt>
      <trkpt lat="48.203" lon="7.02476">
        <ele>585.1</ele>
        <time>2018-04-22T09:01:13Z</time>
      </trkpt>
      <trkpt lat="48.20297" lon="7.02458">
        <ele>587.02</ele>
        <time>2018-04-22T09:01:15Z</time>
      </trkpt>
      <trkpt lat="48.20298" lon="7.02444">
        <ele>588.46</ele>
        <time>2018-04-22T09:01:18Z</time>
      </trkpt>
      <trkpt lat="48.20303" lon="7.0243">
        <ele>589.43</ele>
        <time>2018-04-22T09:01:23Z</time>
      </trkpt>
      <trkpt lat="48.20302" lon="7.02412">
        <ele>590.87</ele>
        <time>2018-04-22T09:01:29Z</time>
      </trkpt>
      <trkpt lat="48.20296" lon="7.02398">
        <ele>591.83</ele>
        <time>2018-04-22T09:01:33Z</time>
      </trkpt>
      <trkpt lat="48.20292" lon="7.02383">
        <ele>591.83</ele>
        <time>2018-04-22T09:01:37Z</time>
      </trkpt>
      <trkpt lat="48.20298" lon="7.02366">
        <ele>592.31</ele>
        <time>2018-04-22T09:01:41Z</time>
      </trkpt>
      <trkpt lat="48.20304" lon="7.02355">
        <ele>592.31</ele>
        <time>2018-04-22T09:01:44Z</time>
      </trkpt>
      <trkpt lat="48.20313" lon="7.02343">
        <ele>592.79</ele>
        <time>2018-04-22T09:01:48Z</time>
      </trkpt>
      <trkpt lat="48.20323" lon="7.02334">
        <ele>593.27</ele>
        <time>2018-04-22T09:01:52Z</time>
      </trkpt>
      <trkpt lat="48.20332" lon="7.02325">
        <ele>594.23</ele>
        <time>2018-04-22T09:01:58Z</time>
      </trkpt>
      <trkpt lat="48.20341" lon="7.02316">
        <ele>595.19</ele>
        <time>2018-04-22T09:02:02Z</time>
      </trkpt>
      <trkpt lat="48.20353" lon="7.02305">
        <ele>595.19</ele>
        <time>2018-04-22T09:02:06Z</time>
      </trkpt>
      <trkpt lat="48.20362" lon="7.02292">
        <ele>594.23</ele>
        <time>2018-04-22T09:02:09Z</time>
      </trkpt>
      <trkpt lat="48.2037" lon="7.02281">
        <ele>593.75</ele>
        <time>2018-04-22T09:02:11Z</time>
      </trkpt>
      <trkpt lat="48.20377" lon="7.02267">
        <ele>593.27</ele>
        <time>2018-04-22T09:02:13Z</time>
      </trkpt>
      <trkpt lat="48.20387" lon="7.02252">
        <ele>592.31</ele>
        <time>2018-04-22T09:02:15Z</time>
      </trkpt>
      <trkpt lat="48.20398" lon="7.02236">
        <ele>590.87</ele>
        <time>2018-04-22T09:02:17Z</time>
      </trkpt>
      <trkpt lat="48.20411" lon="7.02222">
        <ele>589.91</ele>
        <time>2018-04-22T09:02:19Z</time>
      </trkpt>
      <trkpt lat="48.20424" lon="7.02207">
        <ele>588.95</ele>
        <time>2018-04-22T09:02:21Z</time>
      </trkpt>
      <trkpt lat="48.20435" lon="7.02193">
        <ele>588.95</ele>
        <time>2018-04-22T09:02:23Z</time>
      </trkpt>
      <trkpt lat="48.20447" lon="7.02179">
        <ele>587.98</ele>
        <time>2018-04-22T09:02:25Z</time>
      </trkpt>
      <trkpt lat="48.20459" lon="7.02159">
        <ele>586.06</ele>
        <time>2018-04-22T09:02:27Z</time>
      </trkpt>
      <trkpt lat="48.20469" lon="7.02135">
        <ele>586.06</ele>
        <time>2018-04-22T09:02:29Z</time>
      </trkpt>
      <trkpt lat="48.20477" lon="7.02111">
        <ele>585.1</ele>
        <time>2018-04-22T09:02:31Z</time>
      </trkpt>
      <trkpt lat="48.20486" lon="7.02088">
        <ele>584.62</ele>
        <time>2018-04-22T09:02:33Z</time>
      </trkpt>
      <trkpt lat="48.20492" lon="7.02063">
        <ele>583.66</ele>
        <time>2018-04-22T09:02:35Z</time>
      </trkpt>
      <trkpt lat="48.20494" lon="7.02037">
        <ele>583.18</ele>
        <time>2018-04-22T09:02:37Z</time>
      </trkpt>
      <trkpt lat="48.20493" lon="7.02012">
        <ele>583.18</ele>
        <time>2018-04-22T09:02:39Z</time>
      </trkpt>
      <trkpt lat="48.20492" lon="7.01992">
        <ele>583.66</ele>
        <time>2018-04-22T09:02:41Z</time>
      </trkpt>
      <trkpt lat="48.20488" lon="7.0197">
        <ele>584.14</ele>
        <time>2018-04-22T09:02:43Z</time>
      </trkpt>
      <trkpt lat="48.20484" lon="7.0195">
        <ele>584.14</ele>
        <time>2018-04-22T09:02:45Z</time>
      </trkpt>
      <trkpt lat="48.20479" lon="7.01931">
        <ele>583.66</ele>
        <time>2018-04-22T09:02:47Z</time>
      </trkpt>
      <trkpt lat="48.20475" lon="7.01911">
        <ele>584.14</ele>
        <time>2018-04-22T09:02:49Z</time>
      </trkpt>
      <trkpt lat="48.20471" lon="7.01891">
        <ele>583.66</ele>
        <time>2018-04-22T09:02:51Z</time>
      </trkpt>
      <trkpt lat="48.20466" lon="7.01872">
        <ele>583.18</ele>
        <time>2018-04-22T09:02:53Z</time>
      </trkpt>
      <trkpt lat="48.20464" lon="7.01854">
        <ele>582.22</ele>
        <time>2018-04-22T09:02:55Z</time>
      </trkpt>
      <trkpt lat="48.20464" lon="7.01837">
        <ele>580.77</ele>
        <time>2018-04-22T09:02:57Z</time>
      </trkpt>
      <trkpt lat="48.20467" lon="7.01824">
        <ele>581.25</ele>
        <time>2018-04-22T09:02:59Z</time>
      </trkpt>
      <trkpt lat="48.2048" lon="7.01814">
        <ele>580.29</ele>
        <time>2018-04-22T09:03:02Z</time>
      </trkpt>
      <trkpt lat="48.20494" lon="7.01809">
        <ele>580.77</ele>
        <time>2018-04-22T09:03:05Z</time>
      </trkpt>
      <trkpt lat="48.20503" lon="7.01803">
        <ele>581.25</ele>
        <time>2018-04-22T09:03:08Z</time>
      </trkpt>
      <trkpt lat="48.20518" lon="7.01791">
        <ele>581.25</ele>
        <time>2018-04-22T09:03:11Z</time>
      </trkpt>
      <trkpt lat="48.20531" lon="7.01779">
        <ele>581.25</ele>
        <time>2018-04-22T09:03:13Z</time>
      </trkpt>
      <trkpt lat="48.20542" lon="7.01768">
        <ele>582.22</ele>
        <time>2018-04-22T09:03:15Z</time>
      </trkpt>
      <trkpt lat="48.20552" lon="7.01755">
        <ele>582.22</ele>
        <time>2018-04-22T09:03:17Z</time>
      </trkpt>
      <trkpt lat="48.20561" lon="7.01746">
        <ele>582.7</ele>
        <time>2018-04-22T09:03:19Z</time>
      </trkpt>
      <trkpt lat="48.20572" lon="7.01732">
        <ele>583.18</ele>
        <time>2018-04-22T09:03:22Z</time>
      </trkpt>
      <trkpt lat="48.20579" lon="7.01722">
        <ele>584.62</ele>
        <time>2018-04-22T09:03:24Z</time>
      </trkpt>
      <trkpt lat="48.20588" lon="7.0171">
        <ele>585.1</ele>
        <time>2018-04-22T09:03:27Z</time>
      </trkpt>
      <trkpt lat="48.20595" lon="7.01696">
        <ele>585.58</ele>
        <time>2018-04-22T09:03:30Z</time>
      </trkpt>
      <trkpt lat="48.206" lon="7.01682">
        <ele>585.58</ele>
        <time>2018-04-22T09:03:33Z</time>
      </trkpt>
      <trkpt lat="48.20607" lon="7.01668">
        <ele>584.62</ele>
        <time>2018-04-22T09:03:36Z</time>
      </trkpt>
      <trkpt lat="48.20616" lon="7.01647">
        <ele>584.14</ele>
        <time>2018-04-22T09:03:39Z</time>
      </trkpt>
      <trkpt lat="48.20619" lon="7.01629">
        <ele>583.66</ele>
        <time>2018-04-22T09:03:41Z</time>
      </trkpt>
      <trkpt lat="48.20622" lon="7.01608">
        <ele>583.66</ele>
        <time>2018-04-22T09:03:43Z</time>
      </trkpt>
      <trkpt lat="48.20624" lon="7.01587">
        <ele>583.18</ele>
        <time>2018-04-22T09:03:45Z</time>
      </trkpt>
      <trkpt lat="48.20626" lon="7.01568">
        <ele>582.7</ele>
        <time>2018-04-22T09:03:47Z</time>
      </trkpt>
      <trkpt lat="48.2063" lon="7.01548">
        <ele>582.22</ele>
        <time>2018-04-22T09:03:49Z</time>
      </trkpt>
      <trkpt lat="48.20633" lon="7.01524">
        <ele>581.73</ele>
        <time>2018-04-22T09:03:51Z</time>
      </trkpt>
      <trkpt lat="48.20634" lon="7.01502">
        <ele>582.22</ele>
        <time>2018-04-22T09:03:53Z</time>
      </trkpt>
      <trkpt lat="48.20634" lon="7.01483">
        <ele>581.73</ele>
        <time>2018-04-22T09:03:55Z</time>
      </trkpt>
      <trkpt lat="48.20634" lon="7.01466">
        <ele>582.22</ele>
        <time>2018-04-22T09:03:57Z</time>
      </trkpt>
      <trkpt lat="48.20632" lon="7.01445">
        <ele>583.18</ele>
        <time>2018-04-22T09:04:00Z</time>
      </trkpt>
      <trkpt lat="48.20624" lon="7.01425">
        <ele>583.66</ele>
        <time>2018-04-22T09:04:03Z</time>
      </trkpt>
      <trkpt lat="48.20606" lon="7.01409">
        <ele>584.14</ele>
        <time>2018-04-22T09:04:05Z</time>
      </trkpt>
      <trkpt lat="48.20595" lon="7.01399">
        <ele>584.14</ele>
        <time>2018-04-22T09:04:07Z</time>
      </trkpt>
      <trkpt lat="48.20586" lon="7.01388">
        <ele>585.1</ele>
        <time>2018-04-22T09:04:10Z</time>
      </trkpt>
      <trkpt lat="48.20579" lon="7.01373">
        <ele>585.1</ele>
        <time>2018-04-22T09:04:13Z</time>
      </trkpt>
      <trkpt lat="48.20574" lon="7.01356">
        <ele>586.06</ele>
        <time>2018-04-22T09:04:16Z</time>
      </trkpt>
      <trkpt lat="48.2057" lon="7.01339">
        <ele>586.06</ele>
        <time>2018-04-22T09:04:19Z</time>
      </trkpt>
      <trkpt lat="48.20559" lon="7.01318">
        <ele>587.02</ele>
        <time>2018-04-22T09:04:22Z</time>
      </trkpt>
      <trkpt lat="48.20546" lon="7.01296">
        <ele>587.5</ele>
        <time>2018-04-22T09:04:25Z</time>
      </trkpt>
      <trkpt lat="48.2054" lon="7.0128">
        <ele>587.98</ele>
        <time>2018-04-22T09:04:28Z</time>
      </trkpt>
      <trkpt lat="48.20539" lon="7.01262">
        <ele>588.46</ele>
        <time>2018-04-22T09:04:32Z</time>
      </trkpt>
      <trkpt lat="48.20534" lon="7.01242">
        <ele>588.95</ele>
        <time>2018-04-22T09:04:35Z</time>
      </trkpt>
      <trkpt lat="48.20533" lon="7.01223">
        <ele>589.91</ele>
        <time>2018-04-22T09:04:38Z</time>
      </trkpt>
      <trkpt lat="48.20534" lon="7.01207">
        <ele>589.91</ele>
        <time>2018-04-22T09:04:41Z</time>
      </trkpt>
      <trkpt lat="48.20536" lon="7.01188">
        <ele>590.39</ele>
        <time>2018-04-22T09:04:44Z</time>
      </trkpt>
      <trkpt lat="48.20539" lon="7.0117">
        <ele>590.39</ele>
        <time>2018-04-22T09:04:47Z</time>
      </trkpt>
      <trkpt lat="48.20536" lon="7.01146">
        <ele>589.43</ele>
        <time>2018-04-22T09:04:50Z</time>
      </trkpt>
      <trkpt lat="48.20534" lon="7.01127">
        <ele>588.46</ele>
        <time>2018-04-22T09:04:52Z</time>
      </trkpt>
      <trkpt lat="48.20533" lon="7.01105">
        <ele>587.5</ele>
        <time>2018-04-22T09:04:54Z</time>
      </trkpt>
      <trkpt lat="48.20532" lon="7.01084">
        <ele>586.06</ele>
        <time>2018-04-22T09:04:56Z</time>
      </trkpt>
      <trkpt lat="48.20532" lon="7.01059">
        <ele>584.14</ele>
        <time>2018-04-22T09:04:58Z</time>
      </trkpt>
      <trkpt lat="48.20535" lon="7.01033">
        <ele>583.18</ele>
        <time>2018-04-22T09:05:00Z</time>
      </trkpt>
      <trkpt lat="48.20538" lon="7.01019">
        <ele>582.22</ele>
        <time>2018-04-22T09:05:01Z</time>
      </trkpt>
      <trkpt lat="48.20542" lon="7.01006">
        <ele>581.73</ele>
        <time>2018-04-22T09:05:02Z</time>
      </trkpt>
      <trkpt lat="48.20546" lon="7.00992">
        <ele>580.77</ele>
        <time>2018-04-22T09:05:03Z</time>
      </trkpt>
      <trkpt lat="48.20549" lon="7.00977">
        <ele>579.81</ele>
        <time>2018-04-22T09:05:04Z</time>
      </trkpt>
      <trkpt lat="48.20551" lon="7.00961">
        <ele>578.85</ele>
        <time>2018-04-22T09:05:05Z</time>
      </trkpt>
      <trkpt lat="48.20552" lon="7.00945">
        <ele>578.37</ele>
        <time>2018-04-22T09:05:06Z</time>
      </trkpt>
      <trkpt lat="48.20553" lon="7.0093">
        <ele>577.41</ele>
        <time>2018-04-22T09:05:07Z</time>
      </trkpt>
      <trkpt lat="48.20555" lon="7.00904">
        <ele>575.49</ele>
        <time>2018-04-22T09:05:09Z</time>
      </trkpt>
      <trkpt lat="48.2056" lon="7.00881">
        <ele>575.49</ele>
        <time>2018-04-22T09:05:11Z</time>
      </trkpt>
      <trkpt lat="48.20571" lon="7.0086">
        <ele>573.56</ele>
        <time>2018-04-22T09:05:13Z</time>
      </trkpt>
      <trkpt lat="48.20578" lon="7.00848">
        <ele>572.6</ele>
        <time>2018-04-22T09:05:14Z</time>
      </trkpt>
      <trkpt lat="48.20585" lon="7.00836">
        <ele>571.64</ele>
        <time>2018-04-22T09:05:15Z</time>
      </trkpt>
      <trkpt lat="48.20592" lon="7.00825">
        <ele>571.16</ele>
        <time>2018-04-22T09:05:16Z</time>
      </trkpt>
      <trkpt lat="48.206" lon="7.00814">
        <ele>570.68</ele>
        <time>2018-04-22T09:05:17Z</time>
      </trkpt>
      <trkpt lat="48.20608" lon="7.00802">
        <ele>569.72</ele>
        <time>2018-04-22T09:05:18Z</time>
      </trkpt>
      <trkpt lat="48.20615" lon="7.00792">
        <ele>569.72</ele>
        <time>2018-04-22T09:05:19Z</time>
      </trkpt>
      <trkpt lat="48.20625" lon="7.00784">
        <ele>568.76</ele>
        <time>2018-04-22T09:05:20Z</time>
      </trkpt>
      <trkpt lat="48.20635" lon="7.00778">
        <ele>568.76</ele>
        <time>2018-04-22T09:05:21Z</time>
      </trkpt>
      <trkpt lat="48.20653" lon="7.00767">
        <ele>569.24</ele>
        <time>2018-04-22T09:05:23Z</time>
      </trkpt>
      <trkpt lat="48.20669" lon="7.00754">
        <ele>567.32</ele>
        <time>2018-04-22T09:05:25Z</time>
      </trkpt>
      <trkpt lat="48.20677" lon="7.00745">
        <ele>566.83</ele>
        <time>2018-04-22T09:05:26Z</time>
      </trkpt>
      <trkpt lat="48.20685" lon="7.00737">
        <ele>566.83</ele>
        <time>2018-04-22T09:05:27Z</time>
      </trkpt>
      <trkpt lat="48.20692" lon="7.00728">
        <ele>566.35</ele>
        <time>2018-04-22T09:05:28Z</time>
      </trkpt>
      <trkpt lat="48.207" lon="7.00719">
        <ele>565.39</ele>
        <time>2018-04-22T09:05:29Z</time>
      </trkpt>
      <trkpt lat="48.20707" lon="7.0071">
        <ele>565.87</ele>
        <time>2018-04-22T09:05:30Z</time>
      </trkpt>
      <trkpt lat="48.20721" lon="7.00693">
        <ele>564.91</ele>
        <time>2018-04-22T09:05:32Z</time>
      </trkpt>
      <trkpt lat="48.20734" lon="7.00674">
        <ele>565.87</ele>
        <time>2018-04-22T09:05:34Z</time>
      </trkpt>
      <trkpt lat="48.20744" lon="7.00655">
        <ele>566.35</ele>
        <time>2018-04-22T09:05:36Z</time>
      </trkpt>
      <trkpt lat="48.20753" lon="7.00636">
        <ele>567.32</ele>
        <time>2018-04-22T09:05:38Z</time>
      </trkpt>
      <trkpt lat="48.2076" lon="7.00619">
        <ele>567.8</ele>
        <time>2018-04-22T09:05:40Z</time>
      </trkpt>
      <trkpt lat="48.20765" lon="7.00604">
        <ele>568.28</ele>
        <time>2018-04-22T09:05:42Z</time>
      </trkpt>
      <trkpt lat="48.2077" lon="7.00591">
        <ele>568.76</ele>
        <time>2018-04-22T09:05:44Z</time>
      </trkpt>
      <trkpt lat="48.20773" lon="7.00572">
        <ele>569.72</ele>
        <time>2018-04-22T09:05:47Z</time>
      </trkpt>
      <trkpt lat="48.20776" lon="7.00552">
        <ele>570.68</ele>
        <time>2018-04-22T09:05:50Z</time>
      </trkpt>
      <trkpt lat="48.20779" lon="7.00535">
        <ele>571.64</ele>
        <time>2018-04-22T09:05:53Z</time>
      </trkpt>
      <trkpt lat="48.2078" lon="7.00516">
        <ele>572.6</ele>
        <time>2018-04-22T09:05:56Z</time>
      </trkpt>
      <trkpt lat="48.20779" lon="7.00498">
        <ele>573.56</ele>
        <time>2018-04-22T09:05:59Z</time>
      </trkpt>
      <trkpt lat="48.20779" lon="7.00477">
        <ele>574.53</ele>
        <time>2018-04-22T09:06:03Z</time>
      </trkpt>
      <trkpt lat="48.20779" lon="7.0046">
        <ele>574.53</ele>
        <time>2018-04-22T09:06:06Z</time>
      </trkpt>
      <trkpt lat="48.20779" lon="7.00443">
        <ele>575.01</ele>
        <time>2018-04-22T09:06:09Z</time>
      </trkpt>
      <trkpt lat="48.20776" lon="7.00426">
        <ele>575.01</ele>
        <time>2018-04-22T09:06:12Z</time>
      </trkpt>
      <trkpt lat="48.20774" lon="7.00409">
        <ele>574.53</ele>
        <time>2018-04-22T09:06:15Z</time>
      </trkpt>
      <trkpt lat="48.20769" lon="7.00391">
        <ele>574.04</ele>
        <time>2018-04-22T09:06:18Z</time>
      </trkpt>
      <trkpt lat="48.20767" lon="7.00374">
        <ele>574.04</ele>
        <time>2018-04-22T09:06:20Z</time>
      </trkpt>
      <trkpt lat="48.20766" lon="7.00357">
        <ele>573.56</ele>
        <time>2018-04-22T09:06:22Z</time>
      </trkpt>
      <trkpt lat="48.20764" lon="7.00339">
        <ele>572.6</ele>
        <time>2018-04-22T09:06:24Z</time>
      </trkpt>
      <trkpt lat="48.2076" lon="7.00321">
        <ele>572.6</ele>
        <time>2018-04-22T09:06:26Z</time>
      </trkpt>
      <trkpt lat="48.20756" lon="7.00303">
        <ele>572.6</ele>
        <time>2018-04-22T09:06:28Z</time>
      </trkpt>
      <trkpt lat="48.20752" lon="7.00286">
        <ele>571.64</ele>
        <time>2018-04-22T09:06:30Z</time>
      </trkpt>
      <trkpt lat="48.20751" lon="7.00269">
        <ele>570.68</ele>
        <time>2018-04-22T09:06:32Z</time>
      </trkpt>
      <trkpt lat="48.20748" lon="7.00251">
        <ele>570.2</ele>
        <time>2018-04-22T09:06:34Z</time>
      </trkpt>
      <trkpt lat="48.20746" lon="7.00233">
        <ele>569.72</ele>
        <time>2018-04-22T09:06:36Z</time>
      </trkpt>
      <trkpt lat="48.20745" lon="7.00213">
        <ele>567.8</ele>
        <time>2018-04-22T09:06:38Z</time>
      </trkpt>
      <trkpt lat="48.20744" lon="7.00195">
        <ele>566.35</ele>
        <time>2018-04-22T09:06:40Z</time>
      </trkpt>
      <trkpt lat="48.20744" lon="7.00174">
        <ele>566.35</ele>
        <time>2018-04-22T09:06:42Z</time>
      </trkpt>
      <trkpt lat="48.20746" lon="7.0015">
        <ele>564.91</ele>
        <time>2018-04-22T09:06:44Z</time>
      </trkpt>
      <trkpt lat="48.2075" lon="7.00125">
        <ele>562.99</ele>
        <time>2018-04-22T09:06:46Z</time>
      </trkpt>
      <trkpt lat="48.20758" lon="7.00102">
        <ele>562.03</ele>
        <time>2018-04-22T09:06:48Z</time>
      </trkpt>
      <trkpt lat="48.20767" lon="7.0008">
        <ele>561.55</ele>
        <time>2018-04-22T09:06:50Z</time>
      </trkpt>
      <trkpt lat="48.20777" lon="7.00062">
        <ele>561.07</ele>
        <time>2018-04-22T09:06:52Z</time>
      </trkpt>
      <trkpt lat="48.2079" lon="7.00053">
        <ele>560.59</ele>
        <time>2018-04-22T09:06:54Z</time>
      </trkpt>
      <trkpt lat="48.20803" lon="7.0005">
        <ele>561.07</ele>
        <time>2018-04-22T09:06:56Z</time>
      </trkpt>
      <trkpt lat="48.20812" lon="7.00046">
        <ele>561.07</ele>
        <time>2018-04-22T09:06:58Z</time>
      </trkpt>
      <trkpt lat="48.20818" lon="7.00035">
        <ele>561.07</ele>
        <time>2018-04-22T09:07:00Z</time>
      </trkpt>
      <trkpt lat="48.20818" lon="7.00019">
        <ele>562.03</ele>
        <time>2018-04-22T09:07:04Z</time>
      </trkpt>
      <trkpt lat="48.20816" lon="7.00005">
        <ele>562.99</ele>
        <time>2018-04-22T09:07:08Z</time>
      </trkpt>
      <trkpt lat="48.20822" lon="6.99991">
        <ele>563.95</ele>
        <time>2018-04-22T09:07:14Z</time>
      </trkpt>
      <trkpt lat="48.20824" lon="6.99975">
        <ele>566.83</ele>
        <time>2018-04-22T09:07:21Z</time>
      </trkpt>
      <trkpt lat="48.20835" lon="6.99971">
        <ele>567.32</ele>
        <time>2018-04-22T09:07:25Z</time>
      </trkpt>
      <trkpt lat="48.20841" lon="6.9996">
        <ele>569.24</ele>
        <time>2018-04-22T09:07:32Z</time>
      </trkpt>
      <trkpt lat="48.20837" lon="6.99938">
        <ele>570.68</ele>
        <time>2018-04-22T09:07:41Z</time>
      </trkpt>
      <trkpt lat="48.20826" lon="6.99913">
        <ele>571.16</ele>
        <time>2018-04-22T09:17:10Z</time>
      </trkpt>
      <trkpt lat="48.20822" lon="6.99901">
        <ele>571.16</ele>
        <time>2018-04-22T09:17:40Z</time>
      </trkpt>
      <trkpt lat="48.20829" lon="6.99889">
        <ele>570.68</ele>
        <time>2018-04-22T09:17:47Z</time>
      </trkpt>
      <trkpt lat="48.20833" lon="6.99873">
        <ele>570.68</ele>
        <time>2018-04-22T09:17:53Z</time>
      </trkpt>
      <trkpt lat="48.20838" lon="6.99857">
        <ele>569.72</ele>
        <time>2018-04-22T09:17:58Z</time>
      </trkpt>
      <trkpt lat="48.20841" lon="6.99839">
        <ele>569.72</ele>
        <time>2018-04-22T09:18:02Z</time>
      </trkpt>
      <trkpt lat="48.20841" lon="6.99823">
        <ele>569.72</ele>
        <time>2018-04-22T09:18:05Z</time>
      </trkpt>
      <trkpt lat="48.20842" lon="6.99809">
        <ele>569.72</ele>
        <time>2018-04-22T09:18:08Z</time>
      </trkpt>
      <trkpt lat="48.2084" lon="6.9979">
        <ele>569.72</ele>
        <time>2018-04-22T09:18:12Z</time>
      </trkpt>
      <trkpt lat="48.2084" lon="6.99775">
        <ele>569.72</ele>
        <time>2018-04-22T09:18:15Z</time>
      </trkpt>
      <trkpt lat="48.2084" lon="6.99761">
        <ele>569.72</ele>
        <time>2018-04-22T09:18:18Z</time>
      </trkpt>
      <trkpt lat="48.20839" lon="6.99744">
        <ele>569.24</ele>
        <time>2018-04-22T09:18:21Z</time>
      </trkpt>
      <trkpt lat="48.20839" lon="6.99726">
        <ele>569.72</ele>
        <time>2018-04-22T09:18:24Z</time>
      </trkpt>
      <trkpt lat="48.20839" lon="6.99709">
        <ele>569.24</ele>
        <time>2018-04-22T09:18:27Z</time>
      </trkpt>
      <trkpt lat="48.20838" lon="6.99693">
        <ele>569.72</ele>
        <time>2018-04-22T09:18:30Z</time>
      </trkpt>
      <trkpt lat="48.20836" lon="6.99673">
        <ele>569.72</ele>
        <time>2018-04-22T09:18:34Z</time>
      </trkpt>
      <trkpt lat="48.20833" lon="6.99659">
        <ele>570.68</ele>
        <time>2018-04-22T09:18:37Z</time>
      </trkpt>
      <trkpt lat="48.20831" lon="6.99646">
        <ele>571.64</ele>
        <time>2018-04-22T09:18:40Z</time>
      </trkpt>
      <trkpt lat="48.20827" lon="6.99629">
        <ele>571.64</ele>
        <time>2018-04-22T09:18:44Z</time>
      </trkpt>
      <trkpt lat="48.20823" lon="6.99612">
        <ele>572.6</ele>
        <time>2018-04-22T09:18:48Z</time>
      </trkpt>
      <trkpt lat="48.20821" lon="6.99599">
        <ele>573.56</ele>
        <time>2018-04-22T09:18:51Z</time>
      </trkpt>
      <trkpt lat="48.2082" lon="6.99583">
        <ele>574.04</ele>
        <time>2018-04-22T09:18:55Z</time>
      </trkpt>
      <trkpt lat="48.2082" lon="6.99567">
        <ele>575.01</ele>
        <time>2018-04-22T09:19:00Z</time>
      </trkpt>
      <trkpt lat="48.2082" lon="6.99553">
        <ele>575.49</ele>
        <time>2018-04-22T09:19:04Z</time>
      </trkpt>
      <trkpt lat="48.2082" lon="6.99537">
        <ele>575.97</ele>
        <time>2018-04-22T09:19:08Z</time>
      </trkpt>
      <trkpt lat="48.2082" lon="6.99521">
        <ele>576.45</ele>
        <time>2018-04-22T09:19:12Z</time>
      </trkpt>
      <trkpt lat="48.20821" lon="6.99506">
        <ele>577.89</ele>
        <time>2018-04-22T09:19:16Z</time>
      </trkpt>
      <trkpt lat="48.20818" lon="6.99488">
        <ele>578.37</ele>
        <time>2018-04-22T09:19:20Z</time>
      </trkpt>
      <trkpt lat="48.20816" lon="6.99471">
        <ele>578.85</ele>
        <time>2018-04-22T09:19:24Z</time>
      </trkpt>
      <trkpt lat="48.20815" lon="6.99454">
        <ele>579.33</ele>
        <time>2018-04-22T09:19:28Z</time>
      </trkpt>
      <trkpt lat="48.20814" lon="6.99436">
        <ele>579.33</ele>
        <time>2018-04-22T09:19:32Z</time>
      </trkpt>
      <trkpt lat="48.20813" lon="6.99419">
        <ele>579.81</ele>
        <time>2018-04-22T09:19:36Z</time>
      </trkpt>
      <trkpt lat="48.20811" lon="6.994">
        <ele>580.29</ele>
        <time>2018-04-22T09:19:40Z</time>
      </trkpt>
      <trkpt lat="48.20809" lon="6.99384">
        <ele>580.77</ele>
        <time>2018-04-22T09:19:44Z</time>
      </trkpt>
      <trkpt lat="48.20806" lon="6.99366">
        <ele>581.73</ele>
        <time>2018-04-22T09:19:48Z</time>
      </trkpt>
      <trkpt lat="48.20804" lon="6.99348">
        <ele>581.25</ele>
        <time>2018-04-22T09:19:52Z</time>
      </trkpt>
      <trkpt lat="48.20805" lon="6.99334">
        <ele>581.25</ele>
        <time>2018-04-22T09:19:55Z</time>
      </trkpt>
      <trkpt lat="48.20804" lon="6.99319">
        <ele>581.25</ele>
        <time>2018-04-22T09:19:58Z</time>
      </trkpt>
      <trkpt lat="48.20802" lon="6.99301">
        <ele>580.77</ele>
        <time>2018-04-22T09:20:01Z</time>
      </trkpt>
      <trkpt lat="48.20798" lon="6.99282">
        <ele>580.77</ele>
        <time>2018-04-22T09:20:04Z</time>
      </trkpt>
      <trkpt lat="48.20793" lon="6.99263">
        <ele>580.29</ele>
        <time>2018-04-22T09:20:07Z</time>
      </trkpt>
      <trkpt lat="48.2079" lon="6.99248">
        <ele>580.29</ele>
        <time>2018-04-22T09:20:09Z</time>
      </trkpt>
      <trkpt lat="48.20789" lon="6.9923">
        <ele>579.81</ele>
        <time>2018-04-22T09:20:11Z</time>
      </trkpt>
      <trkpt lat="48.20793" lon="6.99212">
        <ele>579.81</ele>
        <time>2018-04-22T09:20:13Z</time>
      </trkpt>
      <trkpt lat="48.20801" lon="6.99199">
        <ele>578.85</ele>
        <time>2018-04-22T09:20:15Z</time>
      </trkpt>
      <trkpt lat="48.2081" lon="6.99184">
        <ele>578.37</ele>
        <time>2018-04-22T09:20:17Z</time>
      </trkpt>
      <trkpt lat="48.20819" lon="6.99167">
        <ele>577.89</ele>
        <time>2018-04-22T09:20:19Z</time>
      </trkpt>
      <trkpt lat="48.20829" lon="6.99152">
        <ele>576.93</ele>
        <time>2018-04-22T09:20:21Z</time>
      </trkpt>
      <trkpt lat="48.20839" lon="6.99138">
        <ele>576.93</ele>
        <time>2018-04-22T09:20:23Z</time>
      </trkpt>
      <trkpt lat="48.20848" lon="6.99127">
        <ele>577.89</ele>
        <time>2018-04-22T09:20:25Z</time>
      </trkpt>
      <trkpt lat="48.20857" lon="6.99113">
        <ele>576.93</ele>
        <time>2018-04-22T09:20:27Z</time>
      </trkpt>
      <trkpt lat="48.20866" lon="6.99101">
        <ele>577.89</ele>
        <time>2018-04-22T09:20:29Z</time>
      </trkpt>
      <trkpt lat="48.20878" lon="6.99096">
        <ele>577.89</ele>
        <time>2018-04-22T09:20:32Z</time>
      </trkpt>
      <trkpt lat="48.20892" lon="6.991">
        <ele>578.85</ele>
        <time>2018-04-22T09:20:35Z</time>
      </trkpt>
      <trkpt lat="48.20903" lon="6.99102">
        <ele>578.85</ele>
        <time>2018-04-22T09:20:37Z</time>
      </trkpt>
      <trkpt lat="48.20913" lon="6.99105">
        <ele>579.33</ele>
        <time>2018-04-22T09:20:39Z</time>
      </trkpt>
      <trkpt lat="48.20926" lon="6.99105">
        <ele>579.33</ele>
        <time>2018-04-22T09:20:42Z</time>
      </trkpt>
      <trkpt lat="48.20938" lon="6.991">
        <ele>580.29</ele>
        <time>2018-04-22T09:20:45Z</time>
      </trkpt>
      <trkpt lat="48.2095" lon="6.99091">
        <ele>579.81</ele>
        <time>2018-04-22T09:20:48Z</time>
      </trkpt>
      <trkpt lat="48.20957" lon="6.99079">
        <ele>579.81</ele>
        <time>2018-04-22T09:20:50Z</time>
      </trkpt>
      <trkpt lat="48.20963" lon="6.99066">
        <ele>579.33</ele>
        <time>2018-04-22T09:20:52Z</time>
      </trkpt>
      <trkpt lat="48.20968" lon="6.99053">
        <ele>580.29</ele>
        <time>2018-04-22T09:20:54Z</time>
      </trkpt>
      <trkpt lat="48.20974" lon="6.99038">
        <ele>580.29</ele>
        <time>2018-04-22T09:20:56Z</time>
      </trkpt>
      <trkpt lat="48.20978" lon="6.99023">
        <ele>579.81</ele>
        <time>2018-04-22T09:20:58Z</time>
      </trkpt>
      <trkpt lat="48.20983" lon="6.99007">
        <ele>579.81</ele>
        <time>2018-04-22T09:21:00Z</time>
      </trkpt>
      <trkpt lat="48.20988" lon="6.98992">
        <ele>579.81</ele>
        <time>2018-04-22T09:21:02Z</time>
      </trkpt>
      <trkpt lat="48.20994" lon="6.98978">
        <ele>578.85</ele>
        <time>2018-04-22T09:21:04Z</time>
      </trkpt>
      <trkpt lat="48.21001" lon="6.98964">
        <ele>579.33</ele>
        <time>2018-04-22T09:21:06Z</time>
      </trkpt>
      <trkpt lat="48.21009" lon="6.98953">
        <ele>579.33</ele>
        <time>2018-04-22T09:21:08Z</time>
      </trkpt>
      <trkpt lat="48.21017" lon="6.98941">
        <ele>579.81</ele>
        <time>2018-04-22T09:21:10Z</time>
      </trkpt>
      <trkpt lat="48.21027" lon="6.98929">
        <ele>580.29</ele>
        <time>2018-04-22T09:21:12Z</time>
      </trkpt>
      <trkpt lat="48.21036" lon="6.98919">
        <ele>580.29</ele>
        <time>2018-04-22T09:21:14Z</time>
      </trkpt>
      <trkpt lat="48.21044" lon="6.98908">
        <ele>581.73</ele>
        <time>2018-04-22T09:21:16Z</time>
      </trkpt>
      <trkpt lat="48.21052" lon="6.98891">
        <ele>582.22</ele>
        <time>2018-04-22T09:21:19Z</time>
      </trkpt>
      <trkpt lat="48.21059" lon="6.98873">
        <ele>583.18</ele>
        <time>2018-04-22T09:21:22Z</time>
      </trkpt>
      <trkpt lat="48.21063" lon="6.98857">
        <ele>582.7</ele>
        <time>2018-04-22T09:21:25Z</time>
      </trkpt>
      <trkpt lat="48.21067" lon="6.98843">
        <ele>583.66</ele>
        <time>2018-04-22T09:21:29Z</time>
      </trkpt>
      <trkpt lat="48.2107" lon="6.98825">
        <ele>583.66</ele>
        <time>2018-04-22T09:21:33Z</time>
      </trkpt>
      <trkpt lat="48.21071" lon="6.98809">
        <ele>584.14</ele>
        <time>2018-04-22T09:21:38Z</time>
      </trkpt>
      <trkpt lat="48.21071" lon="6.98794">
        <ele>584.62</ele>
        <time>2018-04-22T09:21:47Z</time>
      </trkpt>
      <trkpt lat="48.21069" lon="6.98776">
        <ele>585.1</ele>
        <time>2018-04-22T09:21:52Z</time>
      </trkpt>
      <trkpt lat="48.21068" lon="6.98761">
        <ele>585.1</ele>
        <time>2018-04-22T09:21:55Z</time>
      </trkpt>
      <trkpt lat="48.21065" lon="6.98741">
        <ele>586.06</ele>
        <time>2018-04-22T09:21:58Z</time>
      </trkpt>
      <trkpt lat="48.21063" lon="6.98721">
        <ele>585.58</ele>
        <time>2018-04-22T09:22:01Z</time>
      </trkpt>
      <trkpt lat="48.21062" lon="6.987">
        <ele>586.54</ele>
        <time>2018-04-22T09:22:04Z</time>
      </trkpt>
      <trkpt lat="48.21066" lon="6.98683">
        <ele>585.58</ele>
        <time>2018-04-22T09:22:07Z</time>
      </trkpt>
      <trkpt lat="48.21071" lon="6.98669">
        <ele>584.62</ele>
        <time>2018-04-22T09:22:09Z</time>
      </trkpt>
      <trkpt lat="48.21078" lon="6.98654">
        <ele>584.14</ele>
        <time>2018-04-22T09:22:11Z</time>
      </trkpt>
      <trkpt lat="48.21086" lon="6.98637">
        <ele>582.7</ele>
        <time>2018-04-22T09:22:13Z</time>
      </trkpt>
      <trkpt lat="48.21095" lon="6.9862">
        <ele>581.25</ele>
        <time>2018-04-22T09:22:15Z</time>
      </trkpt>
      <trkpt lat="48.21106" lon="6.98602">
        <ele>580.77</ele>
        <time>2018-04-22T09:22:17Z</time>
      </trkpt>
      <trkpt lat="48.21118" lon="6.98585">
        <ele>579.81</ele>
        <time>2018-04-22T09:22:19Z</time>
      </trkpt>
      <trkpt lat="48.21131" lon="6.98569">
        <ele>577.89</ele>
        <time>2018-04-22T09:22:21Z</time>
      </trkpt>
      <trkpt lat="48.21145" lon="6.98553">
        <ele>576.45</ele>
        <time>2018-04-22T09:22:23Z</time>
      </trkpt>
      <trkpt lat="48.21158" lon="6.98535">
        <ele>574.53</ele>
        <time>2018-04-22T09:22:25Z</time>
      </trkpt>
      <trkpt lat="48.21171" lon="6.98516">
        <ele>573.56</ele>
        <time>2018-04-22T09:22:27Z</time>
      </trkpt>
      <trkpt lat="48.21178" lon="6.98506">
        <ele>573.56</ele>
        <time>2018-04-22T09:22:28Z</time>
      </trkpt>
      <trkpt lat="48.21185" lon="6.98497">
        <ele>573.08</ele>
        <time>2018-04-22T09:22:29Z</time>
      </trkpt>
      <trkpt lat="48.21193" lon="6.98487">
        <ele>572.6</ele>
        <time>2018-04-22T09:22:30Z</time>
      </trkpt>
      <trkpt lat="48.21206" lon="6.9847">
        <ele>572.12</ele>
        <time>2018-04-22T09:22:32Z</time>
      </trkpt>
      <trkpt lat="48.21218" lon="6.98453">
        <ele>571.64</ele>
        <time>2018-04-22T09:22:34Z</time>
      </trkpt>
      <trkpt lat="48.21227" lon="6.98437">
        <ele>571.16</ele>
        <time>2018-04-22T09:22:36Z</time>
      </trkpt>
      <trkpt lat="48.21235" lon="6.98417">
        <ele>571.16</ele>
        <time>2018-04-22T09:22:38Z</time>
      </trkpt>
      <trkpt lat="48.21239" lon="6.98395">
        <ele>572.12</ele>
        <time>2018-04-22T09:22:40Z</time>
      </trkpt>
      <trkpt lat="48.21238" lon="6.98372">
        <ele>572.12</ele>
        <time>2018-04-22T09:22:42Z</time>
      </trkpt>
      <trkpt lat="48.21234" lon="6.98353">
        <ele>572.12</ele>
        <time>2018-04-22T09:22:44Z</time>
      </trkpt>
      <trkpt lat="48.21229" lon="6.98337">
        <ele>572.6</ele>
        <time>2018-04-22T09:22:46Z</time>
      </trkpt>
      <trkpt lat="48.21224" lon="6.98325">
        <ele>573.08</ele>
        <time>2018-04-22T09:22:48Z</time>
      </trkpt>
      <trkpt lat="48.21215" lon="6.98312">
        <ele>573.08</ele>
        <time>2018-04-22T09:22:51Z</time>
      </trkpt>
      <trkpt lat="48.21207" lon="6.98297">
        <ele>573.08</ele>
        <time>2018-04-22T09:22:54Z</time>
      </trkpt>
      <trkpt lat="48.21197" lon="6.98288">
        <ele>572.6</ele>
        <time>2018-04-22T09:22:57Z</time>
      </trkpt>
      <trkpt lat="48.21187" lon="6.98281">
        <ele>573.08</ele>
        <time>2018-04-22T09:23:00Z</time>
      </trkpt>
      <trkpt lat="48.21176" lon="6.98273">
        <ele>572.6</ele>
        <time>2018-04-22T09:23:03Z</time>
      </trkpt>
      <trkpt lat="48.21163" lon="6.98265">
        <ele>570.68</ele>
        <time>2018-04-22T09:23:06Z</time>
      </trkpt>
      <trkpt lat="48.21149" lon="6.98256">
        <ele>570.2</ele>
        <time>2018-04-22T09:23:08Z</time>
      </trkpt>
      <trkpt lat="48.21139" lon="6.98251">
        <ele>568.76</ele>
        <time>2018-04-22T09:23:09Z</time>
      </trkpt>
      <trkpt lat="48.21127" lon="6.98245">
        <ele>567.32</ele>
        <time>2018-04-22T09:23:10Z</time>
      </trkpt>
      <trkpt lat="48.21114" lon="6.98238">
        <ele>565.87</ele>
        <time>2018-04-22T09:23:11Z</time>
      </trkpt>
      <trkpt lat="48.21101" lon="6.98231">
        <ele>564.91</ele>
        <time>2018-04-22T09:23:12Z</time>
      </trkpt>
      <trkpt lat="48.2109" lon="6.98224">
        <ele>564.43</ele>
        <time>2018-04-22T09:23:13Z</time>
      </trkpt>
      <trkpt lat="48.2108" lon="6.98216">
        <ele>563.47</ele>
        <time>2018-04-22T09:23:14Z</time>
      </trkpt>
      <trkpt lat="48.2107" lon="6.98206">
        <ele>562.03</ele>
        <time>2018-04-22T09:23:15Z</time>
      </trkpt>
      <trkpt lat="48.2106" lon="6.98193">
        <ele>561.07</ele>
        <time>2018-04-22T09:23:16Z</time>
      </trkpt>
      <trkpt lat="48.21052" lon="6.9818">
        <ele>560.59</ele>
        <time>2018-04-22T09:23:17Z</time>
      </trkpt>
      <trkpt lat="48.21045" lon="6.98166">
        <ele>560.59</ele>
        <time>2018-04-22T09:23:18Z</time>
      </trkpt>
      <trkpt lat="48.21038" lon="6.98153">
        <ele>559.62</ele>
        <time>2018-04-22T09:23:19Z</time>
      </trkpt>
      <trkpt lat="48.21032" lon="6.9814">
        <ele>559.14</ele>
        <time>2018-04-22T09:23:20Z</time>
      </trkpt>
      <trkpt lat="48.21026" lon="6.98127">
        <ele>558.18</ele>
        <time>2018-04-22T09:23:21Z</time>
      </trkpt>
      <trkpt lat="48.2102" lon="6.98113">
        <ele>557.7</ele>
        <time>2018-04-22T09:23:22Z</time>
      </trkpt>
      <trkpt lat="48.21016" lon="6.98099">
        <ele>555.78</ele>
        <time>2018-04-22T09:23:23Z</time>
      </trkpt>
      <trkpt lat="48.21012" lon="6.98083">
        <ele>555.3</ele>
        <time>2018-04-22T09:23:24Z</time>
      </trkpt>
      <trkpt lat="48.21009" lon="6.98067">
        <ele>554.34</ele>
        <time>2018-04-22T09:23:25Z</time>
      </trkpt>
      <trkpt lat="48.21005" lon="6.9805">
        <ele>552.9</ele>
        <time>2018-04-22T09:23:26Z</time>
      </trkpt>
      <trkpt lat="48.21" lon="6.98033">
        <ele>551.45</ele>
        <time>2018-04-22T09:23:27Z</time>
      </trkpt>
      <trkpt lat="48.20996" lon="6.98016">
        <ele>550.01</ele>
        <time>2018-04-22T09:23:28Z</time>
      </trkpt>
      <trkpt lat="48.20991" lon="6.98">
        <ele>548.57</ele>
        <time>2018-04-22T09:23:29Z</time>
      </trkpt>
      <trkpt lat="48.20987" lon="6.97984">
        <ele>546.65</ele>
        <time>2018-04-22T09:23:30Z</time>
      </trkpt>
      <trkpt lat="48.20982" lon="6.97968">
        <ele>545.69</ele>
        <time>2018-04-22T09:23:31Z</time>
      </trkpt>
      <trkpt lat="48.20978" lon="6.97952">
        <ele>544.24</ele>
        <time>2018-04-22T09:23:32Z</time>
      </trkpt>
      <trkpt lat="48.20974" lon="6.97937">
        <ele>543.28</ele>
        <time>2018-04-22T09:23:33Z</time>
      </trkpt>
      <trkpt lat="48.20969" lon="6.97921">
        <ele>542.8</ele>
        <time>2018-04-22T09:23:34Z</time>
      </trkpt>
      <trkpt lat="48.20964" lon="6.97906">
        <ele>542.8</ele>
        <time>2018-04-22T09:23:35Z</time>
      </trkpt>
      <trkpt lat="48.20958" lon="6.97892">
        <ele>541.84</ele>
        <time>2018-04-22T09:23:36Z</time>
      </trkpt>
      <trkpt lat="48.20951" lon="6.97879">
        <ele>541.36</ele>
        <time>2018-04-22T09:23:37Z</time>
      </trkpt>
      <trkpt lat="48.20944" lon="6.97865">
        <ele>540.88</ele>
        <time>2018-04-22T09:23:38Z</time>
      </trkpt>
      <trkpt lat="48.20937" lon="6.97852">
        <ele>539.92</ele>
        <time>2018-04-22T09:23:39Z</time>
      </trkpt>
      <trkpt lat="48.2093" lon="6.97838">
        <ele>539.44</ele>
        <time>2018-04-22T09:23:40Z</time>
      </trkpt>
      <trkpt lat="48.20923" lon="6.97824">
        <ele>538.96</ele>
        <time>2018-04-22T09:23:41Z</time>
      </trkpt>
      <trkpt lat="48.20916" lon="6.97811">
        <ele>538.96</ele>
        <time>2018-04-22T09:23:42Z</time>
      </trkpt>
      <trkpt lat="48.20909" lon="6.97798">
        <ele>538.96</ele>
        <time>2018-04-22T09:23:43Z</time>
      </trkpt>
      <trkpt lat="48.20902" lon="6.97785">
        <ele>538.48</ele>
        <time>2018-04-22T09:23:44Z</time>
      </trkpt>
      <trkpt lat="48.20896" lon="6.97772">
        <ele>537.99</ele>
        <time>2018-04-22T09:23:45Z</time>
      </trkpt>
      <trkpt lat="48.20891" lon="6.97759">
        <ele>537.99</ele>
        <time>2018-04-22T09:23:46Z</time>
      </trkpt>
      <trkpt lat="48.20887" lon="6.97746">
        <ele>537.99</ele>
        <time>2018-04-22T09:23:47Z</time>
      </trkpt>
      <trkpt lat="48.20884" lon="6.97732">
        <ele>537.51</ele>
        <time>2018-04-22T09:23:48Z</time>
      </trkpt>
      <trkpt lat="48.20882" lon="6.97718">
        <ele>536.55</ele>
        <time>2018-04-22T09:23:49Z</time>
      </trkpt>
      <trkpt lat="48.20881" lon="6.97703">
        <ele>535.59</ele>
        <time>2018-04-22T09:23:50Z</time>
      </trkpt>
      <trkpt lat="48.20881" lon="6.97688">
        <ele>534.15</ele>
        <time>2018-04-22T09:23:51Z</time>
      </trkpt>
      <trkpt lat="48.2088" lon="6.97671">
        <ele>532.71</ele>
        <time>2018-04-22T09:23:52Z</time>
      </trkpt>
      <trkpt lat="48.2088" lon="6.97655">
        <ele>531.75</ele>
        <time>2018-04-22T09:23:53Z</time>
      </trkpt>
      <trkpt lat="48.2088" lon="6.97641">
        <ele>531.27</ele>
        <time>2018-04-22T09:23:54Z</time>
      </trkpt>
      <trkpt lat="48.20879" lon="6.97625">
        <ele>529.34</ele>
        <time>2018-04-22T09:23:55Z</time>
      </trkpt>
      <trkpt lat="48.2088" lon="6.9761">
        <ele>528.86</ele>
        <time>2018-04-22T09:23:56Z</time>
      </trkpt>
      <trkpt lat="48.2088" lon="6.97595">
        <ele>528.38</ele>
        <time>2018-04-22T09:23:57Z</time>
      </trkpt>
      <trkpt lat="48.20882" lon="6.97581">
        <ele>526.94</ele>
        <time>2018-04-22T09:23:58Z</time>
      </trkpt>
      <trkpt lat="48.20884" lon="6.97566">
        <ele>525.5</ele>
        <time>2018-04-22T09:23:59Z</time>
      </trkpt>
      <trkpt lat="48.20886" lon="6.9755">
        <ele>524.54</ele>
        <time>2018-04-22T09:24:00Z</time>
      </trkpt>
      <trkpt lat="48.20887" lon="6.97534">
        <ele>523.58</ele>
        <time>2018-04-22T09:24:01Z</time>
      </trkpt>
      <trkpt lat="48.20887" lon="6.97517">
        <ele>522.61</ele>
        <time>2018-04-22T09:24:02Z</time>
      </trkpt>
      <trkpt lat="48.20888" lon="6.97501">
        <ele>521.65</ele>
        <time>2018-04-22T09:24:03Z</time>
      </trkpt>
      <trkpt lat="48.20888" lon="6.97487">
        <ele>521.17</ele>
        <time>2018-04-22T09:24:04Z</time>
      </trkpt>
      <trkpt lat="48.20888" lon="6.97464">
        <ele>519.73</ele>
        <time>2018-04-22T09:24:06Z</time>
      </trkpt>
      <trkpt lat="48.20888" lon="6.97443">
        <ele>518.77</ele>
        <time>2018-04-22T09:24:08Z</time>
      </trkpt>
      <trkpt lat="48.20891" lon="6.97424">
        <ele>517.33</ele>
        <time>2018-04-22T09:24:10Z</time>
      </trkpt>
      <trkpt lat="48.20898" lon="6.97416">
        <ele>517.33</ele>
        <time>2018-04-22T09:24:12Z</time>
      </trkpt>
      <trkpt lat="48.20911" lon="6.97421">
        <ele>517.33</ele>
        <time>2018-04-22T09:24:14Z</time>
      </trkpt>
      <trkpt lat="48.20924" lon="6.97425">
        <ele>517.33</ele>
        <time>2018-04-22T09:24:16Z</time>
      </trkpt>
      <trkpt lat="48.20938" lon="6.9743">
        <ele>517.81</ele>
        <time>2018-04-22T09:24:18Z</time>
      </trkpt>
      <trkpt lat="48.20954" lon="6.97433">
        <ele>517.33</ele>
        <time>2018-04-22T09:24:20Z</time>
      </trkpt>
      <trkpt lat="48.20969" lon="6.97428">
        <ele>516.37</ele>
        <time>2018-04-22T09:24:22Z</time>
      </trkpt>
      <trkpt lat="48.20982" lon="6.97417">
        <ele>515.88</ele>
        <time>2018-04-22T09:24:24Z</time>
      </trkpt>
      <trkpt lat="48.20995" lon="6.97402">
        <ele>515.4</ele>
        <time>2018-04-22T09:24:26Z</time>
      </trkpt>
      <trkpt lat="48.21006" lon="6.97384">
        <ele>515.4</ele>
        <time>2018-04-22T09:24:28Z</time>
      </trkpt>
      <trkpt lat="48.21014" lon="6.97365">
        <ele>513.48</ele>
        <time>2018-04-22T09:24:30Z</time>
      </trkpt>
      <trkpt lat="48.21021" lon="6.97345">
        <ele>513.48</ele>
        <time>2018-04-22T09:24:32Z</time>
      </trkpt>
      <trkpt lat="48.21028" lon="6.97325">
        <ele>513</ele>
        <time>2018-04-22T09:24:34Z</time>
      </trkpt>
      <trkpt lat="48.21034" lon="6.97303">
        <ele>512.52</ele>
        <time>2018-04-22T09:24:36Z</time>
      </trkpt>
      <trkpt lat="48.21042" lon="6.97282">
        <ele>512.52</ele>
        <time>2018-04-22T09:24:38Z</time>
      </trkpt>
      <trkpt lat="48.2105" lon="6.97261">
        <ele>512.52</ele>
        <time>2018-04-22T09:24:40Z</time>
      </trkpt>
      <trkpt lat="48.2106" lon="6.97242">
        <ele>512.52</ele>
        <time>2018-04-22T09:24:42Z</time>
      </trkpt>
      <trkpt lat="48.21068" lon="6.97223">
        <ele>512.04</ele>
        <time>2018-04-22T09:24:44Z</time>
      </trkpt>
      <trkpt lat="48.21074" lon="6.97203">
        <ele>512.52</ele>
        <time>2018-04-22T09:24:46Z</time>
      </trkpt>
      <trkpt lat="48.21078" lon="6.97184">
        <ele>512.04</ele>
        <time>2018-04-22T09:24:48Z</time>
      </trkpt>
      <trkpt lat="48.21083" lon="6.97164">
        <ele>511.56</ele>
        <time>2018-04-22T09:24:50Z</time>
      </trkpt>
      <trkpt lat="48.21092" lon="6.97148">
        <ele>511.08</ele>
        <time>2018-04-22T09:24:52Z</time>
      </trkpt>
      <trkpt lat="48.21104" lon="6.97133">
        <ele>510.12</ele>
        <time>2018-04-22T09:24:54Z</time>
      </trkpt>
      <trkpt lat="48.21116" lon="6.97117">
        <ele>509.16</ele>
        <time>2018-04-22T09:24:56Z</time>
      </trkpt>
      <trkpt lat="48.21128" lon="6.97103">
        <ele>508.19</ele>
        <time>2018-04-22T09:24:58Z</time>
      </trkpt>
      <trkpt lat="48.21142" lon="6.9709">
        <ele>507.71</ele>
        <time>2018-04-22T09:25:00Z</time>
      </trkpt>
      <trkpt lat="48.21156" lon="6.9708">
        <ele>507.23</ele>
        <time>2018-04-22T09:25:02Z</time>
      </trkpt>
      <trkpt lat="48.21171" lon="6.97068">
        <ele>507.23</ele>
        <time>2018-04-22T09:25:04Z</time>
      </trkpt>
      <trkpt lat="48.21185" lon="6.97054">
        <ele>506.75</ele>
        <time>2018-04-22T09:25:06Z</time>
      </trkpt>
      <trkpt lat="48.21197" lon="6.97036">
        <ele>505.79</ele>
        <time>2018-04-22T09:25:08Z</time>
      </trkpt>
      <trkpt lat="48.21205" lon="6.97016">
        <ele>505.31</ele>
        <time>2018-04-22T09:25:10Z</time>
      </trkpt>
      <trkpt lat="48.21211" lon="6.96993">
        <ele>504.83</ele>
        <time>2018-04-22T09:25:12Z</time>
      </trkpt>
      <trkpt lat="48.21217" lon="6.9697">
        <ele>505.31</ele>
        <time>2018-04-22T09:25:14Z</time>
      </trkpt>
      <trkpt lat="48.21222" lon="6.96948">
        <ele>504.83</ele>
        <time>2018-04-22T09:25:16Z</time>
      </trkpt>
      <trkpt lat="48.21227" lon="6.96924">
        <ele>504.35</ele>
        <time>2018-04-22T09:25:18Z</time>
      </trkpt>
      <trkpt lat="48.21233" lon="6.96901">
        <ele>503.87</ele>
        <time>2018-04-22T09:25:20Z</time>
      </trkpt>
      <trkpt lat="48.21241" lon="6.96881">
        <ele>504.35</ele>
        <time>2018-04-22T09:25:22Z</time>
      </trkpt>
      <trkpt lat="48.21248" lon="6.96862">
        <ele>502.91</ele>
        <time>2018-04-22T09:25:24Z</time>
      </trkpt>
      <trkpt lat="48.21255" lon="6.96843">
        <ele>502.91</ele>
        <time>2018-04-22T09:25:26Z</time>
      </trkpt>
      <trkpt lat="48.21262" lon="6.96824">
        <ele>502.91</ele>
        <time>2018-04-22T09:25:28Z</time>
      </trkpt>
      <trkpt lat="48.2127" lon="6.96807">
        <ele>502.91</ele>
        <time>2018-04-22T09:25:30Z</time>
      </trkpt>
      <trkpt lat="48.21278" lon="6.96788">
        <ele>501.95</ele>
        <time>2018-04-22T09:25:32Z</time>
      </trkpt>
      <trkpt lat="48.21286" lon="6.96769">
        <ele>501.46</ele>
        <time>2018-04-22T09:25:34Z</time>
      </trkpt>
      <trkpt lat="48.21295" lon="6.96749">
        <ele>500.98</ele>
        <time>2018-04-22T09:25:36Z</time>
      </trkpt>
      <trkpt lat="48.21304" lon="6.96729">
        <ele>499.54</ele>
        <time>2018-04-22T09:25:38Z</time>
      </trkpt>
      <trkpt lat="48.21314" lon="6.96709">
        <ele>498.58</ele>
        <time>2018-04-22T09:25:40Z</time>
      </trkpt>
      <trkpt lat="48.21322" lon="6.96686">
        <ele>497.62</ele>
        <time>2018-04-22T09:25:42Z</time>
      </trkpt>
      <trkpt lat="48.2133" lon="6.96661">
        <ele>495.7</ele>
        <time>2018-04-22T09:25:44Z</time>
      </trkpt>
      <trkpt lat="48.21335" lon="6.96649">
        <ele>494.74</ele>
        <time>2018-04-22T09:25:45Z</time>
      </trkpt>
      <trkpt lat="48.21341" lon="6.96638">
        <ele>494.74</ele>
        <time>2018-04-22T09:25:46Z</time>
      </trkpt>
      <trkpt lat="48.21348" lon="6.96628">
        <ele>493.77</ele>
        <time>2018-04-22T09:25:47Z</time>
      </trkpt>
      <trkpt lat="48.21356" lon="6.96619">
        <ele>492.81</ele>
        <time>2018-04-22T09:25:48Z</time>
      </trkpt>
      <trkpt lat="48.21364" lon="6.9661">
        <ele>490.89</ele>
        <time>2018-04-22T09:25:49Z</time>
      </trkpt>
      <trkpt lat="48.21373" lon="6.96603">
        <ele>490.41</ele>
        <time>2018-04-22T09:25:50Z</time>
      </trkpt>
      <trkpt lat="48.21381" lon="6.96596">
        <ele>489.93</ele>
        <time>2018-04-22T09:25:51Z</time>
      </trkpt>
      <trkpt lat="48.21389" lon="6.96589">
        <ele>489.45</ele>
        <time>2018-04-22T09:25:52Z</time>
      </trkpt>
      <trkpt lat="48.21398" lon="6.96582">
        <ele>488.01</ele>
        <time>2018-04-22T09:25:53Z</time>
      </trkpt>
      <trkpt lat="48.21407" lon="6.96575">
        <ele>487.05</ele>
        <time>2018-04-22T09:25:54Z</time>
      </trkpt>
      <trkpt lat="48.21417" lon="6.96568">
        <ele>486.08</ele>
        <time>2018-04-22T09:25:55Z</time>
      </trkpt>
      <trkpt lat="48.21425" lon="6.9656">
        <ele>486.08</ele>
        <time>2018-04-22T09:25:56Z</time>
      </trkpt>
      <trkpt lat="48.21433" lon="6.96552">
        <ele>486.08</ele>
        <time>2018-04-22T09:25:57Z</time>
      </trkpt>
      <trkpt lat="48.21448" lon="6.96537">
        <ele>483.68</ele>
        <time>2018-04-22T09:25:59Z</time>
      </trkpt>
      <trkpt lat="48.21462" lon="6.96521">
        <ele>481.76</ele>
        <time>2018-04-22T09:26:01Z</time>
      </trkpt>
      <trkpt lat="48.21475" lon="6.96505">
        <ele>481.28</ele>
        <time>2018-04-22T09:26:03Z</time>
      </trkpt>
      <trkpt lat="48.21486" lon="6.96492">
        <ele>480.32</ele>
        <time>2018-04-22T09:26:05Z</time>
      </trkpt>
      <trkpt lat="48.21496" lon="6.96481">
        <ele>479.35</ele>
        <time>2018-04-22T09:26:07Z</time>
      </trkpt>
      <trkpt lat="48.21507" lon="6.96466">
        <ele>477.91</ele>
        <time>2018-04-22T09:26:09Z</time>
      </trkpt>
      <trkpt lat="48.21515" lon="6.96453">
        <ele>476.47</ele>
        <time>2018-04-22T09:26:11Z</time>
      </trkpt>
      <trkpt lat="48.21524" lon="6.9644">
        <ele>475.51</ele>
        <time>2018-04-22T09:26:13Z</time>
      </trkpt>
      <trkpt lat="48.21536" lon="6.96426">
        <ele>474.55</ele>
        <time>2018-04-22T09:26:15Z</time>
      </trkpt>
      <trkpt lat="48.2155" lon="6.96409">
        <ele>472.63</ele>
        <time>2018-04-22T09:26:17Z</time>
      </trkpt>
      <trkpt lat="48.21565" lon="6.9639">
        <ele>470.7</ele>
        <time>2018-04-22T09:26:19Z</time>
      </trkpt>
      <trkpt lat="48.21573" lon="6.96381">
        <ele>469.74</ele>
        <time>2018-04-22T09:26:20Z</time>
      </trkpt>
      <trkpt lat="48.21581" lon="6.96372">
        <ele>469.26</ele>
        <time>2018-04-22T09:26:21Z</time>
      </trkpt>
      <trkpt lat="48.21589" lon="6.96364">
        <ele>468.78</ele>
        <time>2018-04-22T09:26:22Z</time>
      </trkpt>
      <trkpt lat="48.21598" lon="6.96355">
        <ele>468.3</ele>
        <time>2018-04-22T09:26:23Z</time>
      </trkpt>
      <trkpt lat="48.21606" lon="6.96345">
        <ele>466.38</ele>
        <time>2018-04-22T09:26:24Z</time>
      </trkpt>
      <trkpt lat="48.21615" lon="6.96335">
        <ele>465.42</ele>
        <time>2018-04-22T09:26:25Z</time>
      </trkpt>
      <trkpt lat="48.21623" lon="6.96325">
        <ele>463.97</ele>
        <time>2018-04-22T09:26:26Z</time>
      </trkpt>
      <trkpt lat="48.21632" lon="6.96314">
        <ele>463.49</ele>
        <time>2018-04-22T09:26:27Z</time>
      </trkpt>
      <trkpt lat="48.2164" lon="6.96303">
        <ele>462.53</ele>
        <time>2018-04-22T09:26:28Z</time>
      </trkpt>
      <trkpt lat="48.21648" lon="6.96294">
        <ele>461.57</ele>
        <time>2018-04-22T09:26:29Z</time>
      </trkpt>
      <trkpt lat="48.21656" lon="6.96284">
        <ele>460.61</ele>
        <time>2018-04-22T09:26:30Z</time>
      </trkpt>
      <trkpt lat="48.21663" lon="6.96276">
        <ele>459.65</ele>
        <time>2018-04-22T09:26:31Z</time>
      </trkpt>
      <trkpt lat="48.21677" lon="6.96261">
        <ele>457.72</ele>
        <time>2018-04-22T09:26:33Z</time>
      </trkpt>
      <trkpt lat="48.2169" lon="6.96247">
        <ele>456.28</ele>
        <time>2018-04-22T09:26:35Z</time>
      </trkpt>
      <trkpt lat="48.21705" lon="6.96235">
        <ele>453.4</ele>
        <time>2018-04-22T09:26:37Z</time>
      </trkpt>
      <trkpt lat="48.21714" lon="6.9623">
        <ele>451.96</ele>
        <time>2018-04-22T09:26:38Z</time>
      </trkpt>
      <trkpt lat="48.21724" lon="6.96225">
        <ele>450.52</ele>
        <time>2018-04-22T09:26:39Z</time>
      </trkpt>
      <trkpt lat="48.21734" lon="6.96219">
        <ele>449.07</ele>
        <time>2018-04-22T09:26:40Z</time>
      </trkpt>
      <trkpt lat="48.21744" lon="6.96214">
        <ele>448.59</ele>
        <time>2018-04-22T09:26:41Z</time>
      </trkpt>
      <trkpt lat="48.21754" lon="6.96208">
        <ele>447.63</ele>
        <time>2018-04-22T09:26:42Z</time>
      </trkpt>
      <trkpt lat="48.21763" lon="6.96202">
        <ele>447.15</ele>
        <time>2018-04-22T09:26:43Z</time>
      </trkpt>
      <trkpt lat="48.21773" lon="6.96196">
        <ele>447.15</ele>
        <time>2018-04-22T09:26:44Z</time>
      </trkpt>
      <trkpt lat="48.21788" lon="6.96189">
        <ele>446.19</ele>
        <time>2018-04-22T09:26:46Z</time>
      </trkpt>
      <trkpt lat="48.218" lon="6.96184">
        <ele>445.71</ele>
        <time>2018-04-22T09:26:48Z</time>
      </trkpt>
      <trkpt lat="48.21811" lon="6.96179">
        <ele>444.75</ele>
        <time>2018-04-22T09:26:51Z</time>
      </trkpt>
      <trkpt lat="48.21819" lon="6.96166">
        <ele>442.82</ele>
        <time>2018-04-22T09:26:54Z</time>
      </trkpt>
      <trkpt lat="48.2182" lon="6.96147">
        <ele>442.82</ele>
        <time>2018-04-22T09:26:57Z</time>
      </trkpt>
      <trkpt lat="48.21818" lon="6.96127">
        <ele>442.82</ele>
        <time>2018-04-22T09:27:00Z</time>
      </trkpt>
      <trkpt lat="48.21817" lon="6.96112">
        <ele>441.86</ele>
        <time>2018-04-22T09:27:02Z</time>
      </trkpt>
      <trkpt lat="48.21815" lon="6.96095">
        <ele>441.38</ele>
        <time>2018-04-22T09:27:04Z</time>
      </trkpt>
      <trkpt lat="48.21813" lon="6.9608">
        <ele>440.9</ele>
        <time>2018-04-22T09:27:06Z</time>
      </trkpt>
      <trkpt lat="48.21812" lon="6.96062">
        <ele>440.9</ele>
        <time>2018-04-22T09:27:09Z</time>
      </trkpt>
      <trkpt lat="48.21809" lon="6.96045">
        <ele>439.94</ele>
        <time>2018-04-22T09:27:14Z</time>
      </trkpt>
      <trkpt lat="48.21807" lon="6.9603">
        <ele>439.94</ele>
        <time>2018-04-22T09:27:17Z</time>
      </trkpt>
      <trkpt lat="48.21804" lon="6.96011">
        <ele>439.46</ele>
        <time>2018-04-22T09:27:20Z</time>
      </trkpt>
      <trkpt lat="48.21801" lon="6.95993">
        <ele>438.5</ele>
        <time>2018-04-22T09:27:23Z</time>
      </trkpt>
      <trkpt lat="48.21798" lon="6.95977">
        <ele>438.02</ele>
        <time>2018-04-22T09:27:25Z</time>
      </trkpt>
      <trkpt lat="48.21795" lon="6.95959">
        <ele>436.58</ele>
        <time>2018-04-22T09:27:28Z</time>
      </trkpt>
      <trkpt lat="48.21792" lon="6.95941">
        <ele>435.61</ele>
        <time>2018-04-22T09:27:31Z</time>
      </trkpt>
      <trkpt lat="48.21791" lon="6.95923">
        <ele>434.17</ele>
        <time>2018-04-22T09:27:34Z</time>
      </trkpt>
      <trkpt lat="48.2179" lon="6.95905">
        <ele>432.25</ele>
        <time>2018-04-22T09:27:38Z</time>
      </trkpt>
      <trkpt lat="48.21791" lon="6.95887">
        <ele>431.29</ele>
        <time>2018-04-22T09:27:42Z</time>
      </trkpt>
      <trkpt lat="48.21797" lon="6.95866">
        <ele>429.85</ele>
        <time>2018-04-22T09:27:45Z</time>
      </trkpt>
      <trkpt lat="48.21801" lon="6.95848">
        <ele>428.4</ele>
        <time>2018-04-22T09:27:47Z</time>
      </trkpt>
      <trkpt lat="48.2181" lon="6.9583">
        <ele>426.48</ele>
        <time>2018-04-22T09:27:49Z</time>
      </trkpt>
      <trkpt lat="48.21822" lon="6.95814">
        <ele>426.48</ele>
        <time>2018-04-22T09:27:51Z</time>
      </trkpt>
      <trkpt lat="48.21835" lon="6.95803">
        <ele>426</ele>
        <time>2018-04-22T09:27:53Z</time>
      </trkpt>
      <trkpt lat="48.21846" lon="6.95793">
        <ele>425.04</ele>
        <time>2018-04-22T09:27:55Z</time>
      </trkpt>
      <trkpt lat="48.21856" lon="6.95779">
        <ele>424.08</ele>
        <time>2018-04-22T09:27:57Z</time>
      </trkpt>
      <trkpt lat="48.21863" lon="6.95759">
        <ele>422.64</ele>
        <time>2018-04-22T09:27:59Z</time>
      </trkpt>
      <trkpt lat="48.21865" lon="6.95735">
        <ele>422.16</ele>
        <time>2018-04-22T09:28:01Z</time>
      </trkpt>
      <trkpt lat="48.21868" lon="6.95711">
        <ele>422.16</ele>
        <time>2018-04-22T09:28:03Z</time>
      </trkpt>
      <trkpt lat="48.21872" lon="6.95689">
        <ele>421.19</ele>
        <time>2018-04-22T09:28:05Z</time>
      </trkpt>
      <trkpt lat="48.21871" lon="6.95673">
        <ele>422.16</ele>
        <time>2018-04-22T09:28:07Z</time>
      </trkpt>
      <trkpt lat="48.21863" lon="6.95662">
        <ele>421.19</ele>
        <time>2018-04-22T09:28:09Z</time>
      </trkpt>
      <trkpt lat="48.21851" lon="6.95655">
        <ele>421.68</ele>
        <time>2018-04-22T09:28:11Z</time>
      </trkpt>
      <trkpt lat="48.21839" lon="6.95648">
        <ele>421.19</ele>
        <time>2018-04-22T09:28:13Z</time>
      </trkpt>
      <trkpt lat="48.21828" lon="6.9564">
        <ele>421.68</ele>
        <time>2018-04-22T09:28:15Z</time>
      </trkpt>
      <trkpt lat="48.21817" lon="6.95633">
        <ele>422.16</ele>
        <time>2018-04-22T09:28:17Z</time>
      </trkpt>
      <trkpt lat="48.21805" lon="6.95629">
        <ele>421.68</ele>
        <time>2018-04-22T09:28:19Z</time>
      </trkpt>
      <trkpt lat="48.21793" lon="6.95626">
        <ele>421.68</ele>
        <time>2018-04-22T09:28:21Z</time>
      </trkpt>
      <trkpt lat="48.2178" lon="6.95623">
        <ele>421.68</ele>
        <time>2018-04-22T09:28:23Z</time>
      </trkpt>
      <trkpt lat="48.21768" lon="6.9562">
        <ele>422.16</ele>
        <time>2018-04-22T09:28:25Z</time>
      </trkpt>
      <trkpt lat="48.21757" lon="6.95618">
        <ele>422.64</ele>
        <time>2018-04-22T09:28:27Z</time>
      </trkpt>
      <trkpt lat="48.21745" lon="6.95614">
        <ele>423.12</ele>
        <time>2018-04-22T09:28:29Z</time>
      </trkpt>
      <trkpt lat="48.21734" lon="6.95612">
        <ele>423.12</ele>
        <time>2018-04-22T09:28:31Z</time>
      </trkpt>
      <trkpt lat="48.21722" lon="6.9561">
        <ele>423.12</ele>
        <time>2018-04-22T09:28:33Z</time>
      </trkpt>
      <trkpt lat="48.2171" lon="6.95608">
        <ele>423.6</ele>
        <time>2018-04-22T09:28:35Z</time>
      </trkpt>
      <trkpt lat="48.21699" lon="6.95606">
        <ele>423.6</ele>
        <time>2018-04-22T09:28:37Z</time>
      </trkpt>
      <trkpt lat="48.21687" lon="6.95604">
        <ele>424.08</ele>
        <time>2018-04-22T09:28:39Z</time>
      </trkpt>
      <trkpt lat="48.21675" lon="6.95602">
        <ele>424.08</ele>
        <time>2018-04-22T09:28:41Z</time>
      </trkpt>
      <trkpt lat="48.21664" lon="6.95602">
        <ele>424.08</ele>
        <time>2018-04-22T09:28:43Z</time>
      </trkpt>
      <trkpt lat="48.21652" lon="6.95601">
        <ele>424.08</ele>
        <time>2018-04-22T09:28:45Z</time>
      </trkpt>
      <trkpt lat="48.2164" lon="6.95601">
        <ele>423.6</ele>
        <time>2018-04-22T09:28:47Z</time>
      </trkpt>
      <trkpt lat="48.21629" lon="6.95602">
        <ele>424.08</ele>
        <time>2018-04-22T09:28:49Z</time>
      </trkpt>
      <trkpt lat="48.21618" lon="6.95602">
        <ele>424.08</ele>
        <time>2018-04-22T09:28:51Z</time>
      </trkpt>
      <trkpt lat="48.21607" lon="6.95604">
        <ele>424.08</ele>
        <time>2018-04-22T09:28:53Z</time>
      </trkpt>
      <trkpt lat="48.21597" lon="6.95605">
        <ele>424.08</ele>
        <time>2018-04-22T09:28:55Z</time>
      </trkpt>
      <trkpt lat="48.21586" lon="6.95605">
        <ele>424.56</ele>
        <time>2018-04-22T09:28:57Z</time>
      </trkpt>
      <trkpt lat="48.21576" lon="6.95605">
        <ele>424.56</ele>
        <time>2018-04-22T09:28:59Z</time>
      </trkpt>
      <trkpt lat="48.21566" lon="6.95605">
        <ele>425.04</ele>
        <time>2018-04-22T09:29:01Z</time>
      </trkpt>
      <trkpt lat="48.21556" lon="6.95606">
        <ele>425.52</ele>
        <time>2018-04-22T09:29:03Z</time>
      </trkpt>
      <trkpt lat="48.21546" lon="6.95607">
        <ele>425.52</ele>
        <time>2018-04-22T09:29:05Z</time>
      </trkpt>
      <trkpt lat="48.21536" lon="6.95608">
        <ele>425.52</ele>
        <time>2018-04-22T09:29:07Z</time>
      </trkpt>
      <trkpt lat="48.21526" lon="6.9561">
        <ele>425.52</ele>
        <time>2018-04-22T09:29:09Z</time>
      </trkpt>
      <trkpt lat="48.21517" lon="6.95612">
        <ele>426</ele>
        <time>2018-04-22T09:29:11Z</time>
      </trkpt>
      <trkpt lat="48.21507" lon="6.95611">
        <ele>426.48</ele>
        <time>2018-04-22T09:29:13Z</time>
      </trkpt>
      <trkpt lat="48.21503" lon="6.95594">
        <ele>426</ele>
        <time>2018-04-22T09:29:16Z</time>
      </trkpt>
      <trkpt lat="48.21506" lon="6.95574">
        <ele>426</ele>
        <time>2018-04-22T09:29:19Z</time>
      </trkpt>
      <trkpt lat="48.21509" lon="6.9556">
        <ele>425.52</ele>
        <time>2018-04-22T09:29:21Z</time>
      </trkpt>
      <trkpt lat="48.21511" lon="6.95546">
        <ele>425.52</ele>
        <time>2018-04-22T09:29:23Z</time>
      </trkpt>
      <trkpt lat="48.21514" lon="6.95531">
        <ele>425.52</ele>
        <time>2018-04-22T09:29:25Z</time>
      </trkpt>
      <trkpt lat="48.21516" lon="6.95515">
        <ele>426</ele>
        <time>2018-04-22T09:29:27Z</time>
      </trkpt>
      <trkpt lat="48.21519" lon="6.95499">
        <ele>425.52</ele>
        <time>2018-04-22T09:29:29Z</time>
      </trkpt>
      <trkpt lat="48.21522" lon="6.95483">
        <ele>425.52</ele>
        <time>2018-04-22T09:29:31Z</time>
      </trkpt>
      <trkpt lat="48.21524" lon="6.95466">
        <ele>425.52</ele>
        <time>2018-04-22T09:29:33Z</time>
      </trkpt>
      <trkpt lat="48.21527" lon="6.9545">
        <ele>426</ele>
        <time>2018-04-22T09:29:35Z</time>
      </trkpt>
      <trkpt lat="48.21529" lon="6.95433">
        <ele>425.52</ele>
        <time>2018-04-22T09:29:37Z</time>
      </trkpt>
      <trkpt lat="48.21532" lon="6.95417">
        <ele>425.52</ele>
        <time>2018-04-22T09:29:39Z</time>
      </trkpt>
      <trkpt lat="48.21534" lon="6.95401">
        <ele>425.52</ele>
        <time>2018-04-22T09:29:41Z</time>
      </trkpt>
      <trkpt lat="48.21537" lon="6.95385">
        <ele>425.52</ele>
        <time>2018-04-22T09:29:43Z</time>
      </trkpt>
      <trkpt lat="48.21539" lon="6.95369">
        <ele>425.52</ele>
        <time>2018-04-22T09:29:45Z</time>
      </trkpt>
      <trkpt lat="48.21542" lon="6.95353">
        <ele>425.52</ele>
        <time>2018-04-22T09:29:47Z</time>
      </trkpt>
      <trkpt lat="48.21544" lon="6.95336">
        <ele>425.04</ele>
        <time>2018-04-22T09:29:49Z</time>
      </trkpt>
      <trkpt lat="48.21547" lon="6.9532">
        <ele>425.52</ele>
        <time>2018-04-22T09:29:51Z</time>
      </trkpt>
      <trkpt lat="48.21549" lon="6.95304">
        <ele>425.04</ele>
        <time>2018-04-22T09:29:53Z</time>
      </trkpt>
      <trkpt lat="48.21551" lon="6.95288">
        <ele>425.52</ele>
        <time>2018-04-22T09:29:55Z</time>
      </trkpt>
      <trkpt lat="48.21552" lon="6.95273">
        <ele>425.52</ele>
        <time>2018-04-22T09:29:57Z</time>
      </trkpt>
      <trkpt lat="48.21555" lon="6.95258">
        <ele>425.04</ele>
        <time>2018-04-22T09:29:59Z</time>
      </trkpt>
      <trkpt lat="48.21558" lon="6.95242">
        <ele>425.52</ele>
        <time>2018-04-22T09:30:01Z</time>
      </trkpt>
      <trkpt lat="48.2156" lon="6.95226">
        <ele>424.56</ele>
        <time>2018-04-22T09:30:03Z</time>
      </trkpt>
      <trkpt lat="48.21562" lon="6.9521">
        <ele>425.04</ele>
        <time>2018-04-22T09:30:05Z</time>
      </trkpt>
      <trkpt lat="48.21564" lon="6.95193">
        <ele>425.04</ele>
        <time>2018-04-22T09:30:07Z</time>
      </trkpt>
      <trkpt lat="48.21566" lon="6.95177">
        <ele>425.04</ele>
        <time>2018-04-22T09:30:09Z</time>
      </trkpt>
      <trkpt lat="48.21569" lon="6.9516">
        <ele>425.04</ele>
        <time>2018-04-22T09:30:11Z</time>
      </trkpt>
      <trkpt lat="48.21571" lon="6.95143">
        <ele>425.04</ele>
        <time>2018-04-22T09:30:13Z</time>
      </trkpt>
      <trkpt lat="48.21574" lon="6.95126">
        <ele>424.56</ele>
        <time>2018-04-22T09:30:15Z</time>
      </trkpt>
      <trkpt lat="48.21577" lon="6.95109">
        <ele>424.56</ele>
        <time>2018-04-22T09:30:17Z</time>
      </trkpt>
      <trkpt lat="48.21579" lon="6.95093">
        <ele>424.08</ele>
        <time>2018-04-22T09:30:19Z</time>
      </trkpt>
      <trkpt lat="48.21582" lon="6.95076">
        <ele>424.08</ele>
        <time>2018-04-22T09:30:21Z</time>
      </trkpt>
      <trkpt lat="48.21584" lon="6.9506">
        <ele>424.56</ele>
        <time>2018-04-22T09:30:23Z</time>
      </trkpt>
      <trkpt lat="48.21587" lon="6.95043">
        <ele>425.04</ele>
        <time>2018-04-22T09:30:25Z</time>
      </trkpt>
      <trkpt lat="48.21589" lon="6.95027">
        <ele>425.04</ele>
        <time>2018-04-22T09:30:27Z</time>
      </trkpt>
      <trkpt lat="48.21592" lon="6.95011">
        <ele>424.56</ele>
        <time>2018-04-22T09:30:29Z</time>
      </trkpt>
      <trkpt lat="48.21594" lon="6.94996">
        <ele>424.56</ele>
        <time>2018-04-22T09:30:31Z</time>
      </trkpt>
      <trkpt lat="48.21595" lon="6.94981">
        <ele>425.04</ele>
        <time>2018-04-22T09:30:33Z</time>
      </trkpt>
      <trkpt lat="48.21592" lon="6.94968">
        <ele>425.04</ele>
        <time>2018-04-22T09:30:35Z</time>
      </trkpt>
      <trkpt lat="48.21586" lon="6.94956">
        <ele>425.04</ele>
        <time>2018-04-22T09:30:37Z</time>
      </trkpt>
      <trkpt lat="48.2158" lon="6.94943">
        <ele>424.56</ele>
        <time>2018-04-22T09:30:39Z</time>
      </trkpt>
      <trkpt lat="48.21574" lon="6.9493">
        <ele>424.08</ele>
        <time>2018-04-22T09:30:41Z</time>
      </trkpt>
      <trkpt lat="48.21567" lon="6.94917">
        <ele>424.08</ele>
        <time>2018-04-22T09:30:43Z</time>
      </trkpt>
      <trkpt lat="48.21561" lon="6.94903">
        <ele>424.08</ele>
        <time>2018-04-22T09:30:45Z</time>
      </trkpt>
      <trkpt lat="48.21554" lon="6.9489">
        <ele>424.08</ele>
        <time>2018-04-22T09:30:47Z</time>
      </trkpt>
      <trkpt lat="48.21548" lon="6.94877">
        <ele>424.08</ele>
        <time>2018-04-22T09:30:49Z</time>
      </trkpt>
      <trkpt lat="48.21542" lon="6.94864">
        <ele>424.08</ele>
        <time>2018-04-22T09:30:51Z</time>
      </trkpt>
      <trkpt lat="48.21536" lon="6.9485">
        <ele>424.08</ele>
        <time>2018-04-22T09:30:53Z</time>
      </trkpt>
      <trkpt lat="48.2153" lon="6.94836">
        <ele>424.08</ele>
        <time>2018-04-22T09:30:55Z</time>
      </trkpt>
      <trkpt lat="48.21525" lon="6.94822">
        <ele>425.04</ele>
        <time>2018-04-22T09:30:57Z</time>
      </trkpt>
      <trkpt lat="48.2152" lon="6.94808">
        <ele>425.04</ele>
        <time>2018-04-22T09:30:59Z</time>
      </trkpt>
      <trkpt lat="48.21516" lon="6.94794">
        <ele>425.04</ele>
        <time>2018-04-22T09:31:01Z</time>
      </trkpt>
      <trkpt lat="48.21513" lon="6.94779">
        <ele>425.04</ele>
        <time>2018-04-22T09:31:03Z</time>
      </trkpt>
      <trkpt lat="48.21511" lon="6.94764">
        <ele>425.04</ele>
        <time>2018-04-22T09:31:05Z</time>
      </trkpt>
      <trkpt lat="48.21508" lon="6.94748">
        <ele>425.52</ele>
        <time>2018-04-22T09:31:07Z</time>
      </trkpt>
      <trkpt lat="48.21506" lon="6.94732">
        <ele>425.04</ele>
        <time>2018-04-22T09:31:09Z</time>
      </trkpt>
      <trkpt lat="48.21504" lon="6.94716">
        <ele>425.04</ele>
        <time>2018-04-22T09:31:11Z</time>
      </trkpt>
      <trkpt lat="48.21503" lon="6.947">
        <ele>425.04</ele>
        <time>2018-04-22T09:31:13Z</time>
      </trkpt>
      <trkpt lat="48.21502" lon="6.94684">
        <ele>425.04</ele>
        <time>2018-04-22T09:31:15Z</time>
      </trkpt>
      <trkpt lat="48.21502" lon="6.9467">
        <ele>425.52</ele>
        <time>2018-04-22T09:31:17Z</time>
      </trkpt>
      <trkpt lat="48.21503" lon="6.94656">
        <ele>426</ele>
        <time>2018-04-22T09:31:19Z</time>
      </trkpt>
      <trkpt lat="48.21504" lon="6.94641">
        <ele>425.52</ele>
        <time>2018-04-22T09:31:21Z</time>
      </trkpt>
      <trkpt lat="48.21506" lon="6.94628">
        <ele>426</ele>
        <time>2018-04-22T09:31:23Z</time>
      </trkpt>
      <trkpt lat="48.21508" lon="6.94614">
        <ele>425.52</ele>
        <time>2018-04-22T09:31:25Z</time>
      </trkpt>
      <trkpt lat="48.21512" lon="6.94599">
        <ele>425.52</ele>
        <time>2018-04-22T09:31:29Z</time>
      </trkpt>
      <trkpt lat="48.21521" lon="6.94606">
        <ele>425.52</ele>
        <time>2018-04-22T09:31:34Z</time>
      </trkpt>
      <trkpt lat="48.2153" lon="6.9461">
        <ele>425.04</ele>
        <time>2018-04-22T09:31:42Z</time>
      </trkpt>
      <trkpt lat="48.21538" lon="6.94609">
        <ele>424.56</ele>
        <time>2018-04-22T09:33:13Z</time>
      </trkpt>
    </trkseg>
  </trk>
</gpx>